Date StartTime U_cm/s V_cm/s W_cm/s Ustd_cm/s Vstd_cm/s Wstd_cm/s Uvar_(cm/s)^2 Vvar_(cm/s)^2 Wvar_(cm/s)^2 KE_(m/s)^2 TurbulentKE_(m/s)^2 HorizWindSpeed_cm/s FrictionSpeec_cm/s DragCoef SpeedOfSound_m/s SonicTemperature_C Pressure_mb 
10/11/2014  00:00:00      -25.352       -8.754       -0.665       13.760       11.649        5.445      189.326      135.701       29.644        0.054        0.018       26.821        4.772        0.032      340.317       14.255      864.671
10/11/2014  00:01:00       -1.868       -3.044        4.331        8.457        9.773        6.314       71.524       95.520       39.864        0.012        0.010        3.571        2.263        0.401      340.111       13.906      864.684
10/11/2014  00:02:00      -45.678       -7.660       -2.933       20.783        6.453        5.076      431.953       41.639       25.768        0.133        0.025       46.315        5.470        0.014      340.117       13.916      864.685
10/11/2014  00:03:00      -79.489       -9.757       -9.654       11.482       11.324        7.726      131.827      128.225       59.697        0.341        0.016       80.085        6.148        0.006      340.186       14.033      864.678
10/11/2014  00:04:00      -91.664      -15.517      -10.964       12.370       16.646       10.653      153.012      277.085      113.477        0.465        0.027       92.968        6.215        0.004      340.005       13.727      864.668
10/11/2014  00:05:00      -78.533       -0.696       -8.918       20.161       18.586        9.469      406.461      345.443       89.653        0.354        0.042       78.536        7.637        0.009      339.965       13.660      864.677
10/11/2014  00:06:00     -109.003      -26.955      -17.323       15.899       16.903       11.083      252.790      285.707      122.843        0.678        0.033      112.286        5.487        0.002      339.912       13.571      864.691
10/11/2014  00:07:00      -83.599      -35.258      -15.458       18.054       28.495       12.894      325.933      811.964      166.266        0.489        0.065       90.730        2.512        0.001      339.881       13.518      864.699
10/11/2014  00:08:00     -101.017      -35.017      -19.738       12.484       21.036       11.314      155.851      442.521      128.000        0.627        0.036      106.914        9.090        0.007      339.806       13.393      864.716
10/11/2014  00:09:00      -80.535      -34.396       -8.279       19.185       19.511       10.236      368.070      380.660      104.767        0.430        0.043       87.573       10.333        0.014      339.835       13.441      864.731
10/11/2014  00:10:00      -52.955      -15.588       -6.423       11.838       12.293        8.723      140.128      151.118       76.097        0.173        0.018       55.202        8.541        0.024      339.916       13.577      864.740
10/11/2014  00:11:00      -63.474      -35.112       -9.176       16.173       15.361        7.967      261.562      235.955       63.475        0.295        0.028       72.539        4.603        0.004      340.003       13.725      864.747
10/11/2014  00:12:00      -62.768      -48.178       -8.285       20.496       17.708       11.142      420.080      313.564      124.152        0.359        0.043       79.126        6.638        0.007      339.954       13.641      864.746
10/11/2014  00:13:00      -43.290      -31.245       -1.065       35.515       24.627       17.591     1261.320      606.468      309.450        0.251        0.109       53.388       13.024        0.060      339.888       13.529      864.745
10/11/2014  00:14:00      -32.837      -34.094       -2.871       24.982       21.796       13.521      624.101      475.073      182.825        0.177        0.064       47.335       12.436        0.069      339.973       13.673      864.741
10/11/2014  00:15:00      -14.817      -19.947        9.243       25.190       19.683       16.331      634.527      387.426      266.715        0.100        0.064       24.848       18.892        0.578      340.106       13.896      864.725
10/11/2014  00:16:00      -29.378      -23.468       -7.356       16.041       13.248       10.066      257.323      175.520      101.320        0.100        0.027       37.600        9.189        0.060      340.255       14.149      864.715
10/11/2014  00:17:00      -38.230      -14.821       -3.800       12.835       13.220        8.102      164.729      174.773       65.647        0.105        0.020       41.003        5.893        0.021      340.165       13.995      864.709
10/11/2014  00:18:00      -16.666      -22.775        2.252       10.791       19.481       10.912      116.437      379.521      119.066        0.071        0.031       28.221       10.174        0.130      340.222       14.092      864.710
10/11/2014  00:19:00      -32.337      -22.641       -5.301       19.682       13.192       11.417      387.381      174.035      130.338        0.114        0.035       39.475        8.688        0.048      340.178       14.020      864.722
10/11/2014  00:20:00      -25.735      -16.523        0.517       19.736       20.058       12.218      389.496      402.343      149.278        0.094        0.047       30.583        8.363        0.075      340.015       13.743      864.727
10/11/2014  00:21:00      -18.715      -28.740        0.826       29.289       23.521       14.194      857.838      553.239      201.457        0.139        0.081       34.296       17.022        0.246      340.091       13.872      864.726
10/11/2014  00:22:00       -0.652      -12.850       10.676       33.123       23.950       18.855     1097.119      573.589      355.530        0.115        0.101       12.867       20.804        2.614      340.007       13.730      864.721
10/11/2014  00:23:00       -6.335      -16.524       23.020       43.863       20.015       21.807     1923.961      400.585      475.560        0.182        0.140       17.697       27.368        2.392      339.939       13.616      864.718
10/11/2014  00:24:00      -36.857      -24.006      -10.105       25.581       22.608       18.329      654.391      511.126      335.960        0.177        0.075       43.985       12.431        0.080      340.075       13.844      864.721
10/11/2014  00:25:00      -14.792      -24.376        0.608       21.866       19.229       12.618      478.113      369.753      159.220        0.091        0.050       28.513        7.244        0.065      340.124       13.928      864.734
10/11/2014  00:26:00      -39.124      -18.970       -0.200       14.687       11.897        9.621      215.717      141.532       92.571        0.117        0.022       43.481        6.870        0.025      339.930       13.601      864.724
10/11/2014  00:27:00      -63.620      -23.835        1.814       25.140       16.110       10.963      632.028      259.520      120.188        0.282        0.051       67.938        9.967        0.022      339.852       13.470      864.712
10/11/2014  00:28:00      -35.554      -35.911       -2.552       29.146       17.636       12.429      849.497      311.040      154.482        0.194        0.066       50.534        8.694        0.030      339.836       13.442      864.695
10/11/2014  00:29:00      -99.953      -62.524        0.497       21.442       24.198       14.042      459.772      585.529      197.186        0.757        0.062      117.898       10.555        0.008      340.032       13.772      864.685
10/11/2014  00:30:00      -53.880      -28.213        5.845       36.410       33.414       17.050     1325.663     1116.485      290.702        0.323        0.137       60.819       15.554        0.065      339.887       13.528      864.685
10/11/2014  00:31:00      -46.810      -31.083        6.393       41.288       21.093       17.006     1704.706      444.931      289.189        0.282        0.122       56.190       21.573        0.147      339.896       13.545      864.700
10/11/2014  00:32:00      -28.706      -35.975        1.194       25.097       15.789       10.314      629.842      249.290      106.386        0.155        0.049       46.024       12.440        0.073      339.927       13.597      864.713
10/11/2014  00:33:00      -11.974      -36.696        7.435       25.901       23.356       13.808      670.880      545.504      190.650        0.148        0.070       38.600       12.858        0.111      339.826       13.426      864.714
10/11/2014  00:34:00       -2.866      -35.358       -8.165       20.315       19.988       16.959      412.689      399.503      287.608        0.121        0.055       35.474       12.044        0.115      339.824       13.423      864.730
10/11/2014  00:35:00       -8.114      -24.645        8.604       26.760       13.175       13.433      716.074      173.576      180.447        0.091        0.054       25.946       13.963        0.290      339.743       13.285      864.731
10/11/2014  00:36:00      -20.173      -28.542        2.950       18.083       18.901       13.738      326.994      357.239      188.746        0.105        0.044       34.951       10.691        0.094      339.799       13.380      864.722
10/11/2014  00:37:00      -66.767      -32.087       -1.620       12.861       10.438        8.997      165.398      108.962       80.939        0.292        0.018       74.077        4.020        0.003      340.021       13.753      864.731
10/11/2014  00:38:00      -81.176      -33.175       -4.880       22.211       15.886        9.795      493.318      252.350       95.947        0.428        0.042       87.694       11.337        0.017      339.995       13.709      864.742
10/11/2014  00:39:00      -81.414      -39.534      -10.363       12.261       12.779        9.907      150.331      163.308       98.147        0.436        0.021       90.505        7.483        0.007      339.918       13.581      864.754
10/11/2014  00:40:00      -77.352      -26.469      -11.562        7.346        6.835        6.029       53.957       46.722       36.352        0.348        0.007       81.756        3.518        0.002      339.894       13.541      864.750
10/11/2014  00:41:00      -73.725      -26.904      -12.437        8.009        8.630        6.691       64.144       74.481       44.773        0.325        0.009       78.481        4.654        0.004      339.877       13.514      864.744
10/11/2014  00:42:00      -76.783      -30.494      -11.052       12.505        8.497        6.923      156.368       72.206       47.922        0.361        0.014       82.617        3.121        0.001      339.852       13.472      864.738
10/11/2014  00:43:00     -107.627      -56.096        2.923       29.885       20.970       16.917      893.087      439.747      286.199        0.818        0.081      121.368       14.670        0.015      339.751       13.299      864.734
10/11/2014  00:44:00      -96.900      -43.901       -5.079       21.372       19.930       14.787      456.747      397.222      218.643        0.621        0.054      106.381        7.855        0.005      339.752       13.301      864.734
10/11/2014  00:45:00      -57.605      -18.970       -4.128       15.801       11.650        5.440      249.656      135.729       29.589        0.206        0.021       60.648        3.799        0.004      339.874       13.508      864.732
10/11/2014  00:46:00      -54.620      -15.168       -2.179       16.002        9.455        7.868      256.048       89.403       61.901        0.181        0.020       56.687        7.848        0.019      339.962       13.655      864.733
10/11/2014  00:47:00      -96.324      -34.879       -9.650       17.329       12.183        7.992      300.292      148.419       63.875        0.555        0.026      102.444        6.548        0.004      339.918       13.581      864.734
10/11/2014  00:48:00      -77.700      -41.139       -2.254       11.024       10.982        8.512      121.518      120.605       72.457        0.402        0.016       87.919        6.157        0.005      339.885       13.524      864.734
10/11/2014  00:49:00      -70.791      -40.363       -4.872       16.345       11.143        7.847      267.151      124.175       61.570        0.356        0.023       81.490        8.203        0.010      339.906       13.560      864.747
10/11/2014  00:50:00      -84.454      -46.227       -7.114       25.117       15.383       10.831      630.869      236.627      117.312        0.515        0.049       96.278       12.187        0.016      339.854       13.474      864.753
10/11/2014  00:51:00     -122.121      -46.465       -9.494       15.920       12.743       11.466      253.444      162.394      131.476        0.885        0.027      130.662        7.228        0.003      339.797       13.377      864.744
10/11/2014  00:52:00     -120.240      -50.675      -12.896       14.868       14.027        8.969      221.056      196.751       80.450        0.884        0.025      130.482        6.487        0.002      339.772       13.334      864.730
10/11/2014  00:53:00      -88.555      -36.147       -4.936       18.604       15.284        9.563      346.125      233.589       91.447        0.492        0.034       95.649        8.751        0.008      339.752       13.302      864.718
10/11/2014  00:54:00     -106.256      -33.405      -11.026       13.432       16.884        9.033      180.428      285.066       81.586        0.654        0.027      111.384        9.528        0.007      339.696       13.207      864.725
10/11/2014  00:55:00     -115.024      -25.617      -12.013       19.956       22.696       12.056      398.253      515.089      145.348        0.754        0.053      117.842        9.092        0.006      339.621       13.078      864.731
10/11/2014  00:56:00     -115.657      -42.474      -11.107       17.254       16.840       13.746      297.715      283.585      188.956        0.804        0.039      123.209        9.170        0.006      339.594       13.034      864.734
10/11/2014  00:57:00      -97.066      -31.751       -3.200       18.687       20.454       12.455      349.208      418.356      155.121        0.568        0.046      102.127        8.973        0.008      339.663       13.150      864.730
10/11/2014  00:58:00      -34.605      -16.573        6.277       23.170       19.592       13.128      536.845      383.836      172.336        0.130        0.055       38.369       13.787        0.129      339.672       13.167      864.718
10/11/2014  00:59:00      -16.189       -0.771        0.970       15.197       15.343       11.349      230.937      235.413      128.809        0.043        0.030       16.208        7.541        0.216      339.637       13.107      864.723
10/11/2014  01:00:00      -72.166      -30.215       -5.639       15.742       13.057        9.041      247.807      170.487       81.747        0.333        0.025       78.236        8.314        0.011      339.851       13.468      864.727
10/11/2014  01:01:00     -102.438      -15.179       -5.973       32.254       22.097       16.888     1040.310      488.274      285.208        0.629        0.091      103.557       14.832        0.021      339.651       13.131      864.734
10/11/2014  01:02:00     -125.150       -4.119      -17.185       13.839       13.602       11.455      191.510      185.014      131.212        0.824        0.025      125.218        5.668        0.002      339.450       12.791      864.739
10/11/2014  01:03:00      -99.751        2.762      -13.409       28.448       18.917       15.349      809.304      357.840      235.586        0.577        0.070       99.790       16.598        0.028      339.461       12.811      864.735
10/11/2014  01:04:00      -44.499      -15.294      -10.655       25.469        9.791        7.372      648.665       95.869       54.343        0.156        0.040       47.054        8.162        0.030      339.591       13.030      864.733
10/11/2014  01:05:00      -15.073      -17.505       -5.762       10.130       10.820        7.460      102.615      117.075       55.657        0.042        0.014       23.100        4.441        0.037      339.859       13.482      864.728
10/11/2014  01:06:00      -40.904       -7.512       -3.854       59.178       14.357       16.859     3502.079      206.137      284.223        0.287        0.200       41.588       26.464        0.405      339.552       12.963      864.726
10/11/2014  01:07:00      -84.465      -46.979       -8.834       23.494       34.761       18.628      551.971     1208.319      346.987        0.576        0.105       96.651       12.658        0.017      339.577       13.006      864.726
10/11/2014  01:08:00      -99.046      -28.569       -9.173       20.708       24.361       13.835      428.826      593.459      191.406        0.596        0.061      103.084        7.599        0.005      339.514       12.900      864.727
10/11/2014  01:09:00      -94.448      -44.327       -9.187       24.462       28.326       19.490      598.395      802.358      379.862        0.637        0.089      104.333       16.319        0.024      339.372       12.661      864.739
10/11/2014  01:10:00      -41.246      -25.038       -6.238       24.185       23.722       13.926      584.907      562.739      193.936        0.185        0.067       48.251       14.631        0.092      339.443       12.779      864.739
10/11/2014  01:11:00      -34.524      -12.340       -3.958       16.631       18.151       16.012      276.594      329.442      256.396        0.111        0.043       36.663        9.714        0.070      339.410       12.725      864.736
10/11/2014  01:12:00      -63.406      -25.339       -9.401       15.108       22.138       12.167      228.262      490.070      148.034        0.281        0.043       68.281        9.093        0.018      339.445       12.785      864.731
10/11/2014  01:13:00      -71.214      -38.179      -18.150       23.817       18.862       14.044      567.250      355.789      197.241        0.399        0.056       80.802       11.010        0.019      339.382       12.676      864.741
10/11/2014  01:14:00      -89.765      -26.904      -13.605       13.160       14.976       11.111      173.173      224.276      123.445        0.474        0.026       93.710        7.087        0.006      339.359       12.638      864.744
10/11/2014  01:15:00      -58.754      -16.855       -7.687       17.315       21.857       11.403      299.811      477.744      130.038        0.235        0.045       61.124        9.833        0.026      339.429       12.757      864.738
10/11/2014  01:16:00      -41.907      -13.698        1.182       16.110       20.702       11.402      259.521      428.575      130.011        0.138        0.041       44.089        8.945        0.041      339.428       12.755      864.742
10/11/2014  01:17:00      -59.309      -25.644       -6.249       16.142       12.821       11.557      260.552      164.368      133.564        0.239        0.028       64.616        6.696        0.011      339.381       12.674      864.742
10/11/2014  01:18:00     -115.210      -55.928      -19.260       21.223       18.347       10.129      450.409      336.625      102.595        0.883        0.044      128.068        7.134        0.003      339.345       12.614      864.748
10/11/2014  01:19:00     -140.684      -55.072      -13.535       17.610       15.316       11.905      310.124      234.585      141.719        1.185        0.034      151.079        8.922        0.003      339.360       12.639      864.753
10/11/2014  01:20:00     -111.218      -49.213       -0.237       27.118       20.366       17.863      735.369      414.792      319.071        0.813        0.073      121.620       15.896        0.017      339.407       12.719      864.752
10/11/2014  01:21:00     -115.742      -41.161       -1.641       16.668       17.575       11.374      277.815      308.869      129.361        0.790        0.036      122.843        7.916        0.004      339.416       12.734      864.745
10/11/2014  01:22:00      -96.230      -25.561       -7.125       20.411       16.227       10.346      416.589      263.312      107.049        0.538        0.039       99.567        8.561        0.007      339.413       12.730      864.744
10/11/2014  01:23:00     -115.092      -38.819       -5.416       14.068       17.664        8.838      197.913      312.007       78.113        0.769        0.029      121.462        4.565        0.001      339.431       12.760      864.728
10/11/2014  01:24:00     -114.291      -46.760       -6.662       13.355       17.191       12.176      178.363      295.521      148.259        0.796        0.031      123.486        5.852        0.002      339.297       12.532      864.719
10/11/2014  01:25:00      -76.786      -33.455       -0.737       20.141       16.991       14.892      405.667      288.680      221.762        0.397        0.046       83.758       10.632        0.016      339.271       12.490      864.716
10/11/2014  01:26:00      -98.765      -34.545       -9.946       19.029       17.485       10.544      362.098      305.737      111.166        0.591        0.039      104.633        5.250        0.003      339.322       12.576      864.725
10/11/2014  01:27:00      -94.001      -48.117       -6.784       19.552       15.370       14.263      382.299      236.231      203.429        0.601        0.041      105.600        8.504        0.006      339.219       12.402      864.718
10/11/2014  01:28:00      -16.957      -20.598        4.192       25.683       18.869       18.195      659.637      356.050      331.041        0.104        0.067       26.680       15.494        0.337      339.254       12.460      864.711
10/11/2014  01:29:00      -43.514      -33.780        1.015       30.495       21.405       15.514      929.933      458.153      240.675        0.233        0.081       55.087       17.476        0.101      339.329       12.588      864.707
10/11/2014  01:30:00      -66.426      -45.644        2.143       35.780       23.799       17.856     1280.208      566.379      318.827        0.433        0.108       80.596       17.387        0.047      339.413       12.729      864.708
10/11/2014  01:31:00     -107.098      -49.967       -6.483       30.072       18.070       18.959      904.312      326.542      359.434        0.780        0.080      118.181       13.945        0.014      339.275       12.498      864.703
10/11/2014  01:32:00     -131.981      -79.793       -9.335       38.266       45.150       29.940     1464.297     2038.512      896.374        1.414        0.220      154.227       26.443        0.029      339.237       12.432      864.696
10/11/2014  01:33:00     -136.461      -65.268       -7.530       37.334       37.813       26.917     1393.858     1429.849      724.515        1.324        0.177      151.267       19.932        0.017      339.263       12.476      864.698
10/11/2014  01:34:00     -158.885      -77.877       -2.634       42.210       35.639       23.546     1781.674     1270.123      554.411        1.746        0.180      176.944       18.314        0.011      339.259       12.470      864.703
10/11/2014  01:35:00     -139.054      -56.702        4.729       50.728       39.255       30.474     2573.298     1540.955      928.674        1.381        0.252      150.170       28.529        0.036      339.200       12.369      864.697
10/11/2014  01:36:00     -147.688      -54.341       -6.973       36.774       30.943       21.743     1352.295      957.446      472.749        1.380        0.139      157.368       18.573        0.014      339.252       12.458      864.688
10/11/2014  01:37:00     -151.205      -57.383        0.747       43.619       39.371       27.086     1902.598     1550.114      733.675        1.517        0.209      161.727       25.953        0.026      339.277       12.500      864.684
10/11/2014  01:38:00     -101.444      -63.544        4.960       58.213       38.196       26.613     3388.717     1458.910      708.269        0.995        0.278      119.703       24.910        0.043      339.322       12.575      864.679
10/11/2014  01:39:00      -86.247      -76.120        6.280       48.629       35.071       27.770     2364.792     1229.950      771.186        0.882        0.218      115.034       26.049        0.051      339.395       12.699      864.668
10/11/2014  01:40:00     -101.298      -43.275       -0.939       37.694       21.722       19.190     1420.828      471.836      368.240        0.720        0.113      110.155       19.423        0.031      339.429       12.755      864.668
10/11/2014  01:41:00      -92.021      -59.323        3.033       45.858       32.275       23.295     2102.911     1041.667      542.655        0.784        0.184      109.486       23.729        0.047      339.411       12.725      864.676
10/11/2014  01:42:00      -87.934      -61.961        3.956       41.064       34.728       19.764     1686.282     1206.018      390.630        0.743        0.164      107.571       21.097        0.038      339.379       12.672      864.676
10/11/2014  01:43:00      -94.624      -51.972        5.043       44.285       28.829       18.103     1961.162      831.138      327.731        0.740        0.156      107.957       20.120        0.035      339.267       12.483      864.677
10/11/2014  01:44:00      -81.963      -47.969        1.969       38.673       28.210       21.067     1495.612      795.779      443.828        0.588        0.137       94.968       24.015        0.064      339.293       12.528      864.690
10/11/2014  01:45:00     -145.213      -41.632       -7.467       19.962       16.360       15.708      398.470      267.649      246.731        1.189        0.046      151.063       12.022        0.006      339.294       12.528      864.689
10/11/2014  01:46:00     -163.626      -50.530       -4.862       23.332       23.421       12.506      544.375      548.532      156.412        1.530        0.062      171.251       10.595        0.004      339.217       12.398      864.688
10/11/2014  01:47:00     -150.146      -61.509        1.757       39.714       26.281       20.831     1577.209      690.679      433.930        1.452        0.135      162.256       21.614        0.018      339.282       12.508      864.684
10/11/2014  01:48:00     -146.509      -62.468       -6.354       44.509       23.605       18.713     1981.082      557.199      350.194        1.415        0.144      159.271       19.878        0.016      339.255       12.463      864.688
10/11/2014  01:49:00     -113.276      -38.532        1.001       49.021       28.395       25.302     2403.100      806.286      640.214        0.908        0.192      119.650       27.876        0.054      339.188       12.350      864.701
10/11/2014  01:50:00     -130.822      -32.848       -5.493       36.236       24.983       24.976     1313.039      624.135      623.776        1.039        0.128      134.883       22.960        0.029      339.144       12.276      864.702
10/11/2014  01:51:00     -126.479      -27.028       -0.736       40.218       21.440       22.677     1617.492      459.652      514.256        0.966        0.130      129.335       25.218        0.038      339.042       12.105      864.700
10/11/2014  01:52:00     -119.418      -16.768       -5.165       35.137       26.181       22.893     1234.580      685.443      524.078        0.851        0.122      120.590       22.860        0.036      339.025       12.075      864.707
10/11/2014  01:53:00     -108.560       -7.525        2.533       49.209       33.907       28.093     2421.483     1149.684      789.240        0.810        0.218      108.821       27.669        0.065      339.104       12.209      864.702
10/11/2014  01:54:00     -131.915      -10.557       -5.997       36.649       31.539       23.524     1343.186      994.681      553.369        1.022        0.145      132.336       20.884        0.025      339.120       12.234      864.689
10/11/2014  01:55:00      -89.349      -29.644        2.588       38.838       32.625       18.838     1508.378     1064.419      354.889        0.590        0.146       94.138       14.826        0.025      339.012       12.055      864.677
10/11/2014  01:56:00      -50.420      -25.806        0.652       33.473       36.344       22.597     1120.414     1320.912      510.644        0.308        0.148       56.640       16.148        0.081      338.999       12.033      864.666
10/11/2014  01:57:00      -45.417        0.940        7.275       44.318       36.458       23.979     1964.079     1329.176      575.011        0.299        0.193       45.426       19.636        0.187      338.944       11.941      864.663
10/11/2014  01:58:00      -37.691       -2.950        9.797       28.089       26.818       14.331      789.009      719.216      205.366        0.162        0.086       37.806       11.415        0.091      338.897       11.861      864.653
10/11/2014  01:59:00       -2.019      -10.800        6.926       27.218       13.629       12.697      740.802      185.753      161.226        0.063        0.054       10.987       12.205        1.234      338.841       11.765      864.646
10/11/2014  02:00:00      -81.827      -25.821       -7.733       33.969       25.559       18.427     1153.869      653.263      339.555        0.478        0.107       85.805       12.915        0.023      338.916       11.893      864.645
10/11/2014  02:01:00      -67.465      -55.488        0.448       44.351       29.750       20.402     1966.973      885.076      416.251        0.545        0.163       87.352       13.228        0.023      338.873       11.820      864.663
10/11/2014  02:02:00      -93.954      -22.930       -1.867       37.794       24.700       19.620     1428.395      610.112      384.936        0.589        0.121       96.711       15.046        0.024      338.867       11.811      864.681
10/11/2014  02:03:00     -139.898      -22.581       -9.094       28.048       24.211       17.754      786.677      586.152      315.219        1.093        0.084      141.708       16.309        0.013      338.867       11.811      864.693
10/11/2014  02:04:00      -92.678      -11.534        4.160       41.012       34.597       21.701     1682.014     1196.969      470.928        0.604        0.167       93.393       23.043        0.061      338.844       11.772      864.688
10/11/2014  02:05:00      -72.118        7.880       -3.593       38.904       40.154       22.759     1513.504     1612.361      517.987        0.446        0.182       72.548       11.291        0.024      338.929       11.915      864.680
10/11/2014  02:06:00      -43.322      -11.171        7.994       44.627       32.083       20.499     1991.611     1029.334      420.225        0.275        0.172       44.739       23.913        0.286      338.912       11.885      864.679
10/11/2014  02:07:00      -42.110      -10.620        6.184       38.875       26.646       15.999     1511.262      710.020      255.983        0.220        0.124       43.429       16.838        0.150      338.946       11.942      864.675
10/11/2014  02:08:00      -42.928      -17.294        3.920       37.862       32.709       19.744     1433.522     1069.859      389.832        0.252        0.145       46.280       21.279        0.211      338.983       12.005      864.674
10/11/2014  02:09:00      -86.033      -18.429       -2.379       25.993       20.642       12.456      675.660      426.093      155.143        0.450        0.063       87.985       12.997        0.022      339.063       12.140      864.666
10/11/2014  02:10:00      -67.765      -32.845       -3.983       23.470       22.027       13.021      550.818      485.171      169.543        0.345        0.060       75.306        8.446        0.013      339.030       12.084      864.662
10/11/2014  02:11:00      -31.893      -14.404        7.575       24.966       18.785       14.896      623.282      352.889      221.878        0.124        0.060       34.995       14.145        0.163      339.019       12.064      864.659
10/11/2014  02:12:00      -50.401      -28.185        4.824       35.362       23.538       18.065     1250.494      554.023      326.337        0.274        0.107       57.746       20.337        0.124      339.051       12.118      864.653
10/11/2014  02:13:00      -78.539      -40.347       -3.065       27.520       24.170       14.317      757.377      584.192      204.983        0.468        0.077       88.296       14.909        0.029      339.092       12.190      864.646
10/11/2014  02:14:00     -104.214      -46.025       -1.040       29.036       22.780       19.646      843.075      518.928      385.973        0.736        0.087      113.925       16.966        0.022      338.967       11.979      864.643
10/11/2014  02:15:00      -61.383      -48.956       -0.979       31.987       29.161       19.273     1023.185      850.392      371.459        0.420        0.112       78.515       13.638        0.030      339.033       12.090      864.645
10/11/2014  02:16:00      -53.258      -42.926        2.460       41.126       26.297       17.014     1691.359      691.516      289.460        0.368        0.134       68.404       21.854        0.102      339.012       12.054      864.649
10/11/2014  02:17:00      -85.147      -39.102       -2.815       35.104       22.748       16.376     1232.273      517.458      268.170        0.540        0.101       93.697       17.286        0.034      338.921       11.901      864.640
10/11/2014  02:18:00      -21.161      -14.557       10.718       36.760       24.545       14.167     1351.304      602.479      200.709        0.146        0.108       25.685       12.824        0.249      338.870       11.815      864.636
10/11/2014  02:19:00       -1.881      -15.166       10.354       10.906       10.461        8.504      118.946      109.426       72.315        0.032        0.015       15.282        4.681        0.094      338.930       11.916      864.637
10/11/2014  02:20:00        5.148      -13.690        0.521        6.095       11.876        7.018       37.149      141.041       49.246        0.022        0.011       14.626        7.354        0.253      338.968       11.979      864.650
10/11/2014  02:21:00      -20.554       -4.764       -2.204        9.316       10.033        5.365       86.784      100.664       28.779        0.033        0.011       21.099        6.730        0.102      338.965       11.977      864.653
10/11/2014  02:22:00      -61.357      -23.851       -4.950       17.024        8.321        7.203      289.827       69.236       51.889        0.238        0.021       65.830        1.926        0.001      338.974       11.992      864.647
10/11/2014  02:23:00      -92.217      -27.080       -7.443       13.634       10.074        7.486      185.881      101.491       56.036        0.482        0.017       96.111        4.936        0.003      338.889       11.847      864.651
10/11/2014  02:24:00     -106.517      -19.834      -14.457       12.620       10.831        9.976      159.257      117.315       99.525        0.616        0.019      108.348        5.822        0.003      338.866       11.808      864.657
10/11/2014  02:25:00     -113.909      -27.801       -5.855       21.722       22.023       14.054      471.826      485.021      197.517        0.747        0.058      117.253       11.076        0.009      338.800       11.698      864.661
10/11/2014  02:26:00     -102.108      -46.992        3.662       28.138       20.041       11.873      791.745      401.659      140.970        0.699        0.067      112.402       10.799        0.009      338.746       11.607      864.652
10/11/2014  02:27:00      -91.308      -27.042        2.770       27.354       19.887       14.211      748.218      395.505      201.961        0.521        0.067       95.228       13.839        0.021      338.825       11.741      864.651
10/11/2014  02:28:00     -109.912      -36.578       -9.395       24.635       15.558       14.184      606.895      242.041      201.195        0.728        0.053      115.839       13.714        0.014      338.779       11.662      864.644
10/11/2014  02:29:00     -116.647      -30.798       -9.262       19.613       15.435       12.732      384.684      238.240      162.112        0.771        0.039      120.645        9.774        0.007      338.674       11.487      864.644
10/11/2014  02:30:00     -117.343      -47.903      -14.806       19.592       13.872       11.957      383.831      192.432      142.981        0.850        0.036      126.744        5.090        0.002      338.590       11.345      864.646
10/11/2014  02:31:00     -111.977      -56.342       -8.746       18.475       18.706       14.283      341.317      349.904      204.006        0.834        0.045      125.352        9.889        0.006      338.520       11.228      864.654
10/11/2014  02:32:00     -109.531      -24.127       -9.781       24.950       14.832       13.242      622.487      219.983      175.363        0.685        0.051      112.157        8.252        0.005      338.563       11.300      864.656
10/11/2014  02:33:00      -92.738      -22.654       -2.511       36.745       21.096       15.973     1350.214      445.021      255.126        0.558        0.103       95.464       16.132        0.029      338.593       11.350      864.655
10/11/2014  02:34:00      -96.092      -16.005       -2.840       29.953       18.045       16.261      897.200      325.637      264.434        0.549        0.074       97.416       15.582        0.026      338.590       11.345      864.659
10/11/2014  02:35:00     -102.015      -11.592      -10.208       27.718       15.188       15.569      768.302      230.680      242.390        0.594        0.062      102.671       17.344        0.029      338.556       11.287      864.660
10/11/2014  02:36:00      -98.302       -8.733      -10.906       22.647       14.618       16.495      512.899      213.699      272.075        0.543        0.050       98.689       14.551        0.022      338.595       11.352      864.659
10/11/2014  02:37:00      -24.854       -7.214       -2.915       30.913       18.303       14.256      955.641      335.006      203.232        0.109        0.075       25.880       14.785        0.326      338.604       11.368      864.657
10/11/2014  02:38:00      -76.828       13.762      -11.534       31.607       36.108       21.655      998.991     1303.787      468.921        0.450        0.139       78.051       16.418        0.044      338.637       11.423      864.654
10/11/2014  02:39:00      -77.965       -4.549       -9.361       22.702       25.588       14.636      515.386      654.753      214.200        0.379        0.069       78.097       10.195        0.017      338.600       11.361      864.650
10/11/2014  02:40:00      -45.185       -8.245       -5.922       18.114       18.385       15.436      328.130      338.011      238.256        0.152        0.045       45.931       10.633        0.054      338.563       11.299      864.648
10/11/2014  02:41:00      -28.615      -37.236       -1.841       18.731       12.261       14.050      350.863      150.326      197.411        0.145        0.035       46.961       11.964        0.065      338.563       11.299      864.648
10/11/2014  02:42:00      -12.710      -38.168        0.901       27.634       11.955       12.118      763.664      142.925      146.843        0.134        0.053       40.228        5.508        0.019      338.645       11.437      864.654
10/11/2014  02:43:00      -28.879      -16.542       -2.615       29.961       18.793       13.420      897.691      353.169      180.110        0.127        0.072       33.281       11.564        0.121      338.571       11.313      864.655
10/11/2014  02:44:00      -48.721      -26.940       -5.173       29.373       16.454       12.814      862.763      270.734      164.209        0.221        0.065       55.673       15.100        0.074      338.535       11.251      864.653
10/11/2014  02:45:00      -58.140      -31.877       -6.113       16.837       18.035       11.000      283.489      325.265      121.005        0.258        0.036       66.305        7.006        0.011      338.536       11.254      864.649
10/11/2014  02:46:00      -82.690      -21.576      -15.240        9.767       14.450        8.366       95.385      208.803       69.983        0.395        0.019       85.459        5.461        0.004      338.488       11.174      864.641
10/11/2014  02:47:00      -71.313       -3.160      -12.618        8.883       10.033        8.192       78.899      100.661       67.111        0.275        0.012       71.383        3.363        0.002      338.591       11.348      864.639
10/11/2014  02:48:00      -57.783      -22.384       -6.843        9.740       12.555       10.156       94.866      157.619      103.136        0.212        0.018       61.967        7.532        0.015      338.559       11.292      864.630
10/11/2014  02:49:00      -79.354      -34.264      -16.253       12.131        8.754        7.920      147.154       76.636       62.724        0.401        0.014       86.436        3.311        0.001      338.523       11.233      864.619
10/11/2014  02:50:00      -91.470      -39.520      -11.116       11.070       14.558       10.577      122.538      211.942      111.867        0.525        0.022       99.643        6.937        0.005      338.565       11.303      864.608
10/11/2014  02:51:00     -106.152      -39.208      -11.580       15.621       15.479       10.922      244.027      239.611      119.286        0.677        0.030      113.162        8.914        0.006      338.561       11.295      864.603
10/11/2014  02:52:00      -94.677      -33.081       -4.689       19.474       16.241       11.096      379.241      263.768      123.126        0.542        0.038      100.290       10.127        0.010      338.531       11.245      864.599
10/11/2014  02:53:00      -63.987      -25.752       -5.552       33.645       15.243       12.231     1132.019      232.345      149.588        0.315        0.076       68.974       15.941        0.053      338.587       11.340      864.597
10/11/2014  02:54:00      -71.694      -27.991      -12.938       11.531       11.821        9.739      132.968      139.747       94.853        0.323        0.018       76.964        5.490        0.005      338.599       11.360      864.606
10/11/2014  02:55:00      -39.216      -26.097        3.223       18.610       19.442        9.110      346.331      377.984       82.986        0.152        0.040       47.106        6.561        0.019      338.553       11.282      864.613
10/11/2014  02:56:00      -31.407      -29.792        5.499       27.152       22.112       17.330      737.219      488.950      300.343        0.172        0.076       43.289       16.589        0.147      338.530       11.244      864.627
10/11/2014  02:57:00      -51.620      -42.377       -7.967       27.454       26.712       13.004      753.697      713.520      169.106        0.308        0.082       66.787        9.807        0.022      338.488       11.173      864.628
10/11/2014  02:58:00      -50.498      -37.697       -2.079       22.688       16.389       10.899      514.753      268.597      118.783        0.244        0.045       63.017       10.378        0.027      338.438       11.089      864.627
10/11/2014  02:59:00      -56.817      -29.246       -1.626       15.161       17.259        8.389      229.868      297.881       70.373        0.234        0.030       63.902        4.702        0.005      338.499       11.192      864.620
10/11/2014  03:00:00      -53.067      -18.133       -3.821       11.837       12.850        8.415      140.112      165.112       70.815        0.177        0.019       56.079        6.141        0.012      338.520       11.227      864.611
10/11/2014  03:01:00      -67.360      -29.147       -5.094       13.091       14.432        6.852      171.378      208.276       46.945        0.292        0.021       73.395        5.803        0.006      338.520       11.226      864.614
10/11/2014  03:02:00      -95.782      -38.830       -7.482       14.557       13.768        7.847      211.905      189.566       61.577        0.560        0.023      103.354        2.499        0.001      338.474       11.150      864.613
10/11/2014  03:03:00      -84.674      -25.876       -4.841       25.344       15.734       11.869      642.301      247.556      140.876        0.445        0.052       88.539       14.101        0.025      338.442       11.097      864.598
10/11/2014  03:04:00      -50.695      -24.203        1.842       27.835       17.213       13.021      774.798      296.304      169.551        0.220        0.062       56.176       15.902        0.080      338.457       11.122      864.580
10/11/2014  03:05:00      -50.911      -19.368       -5.655       20.933       12.466       10.820      438.194      155.405      117.064        0.185        0.036       54.471       10.400        0.036      338.453       11.114      864.556
10/11/2014  03:06:00      -16.421      -30.703        1.025       19.419       15.723        9.964      377.090      247.220       99.278        0.097        0.036       34.819       10.377        0.089      338.455       11.116      864.543
10/11/2014  03:07:00      -31.450      -28.198        3.607       15.880       17.760       10.499      252.183      315.417      110.219        0.124        0.034       42.240        8.747        0.043      338.449       11.108      864.527
10/11/2014  03:08:00      -28.756      -13.577       -0.487        6.390        6.534        4.366       40.835       42.693       19.063        0.056        0.005       31.800        3.608        0.013      338.427       11.071      864.511
10/11/2014  03:09:00      -20.686       -3.566       -1.756        7.639        4.802        5.611       58.350       23.064       31.482        0.028        0.006       20.991        2.443        0.014      338.477       11.157      864.501
10/11/2014  03:10:00      -20.517      -13.330       -4.125        9.391        7.511        4.173       88.189       56.414       17.411        0.039        0.008       24.467        2.745        0.013      338.501       11.198      864.503
10/11/2014  03:11:00      -25.519        2.872       -3.836        9.153        6.065        5.550       83.780       36.780       30.805        0.041        0.008       25.680        0.909        0.001      338.475       11.150      864.520
10/11/2014  03:12:00      -23.277       11.496       -6.656        3.925        4.538        3.530       15.406       20.598       12.461        0.038        0.002       25.961        2.664        0.011      338.415       11.048      864.526
10/11/2014  03:13:00      -25.952       -5.561       -2.970       11.236       13.650        5.119      126.258      186.329       26.202        0.053        0.017       26.541        3.875        0.021      338.435       11.084      864.523
10/11/2014  03:14:00      -46.061      -11.976       -7.808        8.870       11.382        7.282       78.683      129.544       53.021        0.129        0.013       47.593        3.227        0.005      338.361       10.958      864.518
10/11/2014  03:15:00      -56.708       -9.304       -1.933       17.336       12.126        8.568      300.538      147.050       73.407        0.191        0.026       57.466        6.228        0.012      338.292       10.844      864.519
10/11/2014  03:16:00      -56.796      -32.547        1.143       19.524       17.435       14.122      381.172      303.970      199.425        0.259        0.044       65.460       11.448        0.031      338.237       10.752      864.523
10/11/2014  03:17:00      -40.371      -15.776       -5.361       27.712       19.087       17.653      767.969      364.298      311.635        0.168        0.072       43.344       15.792        0.133      338.138       10.584      864.530
10/11/2014  03:18:00      -42.877      -11.001      -13.654       20.426       18.162       10.585      417.237      329.862      112.045        0.150        0.043       44.265       10.493        0.056      338.064       10.461      864.540
10/11/2014  03:19:00      -29.113      -15.302       -0.347       18.209       13.979       11.336      331.567      195.418      128.501        0.087        0.033       32.889       10.938        0.111      338.045       10.429      864.549
10/11/2014  03:20:00      -39.063      -16.301      -12.030       16.852       13.070       10.840      283.988      170.833      117.496        0.125        0.029       42.328        8.866        0.044      338.041       10.422      864.560
10/11/2014  03:21:00       -7.744       -6.426        1.652       11.809        9.487        7.006      139.451       90.011       49.086        0.019        0.014       10.063        3.814        0.144      338.058       10.452      864.581
10/11/2014  03:22:00       -1.441      -14.723       -4.370        6.122        5.854        5.994       37.479       34.265       35.929        0.017        0.005       14.793        2.763        0.035      338.221       10.725      864.589
10/11/2014  03:23:00      -11.637      -12.869        1.797       21.787       15.628        9.850      474.683      244.244       97.030        0.056        0.041       17.350        9.536        0.302      338.223       10.728      864.600
10/11/2014  03:24:00      -39.706      -20.620       -6.288       19.365       12.359       13.679      375.016      152.754      187.115        0.138        0.036       44.741        9.063        0.041      338.008       10.368      864.604
10/11/2014  03:25:00      -39.343      -25.158      -13.497       15.802       16.696       11.863      249.694      278.769      140.737        0.152        0.033       46.699        9.028        0.037      338.065       10.463      864.605
10/11/2014  03:26:00      -36.457      -29.858       -5.954       20.760       15.073       14.007      430.972      227.203      196.210        0.156        0.043       47.123        6.278        0.018      338.086       10.499      864.604
10/11/2014  03:27:00      -71.212      -35.169      -14.631       15.570       15.470       11.358      242.421      239.323      129.012        0.357        0.031       79.423        3.387        0.002      337.989       10.336      864.591
10/11/2014  03:28:00      -90.728      -39.620       -8.451       14.460       16.868       13.086      209.101      284.538      171.242        0.527        0.033       99.002        4.863        0.002      337.945       10.262      864.573
10/11/2014  03:29:00      -62.469      -27.132      -11.887       17.381       16.796       10.752      302.105      282.117      115.613        0.274        0.035       68.106        8.080        0.014      337.942       10.258      864.549
10/11/2014  03:30:00      -19.077      -23.503        1.305       21.095       11.682       15.377      445.009      136.468      236.442        0.087        0.041       30.270       15.666        0.268      337.922       10.224      864.533
10/11/2014  03:31:00       -9.945      -18.504       -1.955        8.651       11.489        7.102       74.835      131.992       50.437        0.035        0.013       21.007        2.815        0.018      337.992       10.341      864.516
10/11/2014  03:32:00      -22.163       -5.440      -11.876        9.174       10.978        7.907       84.159      120.515       62.527        0.046        0.013       22.821        6.344        0.077      338.140       10.589      864.497
10/11/2014  03:33:00       -5.719        4.559       -9.654       18.205       12.503        9.966      331.436      156.316       99.328        0.037        0.029        7.314       12.127        2.750      338.447       11.104      864.484
10/11/2014  03:34:00      -15.038      -13.424        4.349       13.906       13.892        7.814      193.364      192.991       61.057        0.044        0.022       20.158        5.915        0.086      338.305       10.866      864.479
10/11/2014  03:35:00      -22.435      -22.324       -0.331       10.155       11.229        8.980      103.120      126.092       80.642        0.066        0.015       31.650        4.440        0.020      338.388       11.005      864.486
10/11/2014  03:36:00       -1.070      -14.249       -8.787       15.738       14.478       11.813      247.682      209.621      139.536        0.044        0.030       14.289        8.017        0.315      338.275       10.816      864.504
10/11/2014  03:37:00       -5.162      -15.728        3.351       14.135       11.299       10.876      199.785      127.659      118.298        0.037        0.022       16.554        7.706        0.217      338.281       10.826      864.529
10/11/2014  03:38:00      -10.577      -11.333        2.473        9.454        9.439        9.417       89.382       89.095       88.671        0.026        0.013       15.502        7.884        0.259      338.270       10.808      864.538
10/11/2014  03:39:00        4.532       -5.368        8.438       11.759       12.384        7.082      138.267      153.361       50.154        0.023        0.017        7.025        4.621        0.433      338.317       10.887      864.530
10/11/2014  03:40:00      -29.593        0.133       -1.525       23.470        8.083        8.575      550.850       65.336       73.522        0.078        0.034       29.593        6.232        0.044      338.393       11.015      864.525
10/11/2014  03:41:00      -39.405        6.256       -5.502       14.353       11.688        9.426      206.018      136.614       88.850        0.103        0.022       39.899        8.189        0.042      338.284       10.831      864.523
10/11/2014  03:42:00      -24.596        4.939        2.486       25.876       19.351       12.804      669.578      374.466      163.952        0.092        0.060       25.087       10.489        0.175      338.510       11.210      864.526
10/11/2014  03:43:00       -9.592        1.440      -11.192       15.165       24.142       12.551      229.972      582.826      157.540        0.059        0.049        9.700       10.877        1.257      338.530       11.244      864.542
10/11/2014  03:44:00      -23.867      -24.048        7.828       25.323       12.878       19.135      641.234      165.847      366.132        0.119        0.059       33.881        6.942        0.042      337.919       10.217      864.548
10/11/2014  03:45:00      -78.309      -72.286        1.429       29.404       27.958       21.456      864.601      781.645      460.350        0.673        0.105      106.572       18.405        0.030      338.067       10.467      864.538
10/11/2014  03:46:00      -70.097      -68.883       -4.362       19.639       21.810       16.258      385.673      475.658      264.312        0.540        0.056       98.278       12.679        0.017      338.215       10.715      864.531
10/11/2014  03:47:00      -66.937      -41.467        0.130       32.367       24.581       16.678     1047.624      604.211      278.166        0.406        0.097       78.740       12.817        0.026      338.128       10.568      864.525
10/11/2014  03:48:00     -123.856      -76.180       -2.475       37.844       43.072       24.726     1432.182     1855.225      611.368        1.252        0.195      145.409       22.750        0.024      338.006       10.364      864.527
10/11/2014  03:49:00     -115.337      -64.042       -7.202       26.106       30.684       17.277      681.525      941.484      298.508        0.969        0.096      131.924       17.632        0.018      338.029       10.403      864.522
10/11/2014  03:50:00      -98.078      -38.650       -1.114       23.008       20.483       14.515      529.391      419.574      210.684        0.614        0.058      105.419       13.995        0.018      338.025       10.396      864.519
10/11/2014  03:51:00      -67.945      -25.672        0.307       18.533       17.331       11.368      343.487      300.379      129.223        0.302        0.039       72.633        9.758        0.018      338.100       10.521      864.504
10/11/2014  03:52:00      -63.588      -32.716        7.166       29.683       24.489       15.549      881.082      599.710      241.778        0.344        0.086       71.511       16.615        0.054      338.031       10.405      864.479
10/11/2014  03:53:00      -48.685      -40.341        5.331       33.094       24.948       21.252     1095.210      622.390      451.659        0.310        0.108       63.227       18.023        0.081      338.067       10.467      864.470
10/11/2014  03:54:00      -81.487      -43.760       -0.104       29.018       18.611       14.991      842.017      346.359      224.726        0.498        0.071       92.493       14.176        0.023      338.113       10.543      864.454
10/11/2014  03:55:00      -94.607      -22.579       -5.963       17.724       21.115       10.221      314.136      445.864      104.463        0.518        0.043       97.264        8.504        0.008      338.135       10.581      864.455
10/11/2014  03:56:00     -106.885      -14.407      -12.138       39.512       20.432       14.286     1561.172      417.472      204.086        0.698        0.109      107.852       19.236        0.032      337.983       10.327      864.455
10/11/2014  03:57:00     -129.137      -30.829       -4.703       35.957       28.570       18.930     1292.887      816.260      358.331        1.006        0.123      132.766       20.535        0.024      337.793       10.007      864.483
10/11/2014  03:58:00      -93.336      -11.911        1.685       47.448       22.421       19.200     2251.328      502.689      368.628        0.599        0.156       94.093       23.739        0.064      337.755        9.943      864.501
10/11/2014  03:59:00      -97.979       -1.354       -3.439       35.383       25.390       18.397     1251.975      644.672      338.434        0.592        0.112       97.989       18.662        0.036      337.765        9.959      864.499
10/11/2014  04:00:00      -49.659      -30.246        0.560       21.749       19.976       13.968      473.002      399.036      195.103        0.222        0.053       58.145       12.512        0.046      337.710        9.868      864.495
10/11/2014  04:01:00      -61.080      -38.133       -2.753       20.884       23.879       14.610      436.134      570.201      213.452        0.321        0.061       72.006       10.630        0.022      337.709        9.866      864.479
10/11/2014  04:02:00      -49.649      -44.292        1.007       45.549       34.055       24.293     2074.755     1159.752      590.149        0.413        0.191       66.534       25.767        0.150      337.712        9.872      864.477
10/11/2014  04:03:00      -46.027      -35.923        5.088       42.042       38.171       25.795     1767.495     1456.999      665.402        0.366        0.194       58.386       26.277        0.203      337.598        9.680      864.464
10/11/2014  04:04:00      -86.820      -18.446       -5.840       34.813       38.291       18.722     1211.946     1466.224      350.518        0.547        0.151       88.758       13.985        0.025      337.655        9.776      864.459
10/11/2014  04:05:00      -86.204       19.734      -12.010       38.047       37.076       25.134     1447.547     1374.621      631.721        0.571        0.173       88.434       18.170        0.042      337.733        9.906      864.455
10/11/2014  04:06:00     -109.474       29.880      -10.940       58.467       37.730       33.441     3418.382     1423.576     1118.310        0.948        0.298      113.478       29.007        0.065      337.905       10.195      864.451
10/11/2014  04:07:00     -156.266       45.392      -15.931       62.562       40.105       23.142     3913.963     1608.406      535.533        1.639        0.303      162.725       12.755        0.006      337.941       10.254      864.463
10/11/2014  04:08:00     -113.491       23.164       -4.519       60.718       39.687       26.024     3686.686     1575.067      677.273        0.969        0.297      115.830       21.930        0.036      337.862       10.122      864.464
10/11/2014  04:09:00     -118.141       14.220       -5.641       34.286       38.694       23.673     1175.524     1497.217      560.420        0.871        0.162      118.994       15.462        0.017      337.926       10.231      864.465
10/11/2014  04:10:00     -120.567        3.393       -8.656       36.636       37.367       21.085     1342.205     1396.275      444.588        0.890        0.159      120.614       11.318        0.009      337.888       10.166      864.467
10/11/2014  04:11:00     -123.029       -7.375      -12.678       37.848       36.548       22.413     1432.462     1335.722      502.324        0.931        0.164      123.250       17.425        0.020      337.870       10.135      864.477
10/11/2014  04:12:00     -132.874       20.951      -14.609       39.108       39.517       24.820     1529.421     1561.619      616.022        1.101        0.185      134.516       14.866        0.012      337.873       10.141      864.478
10/11/2014  04:13:00      -80.448       -1.497       -1.187       59.693       40.335       20.861     3563.313     1626.886      435.168        0.605        0.281       80.462       21.493        0.071      337.866       10.131      864.485
10/11/2014  04:14:00      -29.697       -3.681       -5.063       22.782       27.974       14.626      519.014      782.537      213.912        0.122        0.076       29.925       10.840        0.131      337.846       10.096      864.493
10/11/2014  04:15:00       -4.680      -20.925      -11.248       21.064       11.345       13.588      443.679      128.713      184.621        0.067        0.038       21.442       11.472        0.286      337.895       10.177      864.493
10/11/2014  04:16:00      -10.148        0.680       -2.804       13.524        7.135        8.739      182.887       50.914       76.364        0.021        0.016       10.171        9.669        0.904      338.000       10.354      864.490
10/11/2014  04:17:00      -42.359       -3.298      -17.902       13.861       11.913        9.070      192.135      141.912       82.268        0.127        0.021       42.487        6.122        0.021      338.445       11.102      864.488
10/11/2014  04:18:00      -45.321      -26.797       -7.167       13.161       10.420        9.541      173.215      108.570       91.029        0.160        0.019       52.650        3.680        0.005      338.148       10.602      864.478
10/11/2014  04:19:00      -33.139      -18.123       -9.481       11.390        9.033        7.589      129.730       81.587       57.598        0.089        0.013       37.771        5.617        0.022      337.983       10.325      864.474
10/11/2014  04:20:00      -25.522      -17.816       -0.287        9.860        9.228        9.326       97.219       85.161       86.982        0.062        0.013       31.125        6.307        0.041      338.122       10.560      864.468
10/11/2014  04:21:00      -49.448      -30.356       -5.694       10.680       10.007        9.021      114.064      100.145       81.372        0.185        0.015       58.022        3.311        0.003      338.059       10.454      864.471
10/11/2014  04:22:00      -57.882      -27.488       -9.893       10.119       11.065        8.521      102.389      122.437       72.610        0.225        0.015       64.078        3.813        0.004      338.018       10.384      864.464
10/11/2014  04:23:00      -59.811      -26.642      -12.843       10.173       12.431        7.861      103.480      154.525       61.798        0.239        0.016       65.476        1.985        0.001      338.037       10.416      864.472
10/11/2014  04:24:00      -73.073      -12.836       -9.474       11.720       10.368        9.787      137.352      107.496       95.791        0.297        0.017       74.192        5.426        0.005      337.784        9.992      864.489
10/11/2014  04:25:00      -62.034      -21.150      -12.698       18.148       11.746       12.727      329.347      137.975      161.971        0.254        0.031       65.541        8.973        0.019      337.755        9.944      864.506
10/11/2014  04:26:00      -81.743      -13.002      -17.224        7.450        6.563        7.277       55.500       43.073       52.950        0.365        0.008       82.770        4.758        0.003      337.897       10.180      864.523
10/11/2014  04:27:00      -87.747      -20.481      -18.933       12.156       10.240        9.112      147.771      104.860       83.029        0.441        0.017       90.105        5.871        0.004      337.937       10.250      864.553
10/11/2014  04:28:00     -124.697      -49.198      -16.283       13.445       11.436       11.044      180.764      130.786      121.976        0.933        0.022      134.051        5.669        0.002      337.733        9.907      864.572
10/11/2014  04:29:00     -126.834      -57.549      -16.716       17.085       13.942       11.226      291.887      194.380      126.027        1.015        0.031      139.280       10.458        0.006      337.806       10.029      864.567
10/11/2014  04:30:00      -99.892      -55.874       -5.593       17.485       11.864       14.948      305.708      140.754      223.434        0.690        0.033      114.457       12.022        0.011      337.892       10.174      864.555
10/11/2014  04:31:00      -85.695      -57.801       -5.549       30.242       19.318       18.406      914.569      373.195      338.772        0.617        0.081      103.366       16.967        0.027      337.913       10.209      864.542
10/11/2014  04:32:00      -71.997      -64.286       -6.805       27.931       21.149       22.258      780.120      447.297      495.431        0.554        0.086       96.521       13.877        0.021      337.958       10.284      864.542
10/11/2014  04:33:00      -74.540      -15.734        5.030       32.613       20.730       12.627     1063.586      429.725      159.439        0.374        0.083       76.182        3.224        0.002      337.887       10.165      864.535
10/11/2014  04:34:00     -103.286      -41.481      -10.086       14.420       17.686       11.941      207.945      312.786      142.595        0.658        0.033      111.304        5.279        0.002      337.812       10.038      864.541
10/11/2014  04:35:00     -111.153      -37.146       -7.650       27.883       27.892       19.517      777.483      777.981      380.910        0.786        0.097      117.196       12.267        0.011      337.743        9.922      864.560
10/11/2014  04:36:00     -150.077      -64.659       -4.877       30.585       24.047       19.198      935.456      578.280      368.560        1.430        0.094      163.413       16.799        0.011      337.721        9.888      864.594
10/11/2014  04:37:00      -86.464      -49.010        5.091       44.249       24.232       22.432     1957.950      587.199      503.183        0.648        0.152       99.388       23.112        0.054      337.673        9.804      864.619
10/11/2014  04:38:00      -99.930      -56.266        4.824       48.388       28.922       22.310     2341.371      836.455      497.752        0.842        0.184      114.682       25.097        0.048      337.740        9.918      864.623
10/11/2014  04:39:00     -124.383      -40.108        2.157       34.350       27.352       19.722     1179.904      748.125      388.956        0.970        0.116      130.689       18.283        0.020      337.716        9.879      864.628
10/11/2014  04:40:00      -89.818      -24.326        2.818       42.684       29.768       21.326     1821.957      886.125      454.814        0.591        0.158       93.053       20.176        0.047      337.647        9.763      864.650
10/11/2014  04:41:00     -149.217      -37.071       -4.715       28.233       25.259       18.054      797.093      638.032      325.932        1.271        0.088      153.753        5.702        0.001      337.671        9.802      864.684
10/11/2014  04:42:00     -127.343      -35.374       -0.401       35.743       26.481       18.430     1277.556      701.230      339.680        0.989        0.116      132.165       18.882        0.020      337.623        9.723      864.713
10/11/2014  04:43:00     -113.287      -26.440        2.085       35.375       30.796       21.203     1251.370      948.418      449.577        0.809        0.132      116.331       19.681        0.029      337.625        9.725      864.737
10/11/2014  04:44:00     -105.586      -16.247       -1.912       36.783       24.025       17.782     1353.020      577.206      316.216        0.683        0.112      106.829       18.566        0.030      337.634        9.739      864.749
10/11/2014  04:45:00     -143.646      -22.360       -8.481       24.862       19.749       16.914      618.106      390.035      286.087        1.125        0.065      145.376       14.437        0.010      337.771        9.971      864.759
10/11/2014  04:46:00     -125.545      -33.692       -2.795       27.126       22.490       15.274      735.831      505.817      233.294        0.919        0.074      129.987       13.541        0.011      337.823       10.057      864.762
10/11/2014  04:47:00     -110.656      -43.260       -0.206       24.485       22.114       16.523      599.514      489.022      272.999        0.774        0.068      118.811       12.841        0.012      337.806       10.029      864.763
10/11/2014  04:48:00     -105.915      -53.513       -1.158       22.170       23.063       14.433      491.504      531.887      208.317        0.766        0.062      118.666       10.247        0.007      337.886       10.163      864.758
10/11/2014  04:49:00      -80.745      -55.446       -7.227       26.033       16.664       15.643      677.736      277.684      244.690        0.542        0.060       97.949        5.648        0.003      337.933       10.242      864.738
10/11/2014  04:50:00      -34.691      -36.521        6.220       35.999       24.780       16.585     1295.910      614.026      275.056        0.238        0.109       50.371       17.006        0.114      337.930       10.237      864.710
10/11/2014  04:51:00      -18.721      -44.054       15.862       24.818       26.901       19.457      615.933      723.640      378.587        0.213        0.086       47.867       18.288        0.146      337.918       10.218      864.695
10/11/2014  04:52:00      -62.175      -57.125       -4.882       28.213       24.867       15.226      796.001      618.374      231.834        0.440        0.082       84.433       12.277        0.021      338.009       10.369      864.671
10/11/2014  04:53:00      -64.696      -27.480        0.968       19.668       20.948       15.127      386.823      438.819      228.828        0.300        0.053       70.290        9.818        0.020      337.880       10.152      864.641
10/11/2014  04:54:00      -64.888      -20.348       -7.592       18.786       15.693        8.835      352.932      246.277       78.057        0.268        0.034       68.003        8.162        0.014      337.767        9.963      864.621
10/11/2014  04:55:00      -71.056      -13.873       -8.084       11.677       11.117        8.004      136.341      123.583       64.064        0.282        0.016       72.397        3.523        0.002      337.777        9.980      864.615
10/11/2014  04:56:00      -95.927      -20.892      -10.246       11.148       11.660        7.298      124.287      135.954       53.265        0.503        0.016       98.176        2.927        0.001      337.737        9.913      864.618
10/11/2014  04:57:00     -103.742      -26.357       -7.807       12.679       16.582        9.392      160.752      274.948       88.204        0.602        0.026      107.038        5.261        0.002      337.722        9.886      864.623
10/11/2014  04:58:00      -97.709      -24.310       -3.768       16.242       21.058       13.557      263.793      443.442      183.805        0.552        0.045      100.687        8.697        0.007      337.691        9.837      864.619
10/11/2014  04:59:00      -84.203      -44.744       -4.406       23.897       15.147       12.710      571.067      229.447      161.533        0.504        0.048       95.353        5.416        0.003      337.689        9.831      864.617
10/11/2014  05:00:00      -81.605      -38.215       -2.278       19.388       19.817       13.325      375.911      392.706      177.559        0.454        0.047       90.110        8.125        0.008      337.801       10.020      864.604
10/11/2014  05:01:00      -88.220      -36.770       -6.156       23.193       15.874       12.627      537.893      251.989      159.446        0.506        0.047       95.576        9.474        0.010      337.808       10.033      864.590
10/11/2014  05:02:00      -76.603      -57.182       -6.892       20.655       29.492       14.944      426.644      869.768      223.319        0.535        0.076       95.592       11.360        0.014      337.860       10.120      864.586
10/11/2014  05:03:00      -85.442      -54.273       -3.906       13.807       19.307       13.118      190.645      372.749      172.080        0.550        0.037      101.222        9.639        0.009      337.780        9.986      864.580
10/11/2014  05:04:00      -81.117      -32.719       -2.910       26.953       17.871       15.072      726.490      319.367      227.176        0.447        0.064       87.467       12.179        0.019      337.781        9.986      864.579
10/11/2014  05:05:00      -78.617      -18.343       -1.078       21.287       19.768       13.091      453.121      390.779      171.376        0.377        0.051       80.728        8.942        0.012      337.799       10.018      864.581
10/11/2014  05:06:00      -85.058      -18.548      -10.948       15.192       13.944       10.526      230.782      194.437      110.804        0.412        0.027       87.057        6.442        0.005      337.870       10.136      864.594
10/11/2014  05:07:00      -92.569      -18.851       -9.216       25.438       18.047       12.295      647.103      325.692      151.167        0.507        0.056       94.469        9.996        0.011      337.816       10.045      864.611
10/11/2014  05:08:00      -97.468      -16.068       -9.502       24.148       18.681       15.712      583.106      348.972      246.862        0.551        0.059       98.783       13.656        0.019      337.707        9.863      864.617
10/11/2014  05:09:00      -78.168       -7.831        0.922       35.209       27.361       21.121     1239.640      748.651      446.102        0.430        0.122       78.559       17.236        0.048      337.676        9.809      864.616
10/11/2014  05:10:00      -47.568       -9.895        5.032       30.724       18.802       14.394      943.973      353.499      207.184        0.195        0.075       48.586       13.210        0.074      337.656        9.778      864.618
10/11/2014  05:11:00      -19.237      -15.242       12.500       23.223       31.080       18.064      539.307      965.938      326.305        0.129        0.092       24.543       13.949        0.323      337.636        9.744      864.626
10/11/2014  05:12:00      -48.605      -12.772       -0.216       28.676       16.729       11.538      822.289      279.861      133.117        0.188        0.062       50.255       11.014        0.048      337.580        9.650      864.630
10/11/2014  05:13:00      -58.142       -1.533       -7.135       23.226       12.523        8.613      539.434      156.814       74.183        0.210        0.039       58.162        7.630        0.017      337.566        9.626      864.627
10/11/2014  05:14:00      -60.663        0.399       -8.364       17.878       14.220        8.730      319.632      202.195       76.216        0.217        0.030       60.665        6.698        0.012      337.560        9.616      864.627
10/11/2014  05:15:00      -54.640      -18.700       -7.198       12.751       17.490        9.510      162.578      305.894       90.449        0.197        0.028       57.752        2.162        0.001      337.661        9.784      864.624
10/11/2014  05:16:00      -86.981      -21.693      -10.780       24.897       23.903       10.129      619.868      571.370      102.605        0.472        0.065       89.645       10.601        0.014      337.675        9.809      864.630
10/11/2014  05:17:00      -80.534        3.072       -9.244       25.539       12.270       12.898      652.255      150.545      166.352        0.377        0.048       80.592       12.098        0.023      337.595        9.675      864.644
10/11/2014  05:18:00      -50.646      -16.525       -8.802       14.393       15.408        9.541      207.166      237.411       91.038        0.173        0.027       53.274        5.637        0.011      337.650        9.765      864.658
10/11/2014  05:19:00     -104.338      -65.484      -15.449       40.984       26.040       12.848     1679.701      678.057      165.061        0.897        0.126      123.186        9.155        0.006      337.600        9.683      864.668
10/11/2014  05:20:00     -116.714      -66.972       -6.019       26.999       17.950       17.858      728.932      322.196      318.900        0.976        0.069      134.564       16.386        0.015      337.427        9.393      864.681
10/11/2014  05:21:00      -45.435      -32.118       -0.770       36.207       23.227       16.650     1310.965      539.489      277.213        0.261        0.106       55.641       15.796        0.081      337.503        9.521      864.686
10/11/2014  05:22:00      -79.321      -38.985       -9.229       12.697       13.614       10.797      161.202      185.333      116.583        0.418        0.023       88.383        6.323        0.005      337.581        9.651      864.684
10/11/2014  05:23:00      -68.902      -36.896       -7.860       12.258       11.218        8.495      150.263      125.844       72.161        0.326        0.017       78.159        5.789        0.005      337.632        9.738      864.691
10/11/2014  05:24:00      -56.243      -44.655       -0.281       25.742       15.113       14.075      662.639      228.407      198.102        0.312        0.054       71.814       13.715        0.036      337.634        9.739      864.687
10/11/2014  05:25:00      -69.579      -34.103        0.151       20.387       14.894       13.917      415.630      221.833      193.679        0.342        0.042       77.487       11.766        0.023      337.600        9.683      864.685
10/11/2014  05:26:00      -53.108      -28.945       -0.672       30.992       11.942       10.204      960.507      142.607      104.120        0.243        0.060       60.484        9.915        0.027      337.559        9.614      864.684
10/11/2014  05:27:00      -14.985      -21.207        2.363       16.949        9.662       11.027      287.253       93.347      121.604        0.059        0.025       25.967        8.245        0.101      337.662        9.786      864.689
10/11/2014  05:28:00      -73.971      -66.786       -6.289       36.810       34.208       19.803     1354.980     1170.201      392.141        0.644        0.146       99.660       22.971        0.053      337.663        9.789      864.699
10/11/2014  05:29:00      -97.812      -48.277      -11.196       29.301       30.926       22.697      858.565      956.423      515.176        0.718        0.117      109.078       16.074        0.022      337.719        9.883      864.711
10/11/2014  05:30:00      -50.376      -45.486        7.011       37.904       37.991       23.439     1436.728     1443.326      549.377        0.404        0.171       67.872       19.505        0.083      337.650        9.769      864.724
10/11/2014  05:31:00      -76.001      -70.177       -2.648       36.672       34.082       22.135     1344.818     1161.611      489.948        0.685        0.150      103.445       20.594        0.040      337.668        9.796      864.742
10/11/2014  05:32:00     -102.309      -67.881       -6.806       27.711       33.766       22.904      767.893     1140.110      524.573        0.878        0.122      122.780       20.594        0.028      337.602        9.687      864.758
10/11/2014  05:33:00      -99.376      -45.026        2.067       30.352       28.694       17.584      921.270      823.329      309.191        0.698        0.103      109.101       16.884        0.024      337.680        9.816      864.774
10/11/2014  05:34:00      -70.147      -41.867        3.034       46.299       29.266       21.117     2143.619      856.492      445.914        0.506        0.172       81.691       14.169        0.030      337.646        9.761      864.797
10/11/2014  05:35:00      -62.522      -45.484       -0.165       46.269       28.711       21.456     2140.813      824.348      460.363        0.470        0.171       77.316       24.890        0.104      337.655        9.777      864.810
10/11/2014  05:36:00      -73.954      -54.129        0.782       50.328       31.113       21.427     2532.882      968.025      459.127        0.618        0.198       91.647       26.223        0.082      337.629        9.731      864.825
10/11/2014  05:37:00      -93.291      -65.496        1.616       44.825       31.462       24.295     2009.296      989.844      590.234        0.829        0.179      113.987       18.565        0.027      337.680        9.818      864.847
10/11/2014  05:38:00     -111.854      -66.732       -1.146       30.400       21.916       17.985      924.186      480.289      323.456        0.935        0.086      130.248       14.075        0.012      337.728        9.900      864.854
10/11/2014  05:39:00      -84.256      -56.977        2.723       40.701       23.080       20.393     1656.533      532.671      415.867        0.648        0.130      101.712       20.630        0.041      337.688        9.829      864.860
10/11/2014  05:40:00      -79.464      -72.188        1.109       33.751       24.800       14.675     1139.153      615.040      215.354        0.675        0.098      107.357       11.959        0.012      337.759        9.949      864.859
10/11/2014  05:41:00      -65.585      -49.598        2.139       22.640       22.547       19.064      512.575      508.365      363.450        0.407        0.069       82.228       13.243        0.026      337.753        9.940      864.856
10/11/2014  05:42:00      -46.191      -44.283        1.577       27.137       22.079       16.539      736.407      487.477      273.526        0.280        0.075       63.989        9.979        0.024      337.771        9.970      864.861
10/11/2014  05:43:00      -53.186      -76.036       -1.208       24.282       40.661       17.940      589.618     1653.356      321.827        0.559        0.128       92.791       14.845        0.026      337.784        9.991      864.869
10/11/2014  05:44:00      -57.719      -50.412       -5.790       27.152       31.347       16.190      737.209      982.646      262.105        0.394        0.099       76.634        8.453        0.012      337.807       10.032      864.874
10/11/2014  05:45:00      -96.647      -89.020       -0.646       23.413       29.200       15.693      548.174      852.660      246.282        0.946        0.082      131.397       13.094        0.010      337.778        9.984      864.886
10/11/2014  05:46:00      -62.887      -58.270       -0.112       33.180       28.602       21.335     1100.922      818.101      455.170        0.486        0.119       85.733       18.191        0.045      337.792       10.005      864.896
10/11/2014  05:47:00      -54.056      -45.196        0.141       34.951       29.289       21.562     1221.599      857.871      464.932        0.375        0.127       70.461       13.000        0.034      337.738        9.914      864.899
10/11/2014  05:48:00      -46.763      -75.954        2.166       43.335       35.538       23.943     1877.950     1262.927      573.274        0.584        0.186       89.195       24.017        0.073      337.785        9.993      864.900
10/11/2014  05:49:00      -28.623      -47.996        6.630       25.673       23.810       15.754      659.117      566.924      248.200        0.232        0.074       55.883       11.619        0.043      337.784        9.993      864.882
10/11/2014  05:50:00      -15.951      -44.619       -1.036       23.321       22.617       12.209      543.854      511.509      149.061        0.173        0.060       47.384       12.307        0.067      337.753        9.939      864.849
10/11/2014  05:51:00      -35.651      -88.531       -8.520       31.428       28.951       15.048      987.703      838.138      226.430        0.562        0.103       95.440        6.839        0.005      337.904       10.193      864.809
10/11/2014  05:52:00      -35.431      -66.849        2.488       39.057       38.123       23.333     1525.483     1453.382      544.425        0.463        0.176       75.658       19.245        0.065      337.800       10.018      864.776
10/11/2014  05:53:00      -71.880     -116.778       -3.078       53.268       48.167       31.796     2837.442     2320.084     1010.971        1.249        0.308      137.127       28.868        0.044      337.804       10.025      864.761
10/11/2014  05:54:00      -81.803     -114.312       -0.503       46.888       41.753       25.628     2198.505     1743.332      656.801        1.218        0.230      140.566       24.225        0.030      337.795       10.010      864.741
10/11/2014  05:55:00      -95.957     -110.080       -2.071       36.582       43.867       27.421     1338.254     1924.326      751.930        1.267        0.201      146.032       23.314        0.025      337.816       10.045      864.714
10/11/2014  05:56:00      -73.289      -84.847        2.962       33.422       36.165       19.907     1117.010     1307.902      396.298        0.770        0.141      112.117       18.931        0.029      337.848       10.099      864.710
10/11/2014  05:57:00      -37.976      -31.202        3.252       45.529       22.133       13.857     2072.870      489.854      192.022        0.259        0.138       49.150       12.513        0.065      337.845       10.094      864.700
10/11/2014  05:58:00      -43.337      -40.904       -6.552       27.556       22.419       13.436      759.355      502.619      180.529        0.252        0.072       59.592       10.395        0.030      337.822       10.057      864.709
10/11/2014  05:59:00      -40.871      -23.112        1.286       27.176       24.512       13.280      738.520      600.830      176.361        0.186        0.076       46.953        9.060        0.037      337.769        9.968      864.716
10/11/2014  06:00:00      -52.903      -18.608        3.308       24.315       22.981       14.050      591.238      528.120      197.403        0.224        0.066       56.080        7.542        0.018      337.737        9.913      864.720
10/11/2014  06:01:00      -13.941      -14.800        6.070       17.511       17.767       12.700      306.639      315.657      161.298        0.062        0.039       20.332       10.757        0.280      337.640        9.749      864.715
10/11/2014  06:02:00      -31.652       -6.008        0.583       19.718       16.175       12.139      388.782      261.646      147.350        0.092        0.040       32.218       10.932        0.115      337.521        9.550      864.728
10/11/2014  06:03:00      -80.312       -5.300       -7.901       20.109       16.271        9.202      404.378      264.740       84.683        0.365        0.038       80.487        5.494        0.005      337.457        9.443      864.736
10/11/2014  06:04:00      -94.027       -3.010       -6.103       19.508       21.577       11.987      380.548      465.569      143.688        0.494        0.049       94.075       10.694        0.013      337.332        9.234      864.756
10/11/2014  06:05:00      -73.596      -13.911       -7.482       23.506       20.758       12.183      552.514      430.886      148.414        0.340        0.057       74.900       11.044        0.022      337.257        9.111      864.781
10/11/2014  06:06:00      -95.853      -45.667      -11.063       22.129       14.852       10.774      489.671      220.587      116.079        0.611        0.041      106.176        9.404        0.008      337.186        8.991      864.817
10/11/2014  06:07:00      -69.462      -30.120       -1.087       22.646       24.471       18.077      512.837      598.853      326.771        0.359        0.072       75.711       13.839        0.033      337.139        8.911      864.846
10/11/2014  06:08:00      -84.945      -29.520       -4.080       25.886       26.057       20.787      670.099      678.961      432.079        0.494        0.089       89.928       19.304        0.046      337.200        9.014      864.862
10/11/2014  06:09:00      -93.244      -35.786       -6.304       28.144       23.629       21.860      792.085      558.315      477.851        0.592        0.091       99.876       19.777        0.039      337.198        9.011      864.872
10/11/2014  06:10:00      -76.932      -42.733       -2.483       25.592       21.338       18.921      654.968      455.290      357.993        0.461        0.073       88.003       11.951        0.018      337.118        8.875      864.882
10/11/2014  06:11:00      -73.237      -10.644        1.763       29.204       28.109       19.365      852.867      790.119      375.015        0.375        0.101       74.006       19.280        0.068      337.041        8.748      864.896
10/11/2014  06:12:00      -60.754      -14.862       -2.115       42.232       28.135       15.097     1783.547      791.565      227.908        0.336        0.140       62.545       18.694        0.089      337.070        8.796      864.910
10/11/2014  06:13:00      -93.544      -34.790       -2.149       40.775       28.097       24.111     1662.569      789.427      581.351        0.650        0.152       99.804       23.885        0.057      337.065        8.786      864.931
10/11/2014  06:14:00      -81.370      -18.296       -0.621       29.718       22.132       16.618      883.158      489.834      276.171        0.430        0.082       83.402       12.127        0.021      337.076        8.805      864.943
10/11/2014  06:15:00     -100.808      -22.171      -11.891       29.894       25.810       14.920      893.634      666.136      222.605        0.629        0.089      103.218       13.511        0.017      337.050        8.762      864.959
10/11/2014  06:16:00     -115.954      -35.831       -7.004       16.042       27.725       14.699      257.346      768.684      216.055        0.801        0.062      121.364        8.878        0.005      337.027        8.724      864.973
10/11/2014  06:17:00     -106.983      -30.818      -17.996       19.224       19.102       11.663      369.554      364.885      136.026        0.679        0.044      111.333        4.171        0.001      337.026        8.721      864.981
10/11/2014  06:18:00      -52.683      -41.015       -1.092       19.571       17.504       15.595      383.036      306.400      243.211        0.270        0.047       66.766       11.110        0.028      337.176        8.975      864.982
10/11/2014  06:19:00      -67.400       -6.670       -4.320       20.874       16.401       14.434      435.738      269.003      208.334        0.276        0.046       67.729       12.648        0.035      337.057        8.774      864.994
10/11/2014  06:20:00      -79.274      -18.185       -6.817       16.839       13.554       14.139      283.552      183.720      199.907        0.366        0.033       81.333       11.334        0.019      337.085        8.822      865.015
10/11/2014  06:21:00      -77.511      -14.216       -6.381       14.309       15.706        9.729      204.752      246.688       94.663        0.340        0.027       78.804        3.937        0.002      337.097        8.840      865.041
10/11/2014  06:22:00      -92.197       -7.591       -8.701       14.415       12.505       12.849      207.795      156.376      165.085        0.458        0.026       92.509        8.953        0.009      337.054        8.767      865.062
10/11/2014  06:23:00      -71.528      -16.387       -2.340       21.793       16.877       10.465      474.949      284.847      109.516        0.313        0.043       73.381       10.725        0.021      337.138        8.909      865.090
10/11/2014  06:24:00      -79.389      -37.132       -0.885       19.433       14.905       10.079      377.650      222.146      101.596        0.419        0.035       87.643        7.716        0.008      337.226        9.057      865.109
10/11/2014  06:25:00      -91.392      -20.537      -10.061       20.866       17.139       14.414      435.400      293.734      207.750        0.491        0.047       93.671       12.278        0.017      337.186        8.991      865.135
10/11/2014  06:26:00      -85.924      -12.147       -4.116       34.638       20.694       18.518     1199.816      428.231      342.932        0.476        0.099       86.779       16.650        0.037      337.102        8.849      865.144
10/11/2014  06:27:00     -103.524       -6.969       -4.004       39.894       22.922       18.347     1591.527      525.435      336.604        0.662        0.123      103.758       18.555        0.032      337.040        8.745      865.157
10/11/2014  06:28:00     -117.590       -6.346       -3.879       34.936       20.940       18.442     1220.548      438.468      340.120        0.794        0.100      117.761       19.298        0.027      336.922        8.548      865.164
10/11/2014  06:29:00      -99.228        0.564       -4.047       30.216       20.494       18.829      912.999      420.020      354.546        0.577        0.084       99.229       17.051        0.030      336.850        8.429      865.165
10/11/2014  06:30:00      -72.262      -13.096       -5.625       22.921       16.052       14.240      525.349      257.668      202.777        0.321        0.049       73.439       14.001        0.036      336.944        8.584      865.162
10/11/2014  06:31:00      -72.195       -9.878       -7.769       20.236       13.378        8.561      409.513      178.965       73.285        0.302        0.033       72.868        3.576        0.002      337.039        8.742      865.163
10/11/2014  06:32:00      -93.844       -9.761      -13.948       21.373       15.989       13.566      456.808      255.656      184.045        0.500        0.045       94.350        8.618        0.008      337.010        8.694      865.165
10/11/2014  06:33:00     -100.823      -14.893      -12.731       17.682       13.860       10.369      312.669      192.090      107.521        0.558        0.031      101.917       10.396        0.010      336.990        8.662      865.183
10/11/2014  06:34:00     -106.628      -29.502       -6.725       31.372       19.595       13.838      984.224      383.956      191.480        0.692        0.078      110.634       14.767        0.018      336.998        8.676      865.193
10/11/2014  06:35:00      -82.972      -28.979        0.502       34.947       21.720       20.125     1221.286      471.744      405.028        0.491        0.105       87.887       17.036        0.038      336.939        8.577      865.203
10/11/2014  06:36:00      -43.586      -28.126       -5.642       23.845       15.959       13.483      568.587      254.698      181.794        0.186        0.050       51.873       12.015        0.054      337.032        8.731      865.202
10/11/2014  06:37:00      -48.056      -32.310       -7.070       22.778        9.358       10.987      518.849       87.575      120.715        0.207        0.036       57.908        8.629        0.022      337.102        8.849      865.191
10/11/2014  06:38:00      -76.975      -37.500       -7.830       13.330       13.931        8.981      177.688      194.078       80.658        0.392        0.023       85.623        7.682        0.008      337.183        8.987      865.180
10/11/2014  06:39:00      -68.863      -33.451      -10.004       12.228       10.599       11.107      149.525      112.333      123.374        0.317        0.019       76.558        5.753        0.006      337.240        9.082      865.179
10/11/2014  06:40:00      -91.617      -33.188      -10.079       22.332       12.587        7.811      498.732      158.445       61.017        0.516        0.036       97.443        4.957        0.003      337.171        8.965      865.181
10/11/2014  06:41:00      -99.532      -36.175       -9.284       11.871       12.147        9.853      140.910      147.540       97.090        0.584        0.019      105.902        7.323        0.005      337.185        8.988      865.175
10/11/2014  06:42:00      -89.753      -31.722       -3.628       14.757       12.297        7.744      217.770      151.224       59.966        0.475        0.021       95.194        4.263        0.002      337.223        9.054      865.171
10/11/2014  06:43:00      -76.725      -42.609       -5.303       26.340       15.873       14.566      693.774      251.966      212.165        0.444        0.058       87.762       14.679        0.028      337.234        9.072      865.166
10/11/2014  06:44:00      -75.250      -46.033       -2.644       18.970       15.156        9.206      359.849      229.707       84.746        0.423        0.034       88.214        7.814        0.008      337.261        9.116      865.153
10/11/2014  06:45:00      -86.045      -46.369       -7.300       16.580       11.089       11.009      274.893      122.974      121.194        0.506        0.026       97.744        6.141        0.004      337.219        9.048      865.139
10/11/2014  06:46:00      -85.003      -43.432       -4.652       16.297       18.499       11.561      265.593      342.196      133.652        0.494        0.037       95.456        7.994        0.007      337.146        8.924      865.124
10/11/2014  06:47:00      -86.323      -40.714       -6.384       14.873        9.704       10.560      221.199       94.169      111.522        0.479        0.021       95.442        3.968        0.002      337.115        8.871      865.101
10/11/2014  06:48:00      -66.180      -32.481       -2.710       27.778       19.804       12.413      771.627      392.213      154.085        0.338        0.066       73.721       10.399        0.020      337.136        8.907      865.082
10/11/2014  06:49:00      -62.070      -55.784       -0.358       30.653       24.805       16.309      939.583      615.305      265.997        0.439        0.091       83.454       13.201        0.025      337.098        8.841      865.069
10/11/2014  06:50:00      -54.096      -50.441       -1.375       31.742       24.201       19.284     1007.554      585.673      371.863        0.372        0.098       73.964       18.594        0.063      337.133        8.902      865.051
10/11/2014  06:51:00      -26.247      -35.994        3.197       30.037       19.242       19.242      902.216      370.240      370.257        0.182        0.082       44.547       16.104        0.131      337.151        8.931      865.044
10/11/2014  06:52:00      -80.021      -33.401       -3.991       22.047       15.133       12.431      486.075      229.018      154.532        0.420        0.043       86.712       10.554        0.015      337.134        8.904      865.037
10/11/2014  06:53:00      -77.194      -32.945       -0.056       18.113       16.345       13.194      328.084      267.175      174.071        0.391        0.038       83.931       10.073        0.014      337.066        8.788      865.032
10/11/2014  06:54:00      -59.587      -29.781       -5.585       11.540       12.569       11.102      133.162      157.980      123.246        0.244        0.021       66.615        4.625        0.005      337.146        8.923      865.022
10/11/2014  06:55:00      -51.413      -16.162       -2.618       11.848       12.246        9.230      140.384      149.961       85.194        0.164        0.019       53.893        5.414        0.010      337.158        8.945      865.022
10/11/2014  06:56:00      -69.741       -5.540       -6.569       12.340        9.622        6.452      152.275       92.578       41.625        0.261        0.014       69.961        2.192        0.001      337.198        9.012      865.026
10/11/2014  06:57:00      -75.053       -8.193       -8.718       14.590       13.101        8.968      212.854      171.629       80.428        0.312        0.023       75.499        5.674        0.006      337.157        8.941      865.040
10/11/2014  06:58:00      -60.525      -16.860       -8.530       14.113       10.120        8.321      199.185      102.415       69.235        0.220        0.019       62.829        7.466        0.014      337.082        8.815      865.054
10/11/2014  06:59:00      -60.560        6.047       -9.192       11.152        9.035        7.191      124.358       81.632       51.710        0.202        0.013       60.861        5.840        0.009      337.062        8.782      865.079
10/11/2014  07:00:00      -48.843       -1.846      -12.642       14.945       10.553        7.861      223.349      111.361       61.802        0.147        0.020       48.877        5.698        0.014      337.087        8.824      865.108
10/11/2014  07:01:00      -62.342      -17.699       -7.667       13.647       13.722       12.318      186.234      188.300      151.742        0.239        0.026       64.806        9.918        0.023      337.046        8.757      865.141
10/11/2014  07:02:00      -25.148       -9.995        1.071       27.766       33.060       20.066      770.943     1092.957      402.636        0.150        0.113       27.061       15.522        0.329      336.933        8.567      865.165
10/11/2014  07:03:00      -15.049       -5.087       -2.498       27.197       25.741       14.362      739.689      662.591      206.264        0.093        0.080       15.885        3.993        0.063      337.084        8.818      865.178
10/11/2014  07:04:00      -24.837      -17.911       -7.790       26.187       23.842       14.435      685.736      568.464      208.365        0.123        0.073       30.622        8.581        0.079      337.196        9.006      865.189
10/11/2014  07:05:00      -64.659      -28.496       -1.269       23.921       21.792       14.329      572.195      474.896      205.334        0.312        0.063       70.660       10.623        0.023      337.161        8.948      865.196
10/11/2014  07:06:00      -49.300      -16.256       -7.586       22.132       16.823       15.679      489.843      283.027      245.820        0.189        0.051       51.911       12.085        0.054      337.099        8.844      865.200
10/11/2014  07:07:00      -25.456      -24.735       -8.974       22.923       14.388       12.984      525.475      207.009      168.592        0.112        0.045       35.494       10.754        0.092      337.080        8.812      865.201
10/11/2014  07:08:00       -9.986      -18.245       -2.174       14.766       11.454       11.441      218.035      131.189      130.903        0.046        0.024       20.799        5.691        0.075      337.090        8.827      865.211
10/11/2014  07:09:00      -29.219      -25.145       -6.488       15.016       12.099       11.907      225.493      146.396      141.784        0.102        0.026       38.549        8.102        0.044      337.103        8.849      865.234
10/11/2014  07:10:00      -10.349      -22.232       -4.658       11.278        6.585        6.446      127.201       43.357       41.555        0.042        0.011       24.523        3.414        0.019      337.173        8.970      865.266
10/11/2014  07:11:00       -5.609      -16.452        1.725       10.922       14.166       10.521      119.296      200.669      110.682        0.037        0.022       17.382        7.672        0.195      337.171        8.967      865.305
10/11/2014  07:12:00      -57.827      -32.066       -2.752       23.647       10.908       12.169      559.199      118.985      148.073        0.260        0.041       66.123       12.738        0.037      337.145        8.921      865.331
10/11/2014  07:13:00      -77.325      -24.326      -15.272       14.080       12.668        9.731      198.253      160.491       94.695        0.363        0.023       81.061        5.126        0.004      337.133        8.901      865.351
10/11/2014  07:14:00      -83.641      -47.299      -12.192        9.039       14.788        8.017       81.697      218.691       64.278        0.487        0.018       96.088        8.265        0.007      337.129        8.896      865.356
10/11/2014  07:15:00      -85.780      -54.506       -9.284       15.878       13.626        7.115      252.113      185.659       50.620        0.545        0.024      101.632        4.151        0.002      337.147        8.923      865.352
10/11/2014  07:16:00      -71.468      -46.266        4.644       32.551       21.513       18.212     1059.573      462.794      331.664        0.456        0.093       85.136       15.275        0.032      337.190        8.998      865.340
10/11/2014  07:17:00      -59.611      -41.703        2.199       33.047       24.056       16.933     1092.125      578.669      286.738        0.363        0.098       72.751       16.979        0.054      337.200        9.014      865.316
10/11/2014  07:18:00      -62.338      -57.683        3.205       23.848       19.881       15.544      568.734      395.246      241.616        0.421        0.060       84.932       11.876        0.020      337.309        9.197      865.300
10/11/2014  07:19:00      -58.290      -57.704       -0.873       28.975       17.436       14.418      839.525      304.017      207.870        0.404        0.068       82.022       14.611        0.032      337.414        9.371      865.288
10/11/2014  07:20:00      -57.827      -37.994       -5.681       29.883       11.856       10.330      893.020      140.573      106.710        0.298        0.057       69.192        7.721        0.012      337.418        9.378      865.291
10/11/2014  07:21:00      -47.652      -35.497        1.522       26.753       19.705       12.246      715.725      388.271      149.965        0.239        0.063       59.420        7.630        0.016      337.493        9.504      865.303
10/11/2014  07:22:00      -40.855      -15.014        2.569       19.808       11.483       14.711      392.354      131.849      216.425        0.132        0.037       43.526       10.564        0.059      337.503        9.520      865.311
10/11/2014  07:23:00      -46.560      -32.528       -2.731       19.218       18.469       12.751      369.337      341.113      162.589        0.205        0.044       56.797        9.054        0.025      337.443        9.419      865.316
10/11/2014  07:24:00      -56.719      -35.086        5.733       25.686       18.371       13.290      659.793      337.494      176.621        0.283        0.059       66.694       12.675        0.036      337.454        9.439      865.322
10/11/2014  07:25:00      -52.628      -31.624        5.298       24.685       18.781       15.615      609.366      352.721      243.844        0.250        0.060       61.398       15.345        0.062      337.390        9.330      865.323
10/11/2014  07:26:00      -80.335      -34.563       -3.067       14.043       10.304        9.691      197.218      106.178       93.909        0.403        0.020       87.455        8.528        0.010      337.419        9.379      865.315
10/11/2014  07:27:00      -55.538      -26.589       -2.154       16.721       15.625       10.206      279.602      244.149      104.154        0.221        0.031       61.575        8.878        0.021      337.415        9.373      865.310
10/11/2014  07:28:00      -76.656      -13.967      -10.446       13.619       11.903       11.104      185.489      141.678      123.291        0.332        0.023       77.918        6.551        0.007      337.329        9.228      865.312
10/11/2014  07:29:00      -73.115      -34.627       -8.271       12.365       13.719        8.756      152.902      188.206       76.662        0.352        0.021       80.900        4.714        0.003      337.376        9.306      865.318
10/11/2014  07:30:00      -71.651      -39.497        0.063       15.766       18.116       10.909      248.569      328.178      119.003        0.369        0.035       81.816        7.948        0.009      337.354        9.272      865.318
10/11/2014  07:31:00      -78.871      -41.922       -4.013       20.292       19.389       16.696      411.776      375.947      278.755        0.453        0.053       89.320       12.631        0.020      337.345        9.257      865.313
10/11/2014  07:32:00      -69.956      -46.070       -1.038       25.306       16.443       12.285      640.412      270.382      150.914        0.404        0.053       83.763        8.712        0.011      337.479        9.481      865.296
10/11/2014  07:33:00      -69.609      -40.478        1.365       33.038       18.032       15.822     1091.482      325.156      250.344        0.408        0.083       80.523       17.291        0.046      337.443        9.422      865.284
10/11/2014  07:34:00      -44.699      -32.465       -0.178       24.155       17.246       10.588      583.444      297.424      112.101        0.202        0.050       55.244        4.478        0.007      337.440        9.415      865.283
10/11/2014  07:35:00      -38.916      -27.125        2.419       23.313       20.240       14.021      543.481      409.653      196.590        0.170        0.057       47.437        8.747        0.034      337.526        9.557      865.290
10/11/2014  07:36:00      -48.114      -39.621       -7.604       24.694       20.675       10.212      609.805      427.465      104.285        0.254        0.057       62.328        8.193        0.017      337.500        9.515      865.308
10/11/2014  07:37:00      -65.332      -33.143       -4.604       13.383       17.685        9.800      179.112      312.775       96.044        0.299        0.029       73.258        6.206        0.007      337.469        9.464      865.320
10/11/2014  07:38:00      -64.405       -9.520        0.821       20.230       15.664       16.172      409.262      245.363      261.536        0.258        0.046       65.105       14.589        0.050      337.449        9.430      865.333
10/11/2014  07:39:00      -52.088      -13.416       -7.035       11.774       18.814        9.840      138.638      353.966       96.826        0.177        0.029       53.788        8.483        0.025      337.451        9.431      865.359
10/11/2014  07:40:00      -56.226       -4.042       -5.534       12.093       10.566        9.035      146.251      111.643       81.630        0.177        0.017       56.372        7.465        0.018      337.417        9.375      865.381
10/11/2014  07:41:00      -63.525       -6.348      -10.624        8.055        7.942        6.651       64.882       63.073       44.237        0.218        0.009       63.841        1.829        0.001      337.482        9.486      865.393
10/11/2014  07:42:00      -39.823       -2.265       -2.406       22.739       17.453       10.113      517.073      304.619      102.277        0.126        0.046       39.888       11.178        0.079      337.416        9.376      865.404
10/11/2014  07:43:00      -27.462       13.160       -4.255       11.193        9.448        8.233      125.280       89.263       67.778        0.061        0.014       30.452        6.775        0.050      337.401        9.350      865.419
10/11/2014  07:44:00      -36.790      -11.268       -3.166        8.802       12.831        5.025       77.470      164.641       25.249        0.088        0.013       38.477        1.586        0.002      337.522        9.553      865.423
10/11/2014  07:45:00      -20.462      -15.947        5.100       18.511       10.520       10.768      342.663      110.672      115.940        0.063        0.028       25.942       11.439        0.194      337.533        9.571      865.439
10/11/2014  07:46:00      -26.058       -7.563       -3.953        9.702        8.604        7.534       94.126       74.025       56.756        0.049        0.011       27.133        3.672        0.018      337.542        9.584      865.451
10/11/2014  07:47:00       -7.742       -1.273       -0.753       10.967        4.632        4.091      120.280       21.452       16.733        0.011        0.008        7.846        4.134        0.278      337.531        9.569      865.432
10/11/2014  07:48:00        6.075        6.927       -1.024        6.553        4.946        8.521       42.942       24.466       72.602        0.011        0.007        9.213        5.933        0.415      337.559        9.613      865.432
10/11/2014  07:49:00       14.439       27.099       -4.356       12.170       11.548        6.183      148.116      133.365       38.228        0.064        0.016       30.706        5.148        0.028      337.597        9.677      865.440
10/11/2014  07:50:00       18.748       36.289       -2.144       13.060       11.993        9.141      170.556      143.821       83.565        0.104        0.020       40.846        7.260        0.032      337.651        9.771      865.442
10/11/2014  07:51:00       18.587       15.354       -2.330       18.643       14.667        9.357      347.574      215.123       87.546        0.062        0.033       24.108        6.607        0.075      337.650        9.766      865.459
10/11/2014  07:52:00       11.579       24.736       -4.881       11.201       15.540        7.579      125.469      241.498       57.439        0.060        0.021       27.312        6.940        0.065      337.663        9.792      865.477
10/11/2014  07:53:00       16.717       47.693       -5.730        9.799       13.287        8.214       96.011      176.537       67.474        0.146        0.017       50.537        6.717        0.018      337.711        9.868      865.484
10/11/2014  07:54:00       17.738       77.470       -7.694        9.572       14.567        7.140       91.624      212.212       50.976        0.337        0.018       79.474        5.537        0.005      337.736        9.914      865.490
10/11/2014  07:55:00       20.347       58.869       -4.336       14.236       25.167       12.740      202.656      633.384      162.316        0.245        0.050       62.286       13.754        0.049      337.713        9.873      865.496
10/11/2014  07:56:00       38.183       41.365       -4.191       22.321       23.244       16.293      498.245      540.290      265.454        0.225        0.065       56.294       12.571        0.050      337.646        9.760      865.502
10/11/2014  07:57:00       47.258       28.603        8.569       10.763        8.858        9.565      115.850       78.473       91.486        0.171        0.014       55.240        6.236        0.013      337.679        9.815      865.483
10/11/2014  07:58:00       56.757       20.260        5.385       19.269       15.166       15.030      371.278      230.001      225.903        0.224        0.041       60.265        9.899        0.027      337.700        9.851      865.485
10/11/2014  07:59:00       44.823        9.409        4.481       22.323       12.605       13.646      498.323      158.874      186.219        0.148        0.042       45.800        9.670        0.045      337.724        9.891      865.487
10/11/2014  08:00:00       52.895       22.044       14.834       17.188       18.071       20.421      295.430      326.546      417.031        0.227        0.052       57.304       14.174        0.061      337.778        9.981      865.478
10/11/2014  08:01:00       31.564       27.947       29.868       29.489       17.232       20.626      869.598      296.946      425.444        0.213        0.080       42.159       17.990        0.182      337.774        9.975      865.474
10/11/2014  08:02:00       -5.059        9.312       36.191       10.981       18.462       12.809      120.589      340.834      164.068        0.102        0.031       10.598       12.632        1.421      337.858       10.115      865.488
10/11/2014  08:03:00       11.285       11.214       24.903       12.911       14.796       13.441      166.704      218.910      180.669        0.072        0.028       15.909        5.934        0.139      337.866       10.129      865.507
10/11/2014  08:04:00       18.680       20.999       29.574       13.678       13.883       10.915      187.083      192.736      119.133        0.108        0.025       28.105        6.629        0.056      337.901       10.189      865.507
10/11/2014  08:05:00       17.826       40.661       41.820       18.979       19.236       12.020      360.216      370.013      144.475        0.230        0.044       44.397        8.224        0.034      337.930       10.238      865.486
10/11/2014  08:06:00       12.706        6.710       25.428       16.655       26.246       17.665      277.374      688.869      312.054        0.107        0.064       14.369       18.933        1.736      337.884       10.159      865.468
10/11/2014  08:07:00       16.749      -51.653       -0.614       22.670       19.006       15.654      513.948      361.236      245.049        0.203        0.056       54.300       12.537        0.053      337.905       10.195      865.468
10/11/2014  08:08:00       -1.587      -25.075       -5.272       16.363       17.998       17.796      267.755      323.910      316.694        0.078        0.045       25.125       14.191        0.319      337.964       10.294      865.473
10/11/2014  08:09:00      -26.679        8.707       11.312       14.459        9.178        9.813      209.068       84.242       96.292        0.065        0.019       28.064        8.915        0.101      337.853       10.106      865.480
10/11/2014  08:10:00        4.219        4.848       -2.878       10.444       13.166       17.891      109.082      173.338      320.084        0.033        0.030        6.427        9.860        2.354      337.900       10.186      865.470
10/11/2014  08:11:00       10.429        8.645        5.384       15.277       14.860       16.399      233.399      220.814      268.923        0.047        0.036       13.546        9.153        0.457      338.042       10.426      865.468
10/11/2014  08:12:00       15.984        5.053       26.433       18.282       25.753       19.181      334.220      663.217      367.908        0.117        0.068       16.764       14.616        0.760      338.026       10.399      865.459
10/11/2014  08:13:00       -2.179       -1.557       28.378       13.846       27.892       14.107      191.723      777.950      199.010        0.099        0.058        2.679        8.902       11.044      338.181       10.657      865.443
10/11/2014  08:14:00       -8.095        0.030       21.261       14.170       11.182       12.553      200.798      125.036      157.567        0.050        0.024        8.095       11.562        2.040      338.215       10.716      865.425
10/11/2014  08:15:00      -12.750       -4.254       11.540        8.697        8.532        9.005       75.642       72.803       81.084        0.027        0.011       13.441        5.332        0.157      338.261       10.792      865.410
10/11/2014  08:16:00        6.348       -6.382       21.022       13.048       16.753       14.957      170.263      280.655      223.720        0.060        0.034        9.002       10.429        1.342      338.345       10.932      865.410
10/11/2014  08:17:00       12.079      -12.249       20.299       13.331       23.167       17.294      177.724      536.716      299.077        0.086        0.051       17.203       14.205        0.682      338.391       11.010      865.401
10/11/2014  08:18:00        0.981       14.045       26.501       12.945       14.539       11.830      167.580      211.386      139.944        0.071        0.026       14.079        5.113        0.132      338.534       11.251      865.398
10/11/2014  08:19:00        2.906       20.165       31.709       15.714       20.146       13.349      246.941      405.858      178.183        0.113        0.042       20.374        6.756        0.110      338.580       11.327      865.407
10/11/2014  08:20:00       -7.266        3.603       25.797       17.633       16.958       11.930      310.909      287.590      142.317        0.074        0.037        8.110        9.694        1.429      338.686       11.506      865.411
10/11/2014  08:21:00      -12.581       -1.291       23.434       12.227       21.377       16.909      149.511      456.956      285.905        0.080        0.045       12.647       13.315        1.108      338.597       11.357      865.425
10/11/2014  08:22:00       19.380      -10.413       17.529       33.856       27.202       21.545     1146.195      739.948      464.173        0.157        0.118       22.001       17.912        0.663      338.644       11.435      865.413
10/11/2014  08:23:00       17.481      -32.846       20.059       27.168       28.689       24.339      738.100      823.064      592.404        0.197        0.108       37.208       13.722        0.136      338.594       11.351      865.415
10/11/2014  08:24:00       21.060       25.335       38.073       30.554       31.268       14.521      933.571      977.673      210.851        0.233        0.106       32.946       11.191        0.115      338.641       11.430      865.418
10/11/2014  08:25:00       -6.006       19.227       23.572       16.477       20.188       20.206      271.485      407.543      408.298        0.102        0.054       20.143        7.592        0.142      338.742       11.600      865.427
10/11/2014  08:26:00       -4.696       13.161       34.504       17.440       24.442       13.611      304.148      597.427      185.263        0.124        0.054       13.974       10.312        0.545      338.954       11.956      865.419
10/11/2014  08:27:00       31.896      -73.917        0.582       24.170       34.397       24.309      584.167     1183.151      590.918        0.442        0.118       80.505       16.290        0.041      338.515       11.220      865.402
10/11/2014  08:28:00       30.017      -49.986        1.111       28.985       31.781       20.581      840.131     1010.031      423.570        0.284        0.114       58.306       17.087        0.086      338.543       11.266      865.385
10/11/2014  08:29:00        6.869       -6.543       22.541       11.485       24.168       13.536      131.898      584.098      183.221        0.075        0.045        9.487       11.222        1.399      338.944       11.939      865.378
10/11/2014  08:30:00        3.354      -11.887       20.881       15.884       28.400       16.387      252.302      806.576      268.537        0.096        0.066       12.351       11.608        0.883      338.799       11.697      865.384
10/11/2014  08:31:00       28.996       33.171       31.849       29.963       32.372       16.611      897.762     1047.960      275.918        0.259        0.111       44.058       13.913        0.100      338.731       11.583      865.396
10/11/2014  08:32:00       19.971       24.822        0.035       20.275       20.714       28.757      411.065      429.088      826.973        0.134        0.083       31.859        9.202        0.083      338.748       11.611      865.427
10/11/2014  08:33:00       17.927       27.162        3.021       21.126       14.245       14.497      446.294      202.928      210.164        0.096        0.043       32.544       10.534        0.105      338.858       11.796      865.476
10/11/2014  08:34:00        7.998       32.900        5.393       17.176       19.643       17.344      295.016      385.859      300.808        0.108        0.049       33.858       15.387        0.207      338.968       11.981      865.515
10/11/2014  08:35:00       22.588       29.157        7.532       17.969       23.815       20.849      322.883      567.170      434.688        0.137        0.066       36.883       18.469        0.251      338.900       11.864      865.541
10/11/2014  08:36:00       31.853       42.387       -3.832       24.088       22.410       13.455      580.253      502.191      181.040        0.204        0.063       53.021       11.024        0.043      338.816       11.724      865.550
10/11/2014  08:37:00       -4.345       54.133        7.881       16.796       19.259       20.027      282.115      370.907      401.084        0.203        0.053       54.307       11.979        0.049      338.902       11.870      865.557
10/11/2014  08:38:00       18.196       18.723       20.108       24.724       38.465       15.046      611.293     1479.569      226.376        0.170        0.116       26.109       16.879        0.418      338.899       11.865      865.554
10/11/2014  08:39:00       -2.187       13.545        5.389       21.840       33.239       15.587      476.999     1104.864      242.967        0.102        0.091       13.721       14.566        1.127      338.778       11.660      865.548
10/11/2014  08:40:00       27.616       32.517        8.082       21.918       18.162       14.646      480.388      329.859      214.515        0.145        0.051       42.661       13.657        0.102      338.836       11.758      865.561
10/11/2014  08:41:00        7.690       13.595       11.831       15.203       17.488       16.027      231.122      305.819      256.858        0.059        0.040       15.620       12.222        0.612      339.039       12.098      865.575
10/11/2014  08:42:00       -0.746       55.700       -0.514       19.269       25.590       19.851      371.295      654.828      394.050        0.226        0.071       55.705       17.767        0.102      338.896       11.859      865.594
10/11/2014  08:43:00       15.702       21.590        7.797       16.649       19.116       16.015      277.190      365.407      256.495        0.084        0.045       26.696       14.901        0.312      339.125       12.245      865.608
10/11/2014  08:44:00       27.421       24.210       -1.645       23.289       21.387       22.128      542.363      457.423      489.658        0.141        0.074       36.579       11.102        0.092      338.919       11.898      865.624
10/11/2014  08:45:00       17.651       27.832       18.545       25.927       18.484       21.007      672.230      341.662      441.281        0.144        0.073       32.957        7.878        0.057      338.929       11.914      865.633
10/11/2014  08:46:00       14.244       13.715       30.322       17.102       19.195       14.232      292.490      368.466      202.557        0.109        0.043       19.774        7.022        0.126      339.019       12.067      865.635
10/11/2014  08:47:00       59.750       35.298        0.598       20.170       18.195       21.850      406.821      331.041      477.440        0.302        0.061       69.397        9.452        0.019      338.769       11.646      865.626
10/11/2014  08:48:00       48.173       54.057        5.924       20.774       12.642       17.498      431.568      159.821      306.188        0.309        0.045       72.408        6.647        0.008      338.802       11.701      865.615
10/11/2014  08:49:00       66.760       55.146       24.535       25.291       17.117       21.024      639.645      292.982      442.010        0.474        0.069       86.590       15.061        0.030      338.800       11.698      865.598
10/11/2014  08:50:00       57.460       51.666       12.841       22.841       22.153       23.634      521.700      490.753      558.583        0.385        0.079       77.272       18.166        0.055      338.824       11.738      865.591
10/11/2014  08:51:00       76.206       45.671        4.799       18.861       22.415       17.898      355.739      502.411      320.349        0.455        0.059       88.844        7.364        0.007      338.757       11.625      865.589
10/11/2014  08:52:00       68.391       44.142       -0.978       13.179       10.939       12.803      173.675      119.662      163.917        0.354        0.023       81.399        5.576        0.005      338.740       11.596      865.584
10/11/2014  08:53:00       70.986       46.390       -2.463       10.225       11.640       11.627      104.554      135.496      135.187        0.379        0.019       84.800        7.237        0.007      338.695       11.520      865.579
10/11/2014  08:54:00       43.456       24.505        0.551       25.184       19.329       20.982      634.218      373.592      440.242        0.197        0.072       49.889       18.906        0.144      338.871       11.817      865.564
10/11/2014  08:55:00       50.708       50.172       17.867       21.001       16.526       23.035      441.056      273.093      530.610        0.333        0.062       71.334       16.015        0.050      338.882       11.834      865.563
10/11/2014  08:56:00       59.688       46.787       14.566       17.515       16.153       17.764      306.768      260.931      315.554        0.342        0.044       75.840        8.567        0.013      338.897       11.861      865.547
10/11/2014  08:57:00       59.242       47.764        5.393       25.085       18.691       21.430      629.247      349.339      459.252        0.363        0.072       76.099        9.851        0.017      338.932       11.919      865.546
10/11/2014  08:58:00       71.801       39.720       -0.864       25.427       17.310       17.538      646.520      299.633      307.572        0.399        0.063       82.055       13.355        0.026      338.925       11.908      865.556
10/11/2014  08:59:00       47.640       43.876       -4.249       27.382       24.192       15.833      749.788      585.249      250.693        0.290        0.079       64.766       11.740        0.033      339.080       12.168      865.573
10/11/2014  09:00:00       61.200       41.663       20.253       25.941       23.954       23.658      672.940      573.795      559.725        0.385        0.090       74.035       20.118        0.074      339.089       12.183      865.580
10/11/2014  09:01:00       58.551       50.110       -4.007       22.776       26.175       24.677      518.751      685.147      608.961        0.388        0.091       77.067       20.565        0.071      339.084       12.176      865.593
10/11/2014  09:02:00       45.203       53.093       21.003       24.333       23.010       23.005      592.074      529.478      529.246        0.348        0.083       69.729       12.254        0.031      339.232       12.424      865.591
10/11/2014  09:03:00        6.008       14.067       28.001       22.433       22.407       15.243      503.235      502.074      232.345        0.113        0.062       15.296        9.487        0.385      339.713       13.236      865.600
10/11/2014  09:04:00       65.826       45.874       11.033       26.638       22.196       20.355      709.593      492.670      414.346        0.409        0.081       80.234       11.990        0.022      339.308       12.552      865.610
10/11/2014  09:05:00       37.619       35.962       17.887       29.604       26.104       23.202      876.424      681.401      538.346        0.256        0.105       52.043       21.340        0.168      339.438       12.771      865.619
10/11/2014  09:06:00       43.476       39.663        9.565       19.343       20.940       24.408      374.147      438.465      595.761        0.248        0.070       58.850       16.402        0.078      339.328       12.586      865.627
10/11/2014  09:07:00       62.585       45.053        3.003       15.272       15.257       13.393      233.248      232.781      179.379        0.330        0.032       77.114        3.803        0.002      339.235       12.431      865.642
10/11/2014  09:08:00       25.118       22.635       -8.952       17.458       20.326       18.363      304.784      413.155      337.207        0.114        0.053       33.812        9.361        0.077      339.203       12.376      865.644
10/11/2014  09:09:00       11.242       37.440       50.310       24.143       20.230        9.636      582.906      409.256       92.859        0.257        0.054       39.091        8.626        0.049      339.570       12.994      865.658
10/11/2014  09:10:00        4.658        7.228       10.249       20.182       14.969       22.235      407.317      224.058      494.401        0.065        0.056        8.599       13.227        2.366      339.511       12.894      865.665
10/11/2014  09:11:00        8.220       20.872       38.676       23.433       23.558       15.353      549.111      554.978      235.704        0.167        0.067       22.432        8.614        0.147      339.813       13.405      865.664
10/11/2014  09:12:00       49.942       11.324       19.803       40.351       29.213       28.192     1628.173      853.377      794.787        0.314        0.164       51.210       17.391        0.115      339.640       13.112      865.658
10/11/2014  09:13:00       72.086       40.275        2.653       39.645       33.863       26.705     1571.764     1146.711      713.138        0.513        0.172       82.574       19.821        0.058      339.414       12.730      865.646
10/11/2014  09:14:00       68.586       55.035       11.343       44.884       31.148       22.362     2014.585      970.203      500.075        0.567        0.174       87.937       10.101        0.013      339.427       12.754      865.631
10/11/2014  09:15:00       67.985       39.595       -2.643       21.290       21.267       18.264      453.278      452.277      333.570        0.372        0.062       78.675       13.954        0.031      339.334       12.594      865.623
10/11/2014  09:16:00       48.526       40.657        5.369       21.719       18.170       18.125      471.708      330.157      328.519        0.258        0.057       63.307        8.521        0.018      339.561       12.978      865.593
10/11/2014  09:17:00       73.791       45.563        9.480       35.225       33.072       25.618     1240.781     1093.752      656.282        0.530        0.150       86.724       10.913        0.016      339.459       12.806      865.574
10/11/2014  09:18:00       89.758       63.830       -2.935       17.504       17.231       19.808      306.373      296.904      392.368        0.657        0.050      110.140        5.193        0.002      339.242       12.438      865.562
10/11/2014  09:19:00       82.690       41.464        7.404       37.804       27.980       21.794     1429.110      782.856      474.998        0.565        0.134       92.504       17.505        0.036      339.382       12.677      865.553
10/11/2014  09:20:00       23.226       40.634       10.189       38.849       32.956       26.746     1509.214     1086.088      715.330        0.280        0.166       46.804       21.370        0.208      339.622       13.081      865.552
10/11/2014  09:21:00       20.314       50.134        2.957       24.660       34.264       27.986      608.137     1173.988      783.206        0.275        0.128       54.094       23.578        0.190      339.710       13.230      865.556
10/11/2014  09:22:00       71.537       37.065        2.871       20.502       20.692       23.903      420.348      428.147      571.344        0.396        0.071       80.569       13.508        0.028      339.472       12.829      865.564
10/11/2014  09:23:00       45.387       13.565        2.649       22.829       18.182       16.990      521.144      330.585      288.651        0.170        0.057       47.370       11.615        0.060      339.511       12.894      865.558
10/11/2014  09:24:00       42.345       32.476        1.929       23.303       23.364       26.039      543.035      545.871      678.023        0.231        0.088       53.365       14.650        0.075      339.715       13.240      865.559
10/11/2014  09:25:00       17.862       58.292      -11.661       19.879       24.705       17.027      395.179      610.334      289.919        0.257        0.065       60.968        8.587        0.020      339.682       13.185      865.558
10/11/2014  09:26:00       22.899       59.596       -5.757       22.517       24.070       19.375      507.023      579.362      375.407        0.279        0.073       63.844       13.617        0.045      339.729       13.261      865.560
10/11/2014  09:27:00       13.684       17.553       20.475       28.219       26.181       21.449      796.311      685.449      460.058        0.143        0.097       22.257       11.444        0.264      340.077       13.850      865.557
10/11/2014  09:28:00       15.807       29.714       -0.931       21.927       27.067       16.430      480.776      732.602      269.947        0.131        0.074       33.657       14.736        0.192      339.828       13.430      865.568
10/11/2014  09:29:00       20.486       30.998        3.711       18.197       20.055       14.707      331.145      402.187      216.287        0.117        0.047       37.156       10.718        0.083      339.815       13.406      865.572
10/11/2014  09:30:00      -55.990       25.528        3.918       33.298       17.928       21.516     1108.737      321.417      462.927        0.285        0.095       61.535       25.877        0.177      339.832       13.435      865.583
10/11/2014  09:31:00      -29.125       51.894        0.960       33.143       36.207       18.163     1098.440     1310.958      329.894        0.314        0.137       59.509       18.453        0.096      339.915       13.576      865.597
10/11/2014  09:32:00      -49.019       38.367        1.815       50.822       28.124       26.149     2582.889      790.966      683.746        0.397        0.203       62.248       27.965        0.202      339.829       13.432      865.603
10/11/2014  09:33:00      -72.987       23.978      -15.992       10.471       14.513        8.217      109.646      210.638       67.519        0.327        0.019       76.824        5.488        0.005      339.600       13.045      865.609
10/11/2014  09:34:00      -73.379        6.741      -14.365        9.600       15.779       10.310       92.155      248.967      106.289        0.304        0.022       73.688        7.565        0.011      339.617       13.074      865.610
10/11/2014  09:35:00      -57.757       11.749       -5.421       13.979       15.056       11.647      195.417      226.690      135.647        0.203        0.028       58.940        5.312        0.008      339.661       13.149      865.600
10/11/2014  09:36:00      -66.287       39.138      -20.794       18.995       25.074       13.614      360.803      628.713      185.328        0.377        0.059       76.978        9.169        0.014      339.732       13.267      865.589
10/11/2014  09:37:00      -15.538        4.073       -0.528       14.285       13.669       12.953      204.061      186.832      167.780        0.041        0.028       16.063        9.360        0.340      340.085       13.863      865.592
10/11/2014  09:38:00      -29.448       11.886        2.489       18.844       14.869       11.835      355.083      221.098      140.071        0.087        0.036       31.756        7.989        0.063      340.055       13.812      865.594
10/11/2014  09:39:00      -24.905        6.815        3.783       14.553       12.221       18.408      211.779      149.359      338.837        0.069        0.035       25.821       12.335        0.228      340.139       13.955      865.602
10/11/2014  09:40:00      -40.088       15.888        4.518       16.146       14.047       12.504      260.704      197.330      156.346        0.125        0.031       43.122        9.334        0.047      339.978       13.683      865.631
10/11/2014  09:41:00      -33.311        4.340        2.602       15.224       14.126       15.492      231.762      199.554      239.994        0.090        0.034       33.593        9.460        0.079      340.129       13.937      865.666
10/11/2014  09:42:00      -51.587      -47.106       -5.445       14.080       24.607       13.473      198.233      605.517      181.512        0.295        0.049       69.858       12.244        0.031      339.998       13.717      865.678
10/11/2014  09:43:00      -27.342      -35.464       -0.906       13.349       18.544       13.629      178.205      343.863      185.745        0.136        0.035       44.781        8.360        0.035      340.059       13.820      865.687
10/11/2014  09:44:00      -28.187      -18.986        3.686       11.515       13.141        7.663      132.592      172.688       58.718        0.077        0.018       33.985        6.196        0.033      340.107       13.897      865.690
10/11/2014  09:45:00      -33.225       -3.998       -1.558       14.586       12.728       11.496      212.760      161.993      132.155        0.081        0.025       33.464        7.994        0.057      340.223       14.094      865.687
10/11/2014  09:46:00      -33.375       12.680       18.648       21.391       22.420       19.715      457.575      502.649      388.690        0.149        0.067       35.703       16.734        0.220      340.550       14.648      865.695
10/11/2014  09:47:00        7.709       33.343       11.982       18.688       26.294       21.330      349.223      691.384      454.960        0.140        0.075       34.223       14.967        0.191      340.669       14.849      865.697
10/11/2014  09:48:00       -3.146        1.623       18.027       20.554       19.527       17.098      422.487      381.318      292.354        0.072        0.055        3.540        9.349        6.973      340.914       15.263      865.694
10/11/2014  09:49:00        8.992       37.509       39.970       26.892       21.986       21.087      723.189      483.369      444.642        0.237        0.083       38.572       12.569        0.106      340.496       14.556      865.695
10/11/2014  09:50:00       53.180       56.101       36.611       21.643       18.867       25.002      468.415      355.980      625.105        0.438        0.072       77.301       14.653        0.036      340.100       13.888      865.690
10/11/2014  09:51:00       71.013       64.497       25.305       21.008       14.762       32.736      441.355      217.907     1071.658        0.579        0.087       95.931       17.878        0.035      340.245       14.133      865.673
10/11/2014  09:52:00       58.037       55.429       -0.952       20.022       21.540       21.393      400.865      463.952      457.647        0.388        0.066       80.254       14.719        0.034      340.342       14.297      865.652
10/11/2014  09:53:00       36.693       47.684        7.425       24.427       29.183       28.204      596.678      851.644      795.463        0.296        0.112       60.167       25.458        0.179      340.576       14.693      865.623
10/11/2014  09:54:00        1.155       51.561      -14.159       19.890       17.462       19.270      395.608      304.922      371.315        0.197        0.054       51.574       13.264        0.066      340.553       14.652      865.598
10/11/2014  09:55:00       15.105       26.371       14.246       20.180       26.468       28.651      407.217      700.559      820.906        0.153        0.096       30.391       21.313        0.492      341.013       15.431      865.577
10/11/2014  09:56:00        4.307       18.529        7.483       19.375       17.148       18.863      375.381      294.064      355.819        0.072        0.051       19.023       14.181        0.556      340.941       15.309      865.557
10/11/2014  09:57:00       22.109        8.903       13.755       17.068       11.887       14.086      291.322      141.311      198.412        0.069        0.032       23.834       10.543        0.196      340.700       14.903      865.556
10/11/2014  09:58:00        0.156       -4.880       21.313       12.415       22.311       18.445      154.131      497.758      340.230        0.073        0.050        4.882       17.618       13.021      341.304       15.923      865.545
10/11/2014  09:59:00       -5.248       15.170       34.295       20.488       29.632       19.678      419.761      878.032      387.230        0.156        0.084       16.052       17.036        1.126      341.322       15.953      865.545
10/11/2014  10:00:00        6.090       14.779        2.910       38.247       37.583       28.154     1462.843     1412.503      792.645        0.197        0.183       15.984       21.704        1.844      340.611       14.752      865.542
10/11/2014  10:01:00      -10.173       11.243       35.188       23.257       18.814       20.871      540.892      353.973      435.615        0.140        0.067       15.162       16.065        1.123      341.368       16.033      865.535
10/11/2014  10:02:00      -43.527      -17.498      -13.301       16.314       18.003       11.978      266.138      324.106      143.462        0.156        0.037       46.912        8.074        0.030      340.614       14.756      865.524
10/11/2014  10:03:00      -62.343      -15.027       -4.322       17.509       29.336       14.917      306.571      860.590      222.524        0.276        0.069       64.129        7.363        0.013      340.699       14.899      865.526
10/11/2014  10:04:00      -43.381      -40.715       -4.818       26.296       28.930       13.538      691.476      836.954      183.290        0.264        0.086       59.495        6.889        0.013      340.718       14.931      865.530
10/11/2014  10:05:00       -2.732       -5.316        8.333       10.314        8.733       16.548      106.386       76.265      273.827        0.028        0.023        5.977       11.121        3.462      341.256       15.842      865.526
10/11/2014  10:06:00       -1.551       49.002       24.818       20.631       30.802       19.008      425.626      948.788      361.292        0.238        0.087       49.027       15.979        0.106      341.506       16.267      865.504
10/11/2014  10:07:00       -0.412       -5.608       27.827       20.645       13.088       17.114      426.211      171.283      292.894        0.085        0.045        5.623       10.470        3.467      341.870       16.884      865.499
10/11/2014  10:08:00       26.470      -54.639      -10.273       39.030       35.302       26.374     1523.347     1246.207      695.562        0.363        0.173       60.713       22.724        0.140      340.748       14.982      865.485
10/11/2014  10:09:00       19.363      -33.431       -1.873       29.164       34.502       26.083      850.565     1190.414      680.309        0.211        0.136       38.633       16.617        0.185      340.766       15.014      865.474
10/11/2014  10:10:00        1.147      -14.811       -5.069       27.554       23.552       23.386      759.196      554.695      546.926        0.105        0.093       14.855       16.515        1.236      341.074       15.534      865.461
10/11/2014  10:11:00       -2.028       -7.589       -0.212       27.329       19.636       16.577      746.849      385.584      274.789        0.073        0.070        7.855       14.886        3.592      341.236       15.809      865.448
10/11/2014  10:12:00       -5.304        6.251       18.861       16.686       15.668       16.849      278.421      245.490      283.875        0.062        0.040        8.198       13.448        2.691      342.117       17.305      865.433
10/11/2014  10:13:00      -29.791      -18.413       -3.277       18.052       17.753       14.381      325.869      315.168      206.800        0.104        0.042       35.021        7.239        0.043      341.198       15.745      865.419
10/11/2014  10:14:00       18.154       60.890       69.692       39.502       35.217       27.096     1560.381     1240.265      734.219        0.621        0.177       63.539       23.284        0.134      341.487       16.234      865.411
10/11/2014  10:15:00       24.737       42.887       56.501       30.146       28.915       17.750      908.785      836.086      315.068        0.385        0.103       49.510       16.626        0.113      341.372       16.039      865.421
10/11/2014  10:16:00       71.252       51.200       34.375       33.657       23.664       26.496     1132.780      560.007      702.057        0.564        0.120       87.740       19.450        0.049      341.479       16.221      865.418
10/11/2014  10:17:00       56.187       39.197       19.381       23.237       28.850       23.613      539.965      832.314      557.571        0.350        0.096       68.508       13.149        0.037      341.312       15.937      865.418
10/11/2014  10:18:00       18.870      -11.643      -11.203       42.195       22.578       22.773     1780.393      509.776      518.598        0.171        0.140       22.173       23.330        1.107      341.278       15.879      865.403
10/11/2014  10:19:00       18.782      -30.248       18.952       39.473       53.531       38.099     1558.155     2865.587     1451.541        0.375        0.294       35.605       38.200        1.151      341.848       16.846      865.391
10/11/2014  10:20:00       15.374       24.325       56.301       25.331       31.471       17.651      641.655      990.402      311.551        0.297        0.097       28.776       10.699        0.138      341.767       16.708      865.367
10/11/2014  10:21:00        5.434        1.422        9.978       20.027       22.042       28.984      401.085      485.831      840.057        0.093        0.086        5.617       10.473        3.477      341.475       16.213      865.351
10/11/2014  10:22:00       17.135      -48.668       24.006       51.065       47.552       22.921     2607.647     2261.209      525.359        0.432        0.270       51.597       24.749        0.230      341.523       16.298      865.345
10/11/2014  10:23:00       36.443       51.140       45.691       53.038       39.698       29.840     2813.079     1575.951      890.403        0.565        0.264       62.797       21.912        0.122      341.918       16.966      865.333
10/11/2014  10:24:00       31.728       28.175       65.752       51.855       35.071       23.804     2688.912     1229.949      566.620        0.530        0.224       42.432        8.248        0.038      342.025       17.146      865.345
10/11/2014  10:25:00       48.371       60.258       17.996       23.757       34.529       43.225      564.377     1192.245     1868.383        0.496        0.181       77.270       31.796        0.169      341.469       16.203      865.353
10/11/2014  10:26:00       16.556       -5.357       10.370       27.682       25.647       27.051      766.320      657.793      731.772        0.128        0.108       17.401       11.499        0.437      341.611       16.445      865.350
10/11/2014  10:27:00       25.935      -43.224       23.098       29.215       52.543       30.888      853.533     2760.762      954.081        0.382        0.228       50.408       22.729        0.203      341.746       16.673      865.339
10/11/2014  10:28:00       39.547      -22.921       11.296       37.108       29.698       28.074     1377.025      881.989      788.126        0.263        0.152       45.709       17.387        0.145      341.551       16.343      865.342
10/11/2014  10:29:00       37.902       -7.907        9.055       33.428       23.788       25.121     1117.434      565.892      631.051        0.195        0.116       38.718       22.204        0.329      341.540       16.326      865.353
10/11/2014  10:30:00       32.214      -20.519      -24.049       51.945       22.815       20.088     2698.242      520.527      403.523        0.283        0.181       38.194       23.976        0.394      341.389       16.068      865.366
10/11/2014  10:31:00      -35.594       -5.883        3.041       18.623       15.788       30.199      346.825      249.251      912.005        0.141        0.075       36.077       18.989        0.277      341.753       16.685      865.378
10/11/2014  10:32:00       29.672       37.864        8.606       36.538       27.012       30.939     1335.036      729.629      957.215        0.270        0.151       48.105       22.720        0.223      341.850       16.850      865.404
10/11/2014  10:33:00       51.499       27.034       11.664       38.265       20.302       21.697     1464.178      412.160      470.765        0.293        0.117       58.164       18.401        0.100      342.062       17.209      865.434
10/11/2014  10:34:00       23.941       30.772       38.125       50.337       62.033       44.941     2533.850     3848.117     2019.681        0.569        0.420       38.988       34.196        0.769      341.920       16.968      865.462
10/11/2014  10:35:00       39.272       72.662       69.934       38.267       46.850       22.639     1464.400     2194.917      512.505        0.794        0.209       82.596       23.081        0.078      342.091       17.257      865.487
10/11/2014  10:36:00       18.575        7.119       19.095       27.438       35.939       30.085      752.840     1291.583      905.089        0.185        0.147       19.893       13.629        0.469      341.995       17.095      865.505
10/11/2014  10:37:00      109.964       81.467       30.948       34.625       24.024       26.015     1198.904      577.174      676.773        1.107        0.123      136.854       13.903        0.010      341.575       16.382      865.495
10/11/2014  10:38:00       43.484       62.069        4.041       43.451       31.772       45.945     1887.999     1009.453     2110.985        0.538        0.250       75.786       18.958        0.063      341.833       16.821      865.475
10/11/2014  10:39:00       28.957      -31.019       11.955       35.993       33.283       26.460     1295.510     1107.775      700.137        0.252        0.155       42.434       25.035        0.348      341.738       16.661      865.446
10/11/2014  10:40:00       27.898        0.157        9.003       27.289       35.609       28.685      744.667     1267.966      822.835        0.185        0.142       27.898       15.829        0.322      341.634       16.482      865.411
10/11/2014  10:41:00       29.556       -3.378       16.980       40.893       38.003       32.191     1672.223     1444.251     1036.253        0.266        0.208       29.749       30.167        1.028      341.929       16.983      865.389
10/11/2014  10:42:00       38.383       34.384       39.895       45.188       59.839       36.891     2041.944     3580.722     1360.964        0.561        0.349       51.532       29.673        0.332      341.908       16.948      865.369
10/11/2014  10:43:00        1.962       32.662       59.111       29.716       28.825       27.701      883.044      830.887      767.358        0.352        0.124       32.721       23.485        0.515      342.409       17.799      865.368
10/11/2014  10:44:00       12.999       13.937       54.792       30.465       45.272       32.412      928.103     2049.589     1050.536        0.370        0.201       19.058       29.644        2.419      342.250       17.528      865.376
10/11/2014  10:45:00       52.728       49.564       49.115       34.232       25.907       23.664     1171.851      671.156      560.006        0.503        0.120       72.366        4.792        0.004      342.034       17.162      865.378
10/11/2014  10:46:00       48.114       15.474       14.530       44.853       23.907       28.082     2011.778      571.566      788.624        0.307        0.169       50.541       12.023        0.057      342.375       17.740      865.388
10/11/2014  10:47:00       15.780        6.505       17.742       31.465       33.632       21.794      990.023     1131.094      474.981        0.160        0.130       17.069       12.834        0.565      342.406       17.794      865.390
10/11/2014  10:48:00       13.451       -4.809       19.764       23.003       45.338       30.081      529.132     2055.550      904.845        0.204        0.174       14.285       11.370        0.634      342.302       17.618      865.394
10/11/2014  10:49:00      -30.124      -10.431       14.573       39.533       35.332       32.769     1562.863     1248.337     1073.778        0.256        0.194       31.879       31.720        0.990      342.367       17.728      865.396
10/11/2014  10:50:00      -21.778      -27.783       10.724       30.687       40.737       21.180      941.719     1659.513      448.585        0.220        0.152       35.301       19.294        0.299      342.288       17.592      865.377
10/11/2014  10:51:00        3.795       19.881       45.377       21.365       37.936       23.134      456.466     1439.123      535.177        0.245        0.122       20.240       23.948        1.400      342.860       18.565      865.360
10/11/2014  10:52:00       -7.403        1.279       32.053       23.853       41.468       27.976      568.985     1719.559      782.654        0.208        0.154        7.513       27.593       13.490      342.643       18.197      865.329
10/11/2014  10:53:00       74.787       81.948       65.232       65.599       40.748       51.573     4303.258     1660.367     2659.733        1.259        0.431      110.944       47.003        0.179      342.365       17.723      865.311
10/11/2014  10:54:00      107.659       85.586        4.392       36.902       63.080       38.221     1361.778     3979.132     1460.881        1.287        0.340      137.534       19.731        0.021      342.380       17.748      865.283
10/11/2014  10:55:00       89.368       73.029        2.851       40.339       39.584       33.287     1627.203     1566.898     1108.014        0.881        0.215      115.412       14.504        0.016      342.493       17.942      865.281
10/11/2014  10:56:00       34.542       48.985       15.997       36.841       40.622       29.658     1357.276     1650.183      879.587        0.387        0.194       59.939       12.303        0.042      342.800       18.465      865.278
10/11/2014  10:57:00       41.787       24.052       18.063       47.021       31.218       24.931     2211.006      974.538      621.570        0.323        0.190       48.215       15.797        0.107      342.943       18.707      865.268
10/11/2014  10:58:00       24.149       12.609       16.659       38.437       23.058       25.673     1477.374      531.668      659.090        0.184        0.133       27.243       19.737        0.525      343.023       18.844      865.268
10/11/2014  10:59:00       54.049       21.592        6.675       34.250       18.665       23.817     1173.052      348.369      567.263        0.276        0.104       58.202       11.903        0.042      342.693       18.281      865.262
10/11/2014  11:00:00       59.328      -13.558        2.954       54.073       40.124       30.940     2923.909     1609.975      957.264        0.460        0.275       60.857       26.943        0.196      342.384       17.757      865.260
10/11/2014  11:01:00        9.298       18.828       36.625       39.861       36.554       30.053     1588.938     1336.186      903.190        0.280        0.191       20.999       23.707        1.275      342.930       18.685      865.258
10/11/2014  11:02:00       23.949      -39.192       21.262       54.904       63.554       42.049     3014.441     4039.172     1768.102        0.569        0.441       45.930       31.515        0.471      342.597       18.119      865.268
10/11/2014  11:03:00       48.815       -1.243       46.418       36.453       38.586       43.392     1328.806     1488.912     1882.845        0.462        0.235       48.831       27.426        0.315      342.640       18.191      865.279
10/11/2014  11:04:00       46.646       31.307       10.130       27.944       29.437       32.362      780.844      866.525     1047.321        0.298        0.135       56.178       23.585        0.176      342.428       17.830      865.272
10/11/2014  11:05:00       24.133       21.400        6.420       31.324       30.273       25.971      981.167      916.440      674.498        0.183        0.129       32.255       16.882        0.274      342.674       18.248      865.263
10/11/2014  11:06:00        2.463       14.243        4.397       23.392       34.405       20.203      547.183     1183.691      408.172        0.118        0.107       14.455       15.855        1.203      342.826       18.509      865.232
10/11/2014  11:07:00       -6.407        2.238       31.162       16.522       26.025       20.185      272.963      677.312      407.433        0.119        0.068        6.787       20.633        9.242      343.098       18.972      865.202
10/11/2014  11:08:00       19.936      -16.849        9.923       24.723       24.767       24.845      611.218      613.392      617.280        0.131        0.092       26.102       13.043        0.250      342.572       18.076      865.177
10/11/2014  11:09:00      -60.196       -7.950       -8.811       43.493       24.940       14.010     1891.644      621.984      196.268        0.324        0.135       60.719        7.893        0.017      342.455       17.877      865.151
10/11/2014  11:10:00       20.958       25.445       13.134       36.084       29.545       27.178     1302.069      872.931      738.645        0.209        0.146       32.965       19.257        0.341      343.212       19.165      865.139
10/11/2014  11:11:00       62.868       37.167       20.881       56.408       58.632       42.096     3181.809     3437.657     1772.039        0.708        0.420       73.032       36.746        0.253      342.851       18.550      865.104
10/11/2014  11:12:00       29.804      -27.359       42.608       68.763       50.754       39.581     4728.293     2575.923     1566.621        0.616        0.444       40.458       30.559        0.571      343.023       18.844      865.078
10/11/2014  11:13:00       30.707       -4.438       53.131       38.572       54.575       37.297     1487.784     2978.423     1391.044        0.482        0.293       31.026       25.874        0.695      343.036       18.865      865.036
10/11/2014  11:14:00       48.259      -30.528       23.174       31.904       45.219       32.987     1017.893     2044.757     1088.125        0.397        0.208       57.104       22.350        0.153      342.660       18.225      865.018
10/11/2014  11:15:00        7.560       24.654       36.852       24.855       19.471       24.041      617.753      379.109      577.962        0.180        0.079       25.787       19.545        0.574      342.896       18.627      864.991
10/11/2014  11:16:00       28.092      -79.116       -3.518       56.940       66.095       30.395     3242.151     4368.499      923.837        0.780        0.427       83.956       35.077        0.175      343.030       18.854      864.979
10/11/2014  11:17:00      104.378     -109.122      -31.259       51.987       64.644       33.051     2702.673     4178.821     1092.383        1.588        0.399      151.005       31.905        0.045      342.709       18.307      864.956
10/11/2014  11:18:00       48.328       32.935       55.313       50.252       42.326       31.238     2525.248     1791.470      975.839        0.589        0.265       58.483       30.790        0.277      342.999       18.803      864.936
10/11/2014  11:19:00       23.616       -9.022       12.644       31.599       39.346       26.727      998.488     1548.102      714.350        0.203        0.163       25.281       15.320        0.367      342.909       18.648      864.904
10/11/2014  11:20:00       27.669       36.091       11.730       36.882       40.948       34.249     1360.308     1676.742     1172.962        0.321        0.211       45.477       31.421        0.477      342.968       18.749      864.881
10/11/2014  11:21:00       23.613       16.290        7.480       33.637       30.992       23.652     1131.448      960.502      559.437        0.176        0.133       28.687       23.672        0.681      343.362       19.422      864.863
10/11/2014  11:22:00       29.720      -54.656        0.756       37.263       39.846       34.141     1388.521     1587.689     1165.583        0.401        0.207       62.214       27.817        0.200      342.596       18.118      864.851
10/11/2014  11:23:00       17.606      -22.276       16.345       35.697       36.218       28.983     1274.258     1311.765      840.008        0.225        0.171       28.394       18.655        0.432      342.851       18.552      864.836
10/11/2014  11:24:00       54.051       29.718       21.562       35.447       46.528       36.785     1256.508     2164.899     1353.111        0.452        0.239       61.682       25.260        0.168      343.168       19.091      864.828
10/11/2014  11:25:00        6.047        0.887       17.341       45.399       23.411       22.382     2061.096      548.053      500.942        0.172        0.156        6.111       11.297        3.417      343.460       19.588      864.818
10/11/2014  11:26:00      -41.316      -15.507        5.932       41.525       28.560       28.508     1724.354      815.657      812.726        0.267        0.168       44.130       18.603        0.178      343.379       19.451      864.815
10/11/2014  11:27:00      -25.695      -28.792        1.076       40.485       30.369       26.521     1639.073      922.254      703.338        0.238        0.163       38.591       16.747        0.188      343.208       19.157      864.788
10/11/2014  11:28:00      -50.858      -17.013       -8.533       26.631       23.011       19.783      709.226      529.495      391.366        0.229        0.082       53.628        7.406        0.019      342.922       18.671      864.763
10/11/2014  11:29:00      -13.605        3.097       18.900       68.695       36.903       36.066     4719.009     1361.834     1300.785        0.397        0.369       13.953       37.801        7.340      343.373       19.440      864.731
10/11/2014  11:30:00        5.116       -0.020       37.746       34.235       38.694       27.888     1172.024     1497.237      777.719        0.245        0.172        5.116       27.036       27.923      343.565       19.765      864.709
10/11/2014  11:31:00      -30.100      -58.009        4.349       41.460       39.086       23.133     1718.924     1527.748      535.128        0.404        0.189       65.353       11.069        0.029      343.122       19.011      864.692
10/11/2014  11:32:00       10.888      -85.211      -13.509       47.412       41.226       32.708     2247.904     1699.563     1069.803        0.629        0.251       85.904       15.267        0.032      343.359       19.416      864.690
10/11/2014  11:33:00       52.822     -142.819      -31.082       78.433       55.977       33.941     6151.701     3133.399     1151.981        1.729        0.522      152.274       39.251        0.066      343.377       19.443      864.690
10/11/2014  11:34:00      105.019      -87.631        5.979       75.807       87.352       57.266     5746.654     7630.350     3279.413        1.770        0.833      136.778       69.697        0.260      343.426       19.528      864.682
10/11/2014  11:35:00       12.766       65.956       78.202       32.009       45.687       32.645     1024.559     2087.310     1065.675        0.740        0.209       67.180       32.408        0.233      343.344       19.389      864.687
10/11/2014  11:36:00       50.980      -14.139       31.849       48.543       59.094       39.616     2356.380     3492.048     1569.417        0.561        0.371       52.904       41.623        0.619      343.248       19.226      864.677
10/11/2014  11:37:00       17.554      -13.228       32.288       50.601       44.286       28.691     2560.486     1961.254      823.173        0.343        0.267       21.980       26.803        1.487      343.383       19.459      864.680
10/11/2014  11:38:00      101.948       45.773       23.747       63.191       40.206       32.442     3993.121     1616.510     1052.497        0.986        0.333      111.752       11.350        0.010      343.212       19.164      864.654
10/11/2014  11:39:00       10.666       49.272       75.509       37.003       46.459       36.230     1369.216     2158.415     1312.577        0.654        0.242       50.413       21.068        0.175      343.715       20.023      864.646
10/11/2014  11:40:00       60.898       -1.492       31.670       37.913       71.247       42.665     1437.411     5076.174     1820.311        0.652        0.417       60.917       34.929        0.329      343.198       19.142      864.638
10/11/2014  11:41:00       49.587       76.441       13.172       38.467       43.153       36.528     1479.677     1862.142     1334.260        0.658        0.234       91.116       10.058        0.012      343.394       19.476      864.650
10/11/2014  11:42:00       16.153       34.717        0.512       40.971       46.576       28.438     1678.642     2169.294      808.735        0.306        0.233       38.290       29.969        0.613      343.737       20.060      864.645
10/11/2014  11:43:00       13.420      -37.356       -3.773       27.064       42.620       21.822      732.440     1816.473      476.202        0.231        0.151       39.693       11.784        0.088      343.473       19.610      864.665
10/11/2014  11:44:00       50.669      -54.259        5.997       52.520       68.991       41.400     2758.379     4759.691     1713.931        0.739        0.462       74.239       42.676        0.330      343.737       20.061      864.658
10/11/2014  11:45:00       21.155        7.731       37.362       29.131       28.805       24.502      848.644      829.744      600.337        0.209        0.114       22.524       14.913        0.438      343.974       20.464      864.666
10/11/2014  11:46:00       25.529      -31.905       16.689       30.577       48.013       27.163      934.929     2305.204      737.833        0.296        0.199       40.861       30.282        0.549      343.656       19.922      864.646
10/11/2014  11:47:00        4.197      -32.214       -2.662       53.304       31.301       18.500     2841.311      979.741      342.255        0.261        0.208       32.486       16.071        0.245      343.680       19.963      864.636
10/11/2014  11:48:00      -41.570      -10.071       10.346       31.053       23.445       23.677      964.274      549.688      560.582        0.201        0.104       42.772       23.320        0.297      343.999       20.507      864.614
10/11/2014  11:49:00       44.405       27.478       33.454       47.211       45.210       22.004     2228.839     2043.936      484.194        0.430        0.238       52.219       10.696        0.042      343.496       19.648      864.589
10/11/2014  11:50:00       29.306       53.030        2.027       35.333       25.896       25.291     1248.401      670.593      639.643        0.312        0.128       60.590       18.317        0.091      343.732       20.050      864.565
10/11/2014  11:51:00      -33.516      111.169      -15.951       24.456       22.174       13.225      598.106      491.679      174.893        0.750        0.063      116.111        9.218        0.006      343.432       19.539      864.550
10/11/2014  11:52:00       20.233       50.018       11.342       42.651       43.375       29.236     1819.110     1881.420      854.736        0.380        0.228       53.955       26.074        0.234      343.985       20.483      864.553
10/11/2014  11:53:00       11.888      -25.053        2.523       19.775       32.434       24.386      391.059     1051.948      594.653        0.141        0.102       27.730       17.938        0.418      343.535       19.717      864.558
10/11/2014  11:54:00       24.000      -55.778       17.451       43.683       41.055       39.285     1908.162     1685.549     1543.298        0.456        0.257       60.722       27.429        0.204      343.792       20.153      864.549
10/11/2014  11:55:00       98.280      -88.950      -32.970       46.661       54.515       38.177     2177.285     2971.886     1457.465        1.263        0.330      132.556       35.249        0.071      343.837       20.229      864.527
10/11/2014  11:56:00       24.235      -48.745       25.617       27.957       35.813       28.876      781.591     1282.600      833.831        0.326        0.145       54.437       24.029        0.195      343.999       20.508      864.505
10/11/2014  11:57:00       28.931      -44.706        2.835       37.695       56.901       39.388     1420.949     3237.737     1551.436        0.453        0.311       53.250       26.653        0.251      344.030       20.559      864.489
10/11/2014  11:58:00       29.545      -42.801        0.520       68.172       44.851       52.934     4647.439     2011.634     2802.008        0.608        0.473       52.007       29.660        0.325      343.946       20.415      864.473
10/11/2014  11:59:00       28.775        9.413       36.381       32.225       38.882       29.419     1038.449     1511.803      865.454        0.283        0.171       30.276       26.274        0.753      344.253       20.940      864.472
10/11/2014  12:00:00        7.248        1.119       34.865       23.095       13.730       18.533      533.356      188.511      343.471        0.117        0.053        7.334       11.103        2.292      344.418       21.222      864.466
10/11/2014  12:01:00      -23.043      -33.672       14.465       49.224       27.782       38.089     2422.994      771.819     1450.797        0.326        0.232       40.801       23.148        0.322      343.561       19.761      864.455
10/11/2014  12:02:00      117.740      -33.784       10.243       47.900       60.033       41.587     2294.383     3603.961     1729.466        1.137        0.381      122.491       31.594        0.067      343.535       19.715      864.472
10/11/2014  12:03:00       28.451       26.166       16.430       39.104       57.440       44.260     1529.122     3299.308     1958.959        0.427        0.339       38.654       26.615        0.474      343.845       20.245      864.451
10/11/2014  12:04:00       -0.756        2.746       26.343       26.008       38.444       31.497      676.393     1477.911      992.033        0.192        0.157        2.849       27.301       91.856      344.141       20.749      864.439
10/11/2014  12:05:00        6.725       35.369       54.879       27.279       34.629       21.614      744.170     1199.144      467.186        0.336        0.121       36.003       12.915        0.129      344.291       21.007      864.407
10/11/2014  12:06:00       15.388        5.610        5.470       29.849       26.851       24.997      890.982      720.986      624.867        0.127        0.112       16.379       16.750        1.046      344.373       21.146      864.393
10/11/2014  12:07:00      -46.417      -25.938       -8.829       26.346       31.619       15.879      694.090      999.786      252.144        0.243        0.097       53.172        6.922        0.017      343.970       20.457      864.368
10/11/2014  12:08:00       -7.669      -57.476       -6.787       35.618       30.234       20.587     1268.662      914.092      423.811        0.301        0.130       57.986       13.326        0.053      343.848       20.250      864.366
10/11/2014  12:09:00       18.178      -25.011       13.526       67.540       45.744       34.704     4561.603     2092.518     1204.367        0.450        0.393       30.919       39.557        1.637      344.179       20.814      864.341
10/11/2014  12:10:00        7.530      -36.961       25.983       38.616       55.112       43.390     1491.165     3037.326     1882.656        0.425        0.321       37.720       30.366        0.648      344.593       21.522      864.330
10/11/2014  12:11:00       83.338      -86.854       -5.700       36.911       42.751       28.998     1362.405     1827.607      840.900        0.928        0.202      120.369       15.544        0.017      343.760       20.099      864.329
10/11/2014  12:12:00       25.542      -54.904       13.820       38.594       37.503       27.438     1489.474     1406.459      752.847        0.375        0.182       60.554       25.074        0.171      344.055       20.601      864.326
10/11/2014  12:13:00       -0.426      -11.845       -6.881       32.630       27.167       22.565     1064.700      738.070      509.169        0.125        0.116       11.852       16.765        2.001      344.158       20.780      864.307
10/11/2014  12:14:00       -2.896       -6.277       22.533       22.236       18.231       20.070      494.446      332.356      402.802        0.089        0.061        6.913       14.076        4.146      344.777       21.838      864.303
10/11/2014  12:15:00       45.429       33.822       36.418       43.686       39.841       31.055     1908.510     1587.285      964.434        0.450        0.223       56.637       21.559        0.145      344.499       21.361      864.292
10/11/2014  12:16:00        4.171      -26.310       24.731       35.156       38.366       25.878     1235.972     1471.982      669.668        0.235        0.169       26.638       16.950        0.405      344.555       21.458      864.285
10/11/2014  12:17:00       23.260      -50.950       15.518       54.864       50.526       34.824     3010.031     2552.922     1212.685        0.508        0.339       56.008       34.573        0.381      343.975       20.467      864.270
10/11/2014  12:18:00       20.174        0.102       18.453       22.968       39.937       27.683      527.544     1594.930      766.354        0.182        0.144       20.174       28.426        1.985      344.369       21.139      864.274
10/11/2014  12:19:00      -11.009       22.377       60.678       20.029       33.465       29.356      401.148     1119.882      861.761        0.334        0.119       24.938       19.368        0.603      344.823       21.916      864.257
10/11/2014  12:20:00       64.278       27.430       45.401       48.151       55.612       43.427     2318.480     3092.670     1885.877        0.712        0.365       69.886       12.464        0.032      344.275       20.978      864.261
10/11/2014  12:21:00       20.650       47.452      -21.197       27.468       28.641       20.496      754.497      820.310      420.098        0.256        0.100       51.751        3.995        0.006      344.200       20.851      864.252
10/11/2014  12:22:00       17.614       14.345       -3.399       34.933       18.232       26.085     1220.286      332.389      680.421        0.138        0.112       22.716       19.107        0.707      344.426       21.237      864.240
10/11/2014  12:23:00       43.555       13.416       28.322       43.933       32.601       26.382     1930.152     1062.817      695.991        0.328        0.184       45.574       21.101        0.214      344.445       21.269      864.220
10/11/2014  12:24:00       19.439       33.418       17.738       29.983       27.843       18.484      898.957      775.241      341.659        0.191        0.101       38.661       17.713        0.210      344.896       22.040      864.201
10/11/2014  12:25:00       -0.129      -11.866       12.171       53.142       38.216       25.100     2824.057     1460.436      630.009        0.260        0.246       11.867       17.399        2.150      344.872       21.999      864.192
10/11/2014  12:26:00       -8.042       59.782       66.677       23.955       38.767       22.219      573.861     1502.869      493.695        0.533        0.129       60.321       21.689        0.129      344.978       22.181      864.178
10/11/2014  12:27:00       -0.101       29.249       43.959       18.584       23.389       15.170      345.363      547.060      230.140        0.196        0.056       29.249        5.820        0.040      344.984       22.193      864.170
10/11/2014  12:28:00       22.655       28.401       27.908       39.088       26.450       25.720     1527.882      699.627      661.530        0.249        0.144       36.330       10.738        0.087      344.925       22.090      864.150
10/11/2014  12:29:00       96.991       74.784       27.346       40.054       33.594       28.164     1604.324     1128.583      793.213        0.964        0.176      122.474       20.675        0.028      344.352       21.109      864.133
10/11/2014  12:30:00      143.278       96.960       12.746       44.558       33.296       49.041     1985.386     1108.651     2405.037        1.779        0.275      173.002       26.818        0.024      344.445       21.268      864.094
10/11/2014  12:31:00      138.445      103.540       35.087       55.638       44.238       45.615     3095.604     1956.978     2080.769        1.912        0.357      172.880       33.983        0.039      344.422       21.228      864.059
10/11/2014  12:32:00       61.546       61.586       35.578       66.076       60.985       32.540     4366.027     3719.111     1058.844        0.899        0.457       87.068       24.384        0.078      344.803       21.882      864.014
10/11/2014  12:33:00      111.118       65.549       22.291       75.402       46.963       37.995     5685.434     2205.500     1443.657        1.324        0.467      129.011       26.730        0.043      344.829       21.926      863.992
10/11/2014  12:34:00        3.569       94.917       -1.599       42.899       37.979       36.642     1840.305     1442.373     1342.655        0.682        0.231       94.984       26.583        0.078      344.784       21.850      863.972
10/11/2014  12:35:00       19.120       47.855        8.122       36.450       45.287       34.826     1328.576     2050.930     1212.844        0.366        0.230       51.533       32.796        0.405      345.118       22.421      863.978
10/11/2014  12:36:00        2.693       17.326        8.656       26.924       24.920       25.244      724.908      621.028      637.251        0.118        0.099       17.534       17.715        1.021      345.496       23.069      863.968
10/11/2014  12:37:00       40.041       27.202        0.590       54.021       45.293       26.322     2918.246     2051.486      692.824        0.400        0.283       48.407        7.404        0.023      345.219       22.594      863.970
10/11/2014  12:38:00       75.139       63.323        0.473       39.348       39.214       36.679     1548.303     1537.755     1345.315        0.704        0.222       98.263       22.418        0.052      344.814       21.899      863.981
10/11/2014  12:39:00       64.833       57.596       49.557       27.486       28.358       31.107      755.475      804.157      967.647        0.625        0.126       86.721       11.512        0.018      344.653       21.625      863.973
10/11/2014  12:40:00       59.925       70.500       10.870       59.068       36.656       33.529     3489.085     1343.670     1124.206        0.732        0.298       92.527       23.613        0.065      345.059       22.320      863.960
10/11/2014  12:41:00       38.897        8.010       22.267       35.810       47.873       31.329     1282.364     2291.813      981.481        0.331        0.228       39.713       28.138        0.502      345.301       22.734      863.936
10/11/2014  12:42:00       90.812       44.125       31.379       66.429       54.857       49.211     4412.758     3009.301     2421.772        1.051        0.492      100.965       37.347        0.137      344.946       22.126      863.916
10/11/2014  12:43:00       37.184       60.693       58.981       50.098       45.050       35.471     2509.811     2029.468     1258.217        0.717        0.290       71.178       21.430        0.091      345.036       22.280      863.875
10/11/2014  12:44:00      149.324       82.206       34.070       73.600       49.265       48.559     5416.935     2427.070     2357.968        2.021        0.510      170.457       41.978        0.061      345.078       22.350      863.843
10/11/2014  12:45:00      122.996       95.483       13.520       49.409       39.763       46.225     2441.258     1581.081     2136.726        1.529        0.308      155.708       18.040        0.013      344.827       21.923      863.825
10/11/2014  12:46:00      152.427      106.671       47.948       52.338       43.667       40.835     2739.266     1906.802     1667.471        2.161        0.316      186.044       26.507        0.020      344.988       22.197      863.797
10/11/2014  12:47:00       61.361       63.214       11.688       59.967       33.587       32.018     3596.059     1128.085     1025.122        0.682        0.287       88.098       14.085        0.026      344.911       22.066      863.795
10/11/2014  12:48:00       64.498       61.721       47.330       53.445       36.606       31.685     2856.380     1339.987     1003.949        0.770        0.260       89.272       11.222        0.016      345.160       22.491      863.776
10/11/2014  12:49:00       28.145     -106.115       -1.254       57.448       46.862       36.356     3300.218     2196.019     1321.724        0.943        0.341      109.784       31.278        0.081      344.953       22.137      863.783
10/11/2014  12:50:00       17.448       -9.688       16.516       17.745       54.111       24.966      314.873     2928.037      623.281        0.227        0.193       19.958       25.602        1.646      345.407       22.916      863.783
10/11/2014  12:51:00       67.654       23.877       11.688       57.365       40.949       26.448     3290.796     1676.850      699.504        0.547        0.283       71.743       15.417        0.046      345.008       22.233      863.789
10/11/2014  12:52:00       91.284       75.956       10.514       83.717       48.133       39.498     7008.567     2316.810     1560.079        1.255        0.544      118.752       28.510        0.058      345.268       22.677      863.785
10/11/2014  12:53:00        3.876       63.771       -7.495       37.431       41.198       32.627     1401.079     1697.253     1064.509        0.415        0.208       63.888       28.338        0.197      345.138       22.455      863.775
10/11/2014  12:54:00       -7.782       60.939        6.134       32.446       39.468       30.169     1052.744     1557.736      910.184        0.367        0.176       61.433       29.606        0.232      345.454       22.999      863.757
10/11/2014  12:55:00       39.778       22.946       17.702       51.909       37.878       21.035     2694.498     1434.719      442.477        0.350        0.229       45.921        9.588        0.044      345.450       22.990      863.731
10/11/2014  12:56:00      148.985       63.834       10.588       55.870       41.915       42.305     3121.466     1756.830     1789.675        1.652        0.333      162.084       28.730        0.031      345.030       22.269      863.723
10/11/2014  12:57:00       19.316       67.126       14.237       45.103       79.459       39.777     2034.290     6313.692     1582.244        0.750        0.497       69.850       41.135        0.347      345.242       22.632      863.710
10/11/2014  12:58:00       36.382      -20.328       -7.718       23.890       27.363       25.767      570.717      748.728      663.933        0.189        0.099       41.676       20.725        0.247      344.878       22.011      863.710
10/11/2014  12:59:00      103.391       16.932       42.846       76.972       52.385       49.041     5924.715     2744.177     2405.064        1.194        0.554      104.768       43.801        0.175      344.940       22.115      863.706
10/11/2014  13:00:00       84.904      112.795       69.819       65.659       41.337       47.709     4311.142     1708.711     2276.148        1.655        0.415      141.179       37.114        0.069      345.041       22.287      863.681
10/11/2014  13:01:00       94.333       73.670       28.914       49.083       39.161       44.983     2409.110     1533.604     2023.442        1.056        0.298      119.691       25.281        0.045      345.567       23.189      863.677
10/11/2014  13:02:00       73.902       73.321       51.324       44.674       39.992       35.449     1995.779     1599.362     1256.659        0.916        0.243      104.103       19.698        0.036      345.285       22.707      863.666
10/11/2014  13:03:00       47.895       15.191       14.063       41.423       45.486       35.018     1715.838     2069.020     1226.247        0.387        0.251       50.247       27.870        0.308      345.075       22.348      863.650
10/11/2014  13:04:00      143.087       78.940       42.233       54.598       45.595       42.889     2980.983     2078.895     1839.445        1.769        0.345      163.418       27.912        0.029      345.019       22.251      863.640
10/11/2014  13:05:00      116.055      106.077       44.882       78.164       46.318       49.725     6109.645     2145.341     2472.569        1.873        0.536      157.229       45.152        0.082      345.073       22.342      863.622
10/11/2014  13:06:00      117.346       79.094       12.463       47.956       39.267       32.675     2299.791     1541.903     1067.632        1.254        0.245      141.513       22.609        0.026      345.048       22.300      863.612
10/11/2014  13:07:00       31.494       60.398        3.376       56.581       34.950       26.510     3201.457     1221.475      702.767        0.489        0.256       68.116       20.991        0.095      345.299       22.730      863.594
10/11/2014  13:08:00       -8.760       14.548      -10.275       32.185       26.602       18.015     1035.860      707.651      324.558        0.123        0.103       16.982       15.196        0.801      345.458       23.003      863.559
10/11/2014  13:09:00       39.826       39.429        1.060       41.277       27.233       24.727     1703.778      741.618      611.444        0.310        0.153       56.043       11.908        0.045      345.681       23.387      863.533
10/11/2014  13:10:00      133.035       84.172       17.399       49.719       48.579       35.164     2471.941     2359.909     1236.535        1.558        0.303      157.427       23.664        0.023      345.755       23.513      863.514
10/11/2014  13:11:00       58.859       58.295       52.248       51.975       43.243       33.548     2701.444     1869.968     1125.494        0.764        0.285       82.841       13.129        0.025      346.038       23.998      863.494
10/11/2014  13:12:00       79.942       61.614       19.569       47.020       37.538       29.648     2210.875     1409.097      878.977        0.753        0.225      100.931       20.052        0.039      345.587       23.224      863.487
10/11/2014  13:13:00       39.010        6.779       33.029       40.878       44.099       42.607     1671.048     1944.747     1815.323        0.404        0.272       39.594       36.351        0.843      345.468       23.020      863.483
10/11/2014  13:14:00       67.054       -5.502        5.348       40.776       32.855       31.235     1662.701     1079.455      975.620        0.414        0.186       67.279       21.238        0.100      344.882       22.016      863.465
10/11/2014  13:15:00       48.853      -18.380        6.992       52.602       48.656       25.535     2766.931     2367.419      652.022        0.428        0.289       52.196       15.420        0.087      345.163       22.497      863.450
10/11/2014  13:16:00       75.149      -20.297       12.351       43.661       44.678       39.253     1906.323     1996.084     1540.820        0.583        0.272       77.842       30.136        0.150      345.475       23.032      863.416
10/11/2014  13:17:00       38.857      -60.697        2.157       51.491       84.236       34.229     2651.314     7095.738     1171.620        0.806        0.546       72.070       47.361        0.432      345.941       23.831      863.387
10/11/2014  13:18:00       47.269      -66.250       20.569       64.221      102.295       51.223     4124.338    10464.284     2623.756        1.213        0.861       81.384       54.476        0.448      346.002       23.935      863.346
10/11/2014  13:19:00      104.305     -143.249      -33.771       59.998       71.072       37.597     3599.703     5051.172     1413.543        2.130        0.503      177.200       30.898        0.030      345.650       23.330      863.309
10/11/2014  13:20:00       52.894     -155.245      -38.923       45.058       67.978       33.845     2030.207     4621.065     1145.512        1.810        0.390      164.008       18.613        0.013      345.518       23.106      863.283
10/11/2014  13:21:00       69.002      -95.284      -15.808       67.077       54.624       34.144     4499.381     2983.782     1165.831        1.137        0.432      117.645       32.850        0.078      345.568       23.190      863.261
10/11/2014  13:22:00       41.603     -104.748      -26.019       41.609       58.168       26.205     1731.299     3383.561      686.679        0.959        0.290      112.708       27.028        0.058      345.648       23.329      863.240
10/11/2014  13:23:00      -33.313       -2.341        2.941       55.340       19.816       29.644     3062.531      392.668      878.749        0.273        0.217       33.395       32.916        0.972      345.715       23.444      863.211
10/11/2014  13:24:00       32.005      -64.845       -2.284       61.088       83.714       49.414     3731.732     7008.029     2441.739        0.921        0.659       72.313       38.230        0.280      345.950       23.846      863.197
10/11/2014  13:25:00       20.722       70.458      105.428       50.222       50.115       29.875     2522.261     2511.470      892.531        1.122        0.296       73.442       26.409        0.129      345.822       23.626      863.178
10/11/2014  13:26:00       78.260      -73.111        0.595       60.677       72.301       37.411     3681.709     5227.412     1399.594        1.089        0.515      107.097       43.763        0.167      345.638       23.312      863.146
10/11/2014  13:27:00       80.797      -87.244      -12.385       50.087       50.672       29.130     2508.690     2567.617      848.572        1.011        0.296      118.911       32.103        0.073      345.585       23.219      863.122
10/11/2014  13:28:00       16.861      -79.514       -4.045       69.538       44.494       28.139     4835.538     1979.728      791.789        0.711        0.380       81.282       24.361        0.090      345.661       23.350      863.100
10/11/2014  13:29:00      -31.591      -36.559        7.026       38.614       36.204       30.474     1491.074     1310.736      928.687        0.306        0.187       48.317       19.519        0.163      346.199       24.273      863.060
10/11/2014  13:30:00        9.376      -29.384        2.620       35.410       28.122       30.644     1253.851      790.837      939.045        0.197        0.149       30.844       17.165        0.310      346.145       24.181      863.044
10/11/2014  13:31:00        0.346      -21.141       24.705       36.288       29.130       20.877     1316.784      848.546      435.840        0.183        0.130       21.144       16.798        0.631      346.406       24.631      863.042
10/11/2014  13:32:00      -15.797        8.343       42.506       21.921       33.246       21.879      480.534     1105.302      478.706        0.209        0.103       17.865       19.269        1.163      346.788       25.288      863.024
10/11/2014  13:33:00        1.284      -50.598        5.537       50.745       52.334       30.177     2575.025     2738.837      910.652        0.441        0.311       50.614       24.452        0.233      346.373       24.573      862.998
10/11/2014  13:34:00      106.783      -66.139       -3.665       64.171       67.432       43.355     4117.874     4547.096     1879.627        1.317        0.527      125.606       40.748        0.105      346.021       23.968      862.969
10/11/2014  13:35:00       92.358     -101.848        1.896       91.211       94.714       59.909     8319.374     8970.759     3589.053        1.989        1.044      137.488       67.206        0.239      346.188       24.254      862.949
10/11/2014  13:36:00      125.990     -174.244      -22.837       58.657       52.160       40.656     3440.681     2720.697     1652.902        2.728        0.391      215.022       42.683        0.039      345.780       23.553      862.936
10/11/2014  13:37:00       23.061      -10.439       25.718       60.647       79.803       34.687     3678.031     6368.533     1203.210        0.627        0.562       25.314       23.219        0.841      346.572       24.916      862.924
10/11/2014  13:38:00       17.625      -23.198       20.299       53.933       60.433       38.960     2908.793     3652.131     1517.863        0.467        0.404       29.133       31.743        1.187      346.465       24.734      862.934
10/11/2014  13:39:00       34.555       39.453       35.762       40.640       36.461       29.659     1651.606     1329.418      879.673        0.394        0.193       52.446       21.194        0.163      346.362       24.555      862.944
10/11/2014  13:40:00       11.830        0.671        8.988       53.137       54.466       32.971     2823.505     2966.562     1087.081        0.355        0.344       11.849       30.599        6.669      346.160       24.207      862.939
10/11/2014  13:41:00        8.660        1.475       59.218       39.311       88.230       52.014     1545.389     7784.479     2705.475        0.781        0.602        8.785       50.979       33.674      346.366       24.562      862.928
10/11/2014  13:42:00       46.152      -58.949       21.290       59.345       69.461       46.806     3521.773     4824.854     2190.801        0.830        0.527       74.867       40.216        0.289      346.246       24.356      862.931
10/11/2014  13:43:00       41.406      -22.097       14.711       51.343       56.154       48.234     2636.093     3153.310     2326.500        0.527        0.406       46.933       25.630        0.298      346.266       24.390      862.923
10/11/2014  13:44:00        7.416       -4.640       27.206       31.443       34.813       25.506      988.661     1211.938      650.552        0.183        0.143        8.749       10.721        1.502      346.641       25.035      862.919
10/11/2014  13:45:00       24.480       73.945      102.434       52.483       51.336       65.111     2754.466     2635.356     4239.459        1.309        0.481       77.892       49.095        0.397      346.337       24.512      862.910
10/11/2014  13:46:00       30.630       -6.717       20.873       75.340       41.504       42.075     5676.125     1722.562     1770.307        0.529        0.458       31.358       39.945        1.623      345.758       23.518      862.934
10/11/2014  13:47:00      -58.014        7.813      -11.322       16.348       17.153       18.566      267.259      294.215      344.698        0.223        0.045       58.538        7.845        0.018      345.837       23.651      862.928
10/11/2014  13:48:00      -34.137       -4.499        1.247       20.370       25.327       14.260      414.952      641.444      203.359        0.122        0.063       34.432        5.969        0.030      346.419       24.653      862.922
10/11/2014  13:49:00        1.026      -38.477       -7.834       37.622       33.172       25.745     1415.430     1100.376      662.780        0.236        0.159       38.490       20.651        0.288      346.333       24.505      862.908
10/11/2014  13:50:00       36.503      -63.894       32.467       44.863       82.398       42.741     2012.652     6789.482     1826.791        0.855        0.531       73.586       34.430        0.219      346.506       24.802      862.886
10/11/2014  13:51:00       -7.144      -23.065       52.097       27.028       38.487       20.978      730.522     1481.261      440.085        0.297        0.133       24.146        2.754        0.013      346.671       25.085      862.881
10/11/2014  13:52:00       27.397       12.508       25.947       28.133       36.155       16.885      791.453     1307.209      285.089        0.198        0.119       30.117       13.089        0.189      346.514       24.817      862.871
10/11/2014  13:53:00       71.024       45.006       31.843       72.786       39.709       29.897     5297.823     1576.803      893.806        0.792        0.388       84.084       23.636        0.079      346.616       24.992      862.843
10/11/2014  13:54:00       64.131       83.073       61.174       83.635       74.237       63.264     6994.857     5511.149     4002.341        1.563        0.825      104.947       57.513        0.300      346.452       24.708      862.819
10/11/2014  13:55:00      112.541      103.767       10.269       50.219       46.909       43.542     2521.910     2200.439     1895.900        1.508        0.331      153.078       16.436        0.012      346.148       24.186      862.818
10/11/2014  13:56:00       58.786       62.249       34.209       56.279       45.803       34.677     3167.283     2097.918     1202.469        0.748        0.323       85.620       24.610        0.083      346.339       24.516      862.813
10/11/2014  13:57:00       85.720       61.922       53.045       54.606       53.720       39.126     2981.774     2885.797     1530.814        1.070        0.370      105.746       27.364        0.067      346.330       24.500      862.798
10/11/2014  13:58:00       43.462       75.245       84.228       68.019       72.061       56.558     4626.638     5192.774     3198.759        1.383        0.651       86.895       49.460        0.324      346.519       24.823      862.799
10/11/2014  13:59:00       80.047       75.872       60.488       94.111       51.565       44.229     8856.791     2658.915     1956.208        1.465        0.674      110.291       36.971        0.112      346.182       24.245      862.823
10/11/2014  14:00:00       45.097       24.413       58.822       53.389       61.099       37.086     2850.408     3733.103     1375.335        0.702        0.398       51.281       33.389        0.424      346.401       24.622      862.830
10/11/2014  14:01:00       37.494        7.517       14.585       42.845       44.226       27.835     1835.720     1955.960      774.763        0.312        0.228       38.240       18.037        0.222      346.396       24.613      862.810
10/11/2014  14:02:00       25.170        8.649        1.748       19.846       39.103       17.708      393.883     1529.044      313.573        0.147        0.112       26.615       17.221        0.419      346.634       25.024      862.800
10/11/2014  14:03:00       28.764      -44.781       10.244       24.875       42.734       23.724      618.785     1826.211      562.832        0.297        0.150       53.223       21.202        0.159      346.731       25.188      862.766
10/11/2014  14:04:00       89.060     -131.170      -18.752       67.271       65.320       37.983     4525.334     4266.658     1442.741        1.786        0.512      158.548       37.643        0.056      346.481       24.758      862.712
10/11/2014  14:05:00      116.345     -144.658      -43.520       70.196       59.297       41.286     4927.510     3516.183     1704.559        2.325        0.507      185.640       18.986        0.010      346.358       24.546      862.651
10/11/2014  14:06:00       92.129     -167.134      -21.067       59.533       59.411       45.039     3544.137     3529.635     2028.497        2.298        0.455      190.844       28.831        0.023      346.377       24.578      862.621
10/11/2014  14:07:00       34.671      -56.847       -0.288       66.682       68.935       36.488     4446.554     4751.994     1331.369        0.748        0.526       66.586       40.528        0.370      346.675       25.094      862.606
10/11/2014  14:08:00        2.691        7.634       10.185       18.126       19.019       15.785      328.556      361.723      249.174        0.055        0.047        8.094       12.645        2.440      347.015       25.679      862.613
10/11/2014  14:09:00      -31.254      -24.829       -1.691       34.537       25.412       17.523     1192.834      645.767      307.054        0.187        0.107       39.916       10.346        0.067      346.723       25.176      862.597
10/11/2014  14:10:00      -24.214       -5.220       20.984       48.236       29.447       26.054     2326.688      867.102      678.794        0.246        0.194       24.770       33.984        1.882      347.171       25.947      862.587
10/11/2014  14:11:00      -17.081      -53.441       -6.752       42.486       43.339       35.313     1805.087     1878.239     1247.027        0.406        0.247       56.104       29.936        0.285      347.019       25.687      862.578
10/11/2014  14:12:00      -14.910      -84.071       -2.339       56.731       47.317       36.173     3218.455     2238.911     1308.496        0.703        0.338       85.383       27.364        0.103      346.888       25.459      862.572
10/11/2014  14:13:00       45.022     -125.448        0.651       34.502       45.478       33.328     1190.367     2068.244     1110.779        1.107        0.218      133.282       16.836        0.016      346.521       24.828      862.565
10/11/2014  14:14:00       13.395       -9.124       20.090       30.178       37.803       34.508      910.687     1429.047     1190.776        0.210        0.177       16.207       32.143        3.934      346.973       25.606      862.538
10/11/2014  14:15:00       41.184      -67.154       15.034       29.355       40.338       25.810      861.704     1627.166      666.153        0.479        0.158       78.777       18.071        0.053      346.851       25.396      862.516
10/11/2014  14:16:00        6.312      -71.137       -4.934       26.410       38.746       22.091      697.478     1501.224      488.017        0.391        0.134       71.416       16.040        0.050      346.937       25.545      862.490
10/11/2014  14:17:00      -81.814      -42.665       -0.331       47.112       44.204       29.126     2219.585     1954.038      848.322        0.677        0.251       92.270       18.768        0.041      346.910       25.498      862.464
10/11/2014  14:18:00      -67.783      -30.501       -5.833       28.238       37.849       18.562      797.359     1432.540      344.544        0.407        0.129       74.329       15.488        0.043      346.695       25.127      862.432
10/11/2014  14:19:00      -24.292      -64.349       -0.457       35.044       33.218       23.790     1228.109     1103.404      565.963        0.381        0.145       68.782       20.862        0.092      346.677       25.097      862.415
10/11/2014  14:20:00      -14.419      -94.328       -5.241       21.037       22.621       12.575      442.544      511.719      158.124        0.512        0.056       95.424        9.818        0.011      346.559       24.896      862.392
10/11/2014  14:21:00     -122.164      -67.439      -16.724      109.887       44.471       35.779    12075.067     1977.694     1280.142        1.754        0.767      139.542       39.166        0.079      346.784       25.280      862.365
10/11/2014  14:22:00      -56.673       -9.997       10.312       58.840       64.612       39.456     3462.180     4174.705     1556.812        0.630        0.460       57.548       39.971        0.482      347.327       26.213      862.345
10/11/2014  14:23:00      -98.509      -41.855       -0.328       51.531       59.487       29.894     2655.435     3538.737      893.637        0.927        0.354      107.032       31.472        0.086      347.311       26.189      862.327
10/11/2014  14:24:00      -82.261      -56.234        8.135       67.846       64.023       34.212     4603.122     4099.005     1170.436        0.993        0.494       99.644       35.912        0.130      347.116       25.854      862.300
10/11/2014  14:25:00      -32.750      -51.601       -7.703       53.557       58.827       21.566     2868.341     3460.594      465.091        0.529        0.340       61.116       16.009        0.069      347.256       26.093      862.281
10/11/2014  14:26:00        1.242      -94.435      -12.720       29.984       29.738       18.983      899.033      884.353      360.371        0.561        0.107       94.443       11.567        0.015      346.907       25.493      862.258
10/11/2014  14:27:00       31.812      -39.297       18.403       58.091       39.615       31.301     3374.523     1569.374      979.761        0.441        0.296       50.559       28.231        0.312      347.205       26.006      862.240
10/11/2014  14:28:00        9.798      -44.567        4.412       60.726       39.306       34.669     3687.613     1544.989     1201.973        0.427        0.322       45.631       32.419        0.505      347.288       26.148      862.231
10/11/2014  14:29:00       67.940      -35.003       32.704       70.095       65.371       39.753     4913.348     4273.393     1580.335        0.884        0.538       76.427       43.389        0.322      347.260       26.101      862.209
10/11/2014  14:30:00       83.917       19.411       41.308       38.731       64.751       31.651     1500.103     4192.667     1001.789        0.791        0.335       86.133       22.054        0.066      346.991       25.636      862.197
10/11/2014  14:31:00       85.048       68.283       34.007       35.891       37.360       30.692     1288.145     1395.793      942.001        0.834        0.181      109.068       14.737        0.018      347.081       25.792      862.186
10/11/2014  14:32:00        7.949       21.179       16.793       19.619       22.286       18.569      384.906      496.686      344.795        0.101        0.061       22.622       11.634        0.264      347.521       26.551      862.184
10/11/2014  14:33:00      -12.188       16.095       -4.533       21.538       21.216       16.664      463.881      450.101      277.690        0.081        0.060       20.189        7.859        0.152      347.396       26.335      862.181
10/11/2014  14:34:00       27.307      -49.080        4.786       38.744       30.269       26.140     1501.131      916.224      683.313        0.314        0.155       56.165       21.700        0.149      347.214       26.020      862.182
10/11/2014  14:35:00      -12.405       22.668       16.793       34.953       29.486       34.811     1221.724      869.432     1211.802        0.213        0.165       25.840       27.620        1.142      347.814       27.056      862.172
10/11/2014  14:36:00        1.882       22.374       29.120       24.880       33.058       25.013      618.992     1092.832      625.672        0.184        0.117       22.453       22.277        0.984      347.827       27.078      862.168
10/11/2014  14:37:00      -24.512      -69.159        6.160       71.896       50.344       33.953     5169.017     2534.499     1152.811        0.714        0.443       73.374       31.064        0.179      347.582       26.657      862.167
10/11/2014  14:38:00      -91.285      -69.245       -4.068       41.386       43.151       31.119     1712.773     1862.026      968.361        0.884        0.227      114.577       16.997        0.022      347.255       26.092      862.142
10/11/2014  14:39:00     -223.995     -103.403        4.611       97.008       72.132       41.631     9410.491     5203.033     1733.119        3.861        0.817      246.710       42.946        0.030      347.083       25.792      862.129
10/11/2014  14:40:00     -111.459      -88.583        3.040       84.558       45.844       34.444     7150.137     2101.701     1186.387        1.536        0.522      142.373       39.699        0.078      347.023       25.691      862.144
10/11/2014  14:41:00      -95.625     -127.972        4.198       71.279       72.847       38.094     5080.761     5306.709     1451.160        1.869        0.592      159.753       31.607        0.039      347.049       25.735      862.127
10/11/2014  14:42:00     -149.277      -91.480       -3.622       72.946       47.673       42.085     5321.182     2272.755     1771.185        2.001        0.468      175.078       35.124        0.040      347.084       25.795      862.133
10/11/2014  14:43:00     -128.688     -124.847       -2.596       66.280       68.023       45.153     4393.039     4627.185     2038.763        2.160        0.553      179.297       45.998        0.066      347.030       25.702      862.133
10/11/2014  14:44:00     -145.363      -87.625       -6.820       46.473       47.850       27.836     2159.710     2289.627      774.830        1.704        0.261      169.730       18.765        0.012      347.121       25.859      862.123
10/11/2014  14:45:00      -41.575      -21.319        3.391       37.880       33.395       16.594     1434.932     1115.213      275.359        0.251        0.141       46.722       15.600        0.111      347.543       26.588      862.114
10/11/2014  14:46:00      -53.998      -33.516       -9.519       39.098       27.112       19.065     1528.671      735.047      363.485        0.338        0.131       63.554       17.469        0.076      347.506       26.524      862.114
10/11/2014  14:47:00      -84.527      -55.876        3.327      111.235       42.524       31.188    12373.219     1808.301      972.666        1.271        0.758      101.326       46.458        0.210      347.438       26.405      862.099
10/11/2014  14:48:00     -158.856     -141.396       -0.433       81.358       82.578       42.389     6619.117     6819.144     1796.830        3.023        0.762      212.669       31.397        0.022      347.051       25.736      862.071
10/11/2014  14:49:00     -120.897      -74.195        4.476       52.760       62.121       36.070     2783.601     3858.980     1301.027        1.404        0.397      141.848       21.810        0.024      347.147       25.904      862.049
10/11/2014  14:50:00     -106.264      -75.168        9.648       69.103       51.438       35.271     4775.209     2645.851     1244.048        1.285        0.433      130.163       28.459        0.048      347.247       26.077      862.017
10/11/2014  14:51:00      -62.214      -85.236        6.700       74.571       51.998       42.143     5560.762     2703.759     1775.993        1.061        0.502      105.526       41.791        0.157      347.224       26.037      861.978
10/11/2014  14:52:00      -68.007      -62.402       -4.431       61.547       46.994       29.623     3788.010     2208.482      877.549        0.771        0.344       92.299       18.659        0.041      347.353       26.261      861.946
10/11/2014  14:53:00     -110.523     -132.637       -2.149       92.502       56.270       35.585     8556.671     3166.334     1266.304        2.140        0.649      172.650       41.177        0.057      347.250       26.082      861.928
10/11/2014  14:54:00      -71.104      -43.962       22.363       74.560       64.027       37.771     5559.133     4099.436     1426.678        0.929        0.554       83.597       33.257        0.158      347.379       26.305      861.909
10/11/2014  14:55:00     -108.744      -37.946        5.654       67.657       68.082       34.401     4577.459     4635.150     1183.412        1.184        0.520      115.175       34.918        0.092      347.392       26.328      861.903
10/11/2014  14:56:00     -112.933      -38.318       -3.591       65.680       47.124       29.377     4313.882     2220.644      863.027        1.082        0.370      119.256       25.808        0.047      347.508       26.527      861.911
10/11/2014  14:57:00      -60.884      -47.131       17.619       83.104       50.453       39.793     6906.242     2545.494     1583.494        0.864        0.552       76.995       46.980        0.372      347.431       26.396      861.904
10/11/2014  14:58:00     -151.660       56.681      -12.328       64.229       79.776       28.615     4125.346     6364.164      818.830        1.883        0.565      161.905       13.428        0.007      347.106       25.835      861.882
10/11/2014  14:59:00       49.162       71.354       26.703       42.867       36.971       48.198     1837.613     1366.886     2323.031        0.687        0.276       86.651       26.382        0.093      347.280       26.135      861.856
10/11/2014  15:00:00      141.907      116.127       66.086       90.619       44.861       51.791     8211.795     2012.547     2682.331        2.545        0.645      183.366       45.063        0.060      347.300       26.167      861.823
10/11/2014  15:01:00      165.531      110.015       98.240       52.474       57.055       56.698     2753.523     3255.328     3214.636        2.919        0.461      198.756       37.639        0.036      347.176       25.952      861.833
10/11/2014  15:02:00       48.879      107.720      114.237       78.610       73.508       53.055     6179.522     5403.361     2814.857        2.072        0.720      118.291       55.956        0.224      347.314       26.191      861.837
10/11/2014  15:03:00       46.879      -30.465       44.294       45.343       81.717       45.274     2055.959     6677.640     2049.741        0.793        0.539       55.909       52.224        0.873      347.284       26.141      861.842
10/11/2014  15:04:00       43.044       52.401       59.627       62.104       49.531       46.734     3856.845     2453.350     2184.109        0.832        0.425       67.813       46.196        0.464      347.450       26.428      861.835
10/11/2014  15:05:00       77.849       61.479       -0.377       56.679       32.456       32.596     3212.462     1053.389     1062.499        0.758        0.266       99.197       19.463        0.038      347.395       26.333      861.824
10/11/2014  15:06:00       13.965      -15.768       11.450       48.228       33.487       29.971     2325.915     1121.366      898.259        0.246        0.217       21.063       21.717        1.063      347.726       26.903      861.809
10/11/2014  15:07:00      -59.231      -35.252       12.720       41.375       61.239       34.039     1711.869     3750.251     1158.650        0.577        0.331       68.928       29.493        0.183      347.906       27.213      861.789
10/11/2014  15:08:00       -8.700      -56.916       12.979       71.965       42.713       31.007     5178.974     1824.399      961.414        0.572        0.398       57.577       17.667        0.094      347.687       26.837      861.800
10/11/2014  15:09:00       34.242      -42.840       26.380       34.215       43.221       28.074     1170.688     1868.038      788.155        0.376        0.191       54.843       31.389        0.328      347.587       26.665      861.805
10/11/2014  15:10:00       24.574       39.009       30.573       28.587       25.149       18.080      817.233      632.467      326.902        0.242        0.089       46.104        9.135        0.039      347.642       26.759      861.780
10/11/2014  15:11:00        6.857       88.498       -0.956       45.023       37.402       27.522     2027.044     1398.943      757.435        0.603        0.209       88.763       26.443        0.089      347.575       26.643      861.761
10/11/2014  15:12:00       13.377       18.229        3.630       19.251       30.477       19.091      370.592      928.850      364.449        0.109        0.083       22.610       12.847        0.323      347.611       26.706      861.740
10/11/2014  15:13:00       25.079        5.821       31.762       30.414       37.048       18.607      925.015     1372.565      346.214        0.216        0.132       25.746       24.383        0.897      347.738       26.925      861.712
10/11/2014  15:14:00       49.459       45.575       24.474       36.807       38.632       28.406     1354.735     1492.434      806.896        0.439        0.183       67.255       12.934        0.037      347.587       26.663      861.691
10/11/2014  15:15:00      -12.351      -13.077       38.981       46.260       47.759       41.922     2140.002     2280.920     1757.456        0.401        0.309       17.988       20.759        1.332      348.057       27.476      861.657
10/11/2014  15:16:00       33.173      -14.103       40.291       48.412       69.036       37.905     2343.747     4766.031     1436.808        0.573        0.427       36.047       46.656        1.675      347.677       26.819      861.633
10/11/2014  15:17:00       60.809      -48.553        0.391       40.171       33.671       24.083     1613.733     1133.725      579.992        0.469        0.166       77.815       23.355        0.090      347.470       26.463      861.612
10/11/2014  15:18:00       38.366       -8.137       20.923       44.705       26.449       25.067     1998.544      699.524      628.333        0.265        0.166       39.220       16.212        0.171      347.588       26.667      861.599
10/11/2014  15:19:00      -35.539      -55.841      -16.477       74.325       37.980       23.735     5524.278     1442.494      563.374        0.609        0.377       66.191       19.225        0.084      347.755       26.955      861.604
10/11/2014  15:20:00      -91.155      -49.690       13.889       91.629       55.417       33.405     8395.953     3071.012     1115.884        1.177        0.629      103.818       26.426        0.065      347.917       27.233      861.625
10/11/2014  15:21:00     -155.294      -95.261      -19.855       89.503       63.762       42.004     8010.815     4065.642     1764.334        2.371        0.692      182.183       43.876        0.058      347.465       26.451      861.629
10/11/2014  15:22:00     -163.696     -183.941      -16.997       66.945       85.250       39.045     4481.653     7267.544     1524.481        3.709        0.664      246.233       32.846        0.018      347.449       26.421      861.627
10/11/2014  15:23:00     -106.134     -229.306       -3.781       65.706       70.599       38.087     4317.285     4984.193     1450.611        3.730        0.538      252.677       33.803        0.018      347.340       26.233      861.624
10/11/2014  15:24:00      -42.482     -150.221       -7.067       37.048       62.493       26.189     1372.576     3905.394      685.869        1.519        0.298      156.112       18.073        0.013      347.437       26.403      861.600
10/11/2014  15:25:00      -48.111       -2.429      -15.745       49.247       26.125       36.718     2425.255      682.538     1348.175        0.351        0.223       48.172       32.303        0.450      347.625       26.729      861.548
10/11/2014  15:26:00       83.143      -97.722        0.004       67.346       92.380       56.624     4535.506     8534.142     3206.313        1.637        0.814      128.305       53.349        0.173      347.605       26.695      861.480
10/11/2014  15:27:00       69.825     -135.708        6.189       74.929       97.762       61.578     5614.361     9557.488     3791.873        2.114        0.948      152.618       62.419        0.167      347.528       26.561      861.420
10/11/2014  15:28:00       58.207     -104.357       19.185       69.045      109.972       55.468     4767.200    12093.789     3076.671        1.729        0.997      119.492       72.836        0.372      347.420       26.375      861.407
10/11/2014  15:29:00       34.518      -12.323       60.258       49.212       76.059       45.657     2421.864     5784.984     2084.563        0.763        0.515       36.651       44.372        1.466      347.576       26.646      861.354
10/11/2014  15:30:00       14.678       11.237       41.339       60.584       55.493       41.522     3670.436     3079.492     1724.116        0.526        0.424       18.486       37.768        4.174      347.479       26.478      861.309
10/11/2014  15:31:00       76.592     -104.124       -9.506       38.615       41.621       33.170     1491.088     1732.311     1100.247        1.056        0.216      129.260       28.668        0.049      347.493       26.501      861.285
10/11/2014  15:32:00       54.867      -82.911        9.274       50.610       53.448       37.800     2561.371     2856.686     1428.841        0.841        0.342       99.422       30.901        0.097      347.659       26.788      861.287
10/11/2014  15:33:00       11.667      -71.582       -0.492       51.210       52.074       41.710     2622.419     2711.743     1739.755        0.617        0.354       72.527       23.774        0.107      347.761       26.965      861.276
10/11/2014  15:34:00       -0.229      -43.356       10.128       37.788       35.804       33.320     1427.945     1281.912     1110.224        0.290        0.191       43.356       21.026        0.235      348.082       27.517      861.285
10/11/2014  15:35:00      -15.201       -6.963       21.815       28.422       36.438       22.911      807.828     1327.745      524.919        0.171        0.133       16.720       21.551        1.661      348.025       27.420      861.276
10/11/2014  15:36:00        1.760      -31.355       14.953       43.746       45.876       24.181     1913.674     2104.631      584.734        0.291        0.230       31.405       26.823        0.730      348.001       27.380      861.280
10/11/2014  15:37:00      -37.341      -54.491       10.214       42.622       60.627       28.874     1816.656     3675.577      833.723        0.540        0.316       66.057       34.943        0.280      347.874       27.159      861.269
10/11/2014  15:38:00      -24.696      -30.375       22.796       49.225       56.222       29.406     2423.073     3160.947      864.734        0.425        0.322       39.148       27.480        0.493      347.985       27.351      861.236
10/11/2014  15:39:00      -42.441       62.126       -5.698       40.872       83.990       42.678     1670.548     7054.282     1821.404        0.812        0.527       75.239       49.901        0.440      347.521       26.551      861.199
10/11/2014  15:40:00       72.626       29.701      -11.300       21.107       29.374       18.657      445.501      862.826      348.100        0.397        0.083       78.465        9.824        0.016      347.432       26.400      861.178
10/11/2014  15:41:00       45.984       -1.370        4.397       18.688       14.828       15.414      349.240      219.859      237.583        0.147        0.040       46.005        8.463        0.034      347.516       26.541      861.153
10/11/2014  15:42:00       29.653      -97.608       -3.419       25.350       30.527       28.104      642.618      931.901      789.859        0.639        0.118      102.013       22.384        0.048      347.619       26.719      861.140
10/11/2014  15:43:00      -70.788     -158.236        0.133       61.341       88.925       40.116     3762.659     7907.675     1609.275        2.166        0.664      173.348       38.111        0.048      347.618       26.716      861.145
10/11/2014  15:44:00      -35.847      -45.617       11.223       51.728       85.917       32.082     2675.771     7381.686     1029.241        0.729        0.554       58.016       42.797        0.544      347.713       26.882      861.130
10/11/2014  15:45:00      -14.578      104.640      137.482       49.525       92.666       84.917     2452.691     8586.989     7210.919        2.415        0.913      105.650       68.811        0.424      347.859       27.133      861.073
10/11/2014  15:46:00      249.352      173.113       50.946       93.844       79.196       78.903     8806.716     6272.029     6225.680        5.802        1.065      303.553       57.306        0.036      347.604       26.688      861.060
10/11/2014  15:47:00       55.541       62.430       62.568       69.882       61.959       56.141     4883.473     3838.959     3151.815        1.138        0.594       83.560       41.928        0.252      347.729       26.909      861.108
10/11/2014  15:48:00        3.364       11.914       12.725       50.922       55.655       30.050     2593.099     3097.462      902.983        0.345        0.330       12.380       16.071        1.685      347.878       27.165      861.144
10/11/2014  15:49:00      -67.045      -39.595        1.258       52.309       34.050       33.500     2736.196     1159.413     1122.229        0.554        0.251       77.864       30.810        0.157      348.117       27.579      861.156
10/11/2014  15:50:00      -70.188      -16.928        3.892       44.270       62.074       28.058     1959.871     3853.148      787.234        0.591        0.330       72.201       31.006        0.184      348.003       27.382      861.166
10/11/2014  15:51:00      -23.468       97.897       -4.447       40.854       87.890       30.855     1669.014     7724.577      952.001        1.025        0.517      100.670       40.775        0.164      347.918       27.235      861.183
10/11/2014  15:52:00      -98.550      217.377      -32.679       43.336       59.680       29.630     1878.042     3561.722      877.953        3.217        0.316      238.673       22.183        0.009      347.646       26.764      861.193
10/11/2014  15:53:00      -85.225       65.609      -16.911       43.790       50.970       29.936     1917.552     2597.929      896.169        0.863        0.271      107.554       31.357        0.085      348.008       27.391      861.204
10/11/2014  15:54:00      -67.120       69.951      -10.798       53.795       58.976       33.135     2893.931     3478.140     1097.946        0.849        0.374       96.944       31.733        0.107      348.033       27.434      861.218
10/11/2014  15:55:00     -167.434        6.772      -26.306       73.109       70.237       49.667     5344.923     4933.207     2466.778        2.076        0.637      167.570       44.160        0.069      347.949       27.286      861.232
10/11/2014  15:56:00     -158.426      -48.119      -14.020      144.047      141.108       54.362    20749.453    19911.413     2955.218        3.561        2.181      165.572       35.892        0.047      348.103       27.552      861.205
10/11/2014  15:57:00     -262.038     -201.880       -3.903      120.898       84.498       64.063    14616.434     7139.859     4104.047        6.764        1.293      330.786       66.053        0.040      347.882       27.168      861.247
10/11/2014  15:58:00      -96.942       -0.681        4.168       78.420       73.903       38.005     6149.738     5461.614     1444.347        1.123        0.653       96.945       50.218        0.268      347.909       27.219      861.273
10/11/2014  15:59:00        7.255       42.457        5.701       36.505       37.624       27.861     1332.613     1415.566      776.213        0.271        0.176       43.072        9.065        0.044      347.991       27.362      861.269
10/11/2014  16:00:00      -14.574       11.360      -27.821       33.786       38.292       24.881     1141.481     1466.252      619.051        0.217        0.161       18.478       17.991        0.948      348.023       27.415      861.257
10/11/2014  16:01:00     -126.993     -103.525        4.239      133.912      105.251       57.673    17932.318    11077.808     3326.132        2.959        1.617      163.843       43.168        0.069      347.985       27.349      861.229
10/11/2014  16:02:00     -185.737     -104.465       20.741      160.473      115.683       84.338    25751.583    13382.446     7112.879        4.604        2.312      213.100       87.677        0.169      348.082       27.517      861.238
10/11/2014  16:03:00     -349.248     -141.284       -8.264      128.239      110.867       60.110    16445.134    12291.502     3613.170        8.717        1.617      376.743       62.683        0.028      347.938       27.265      861.289
10/11/2014  16:04:00     -223.902     -176.151        4.141      177.328      170.732       84.508    31445.081    29149.362     7141.540        7.445        3.387      284.888      103.062        0.131      347.991       27.358      861.272
10/11/2014  16:05:00     -273.345     -146.804       -0.940      131.082       99.956       61.684    17182.567     9991.253     3804.929        6.362        1.549      310.272       64.898        0.044      347.932       27.256      861.285
10/11/2014  16:06:00     -165.795     -167.499        4.860      119.637      104.198       61.122    14312.899    10857.327     3735.842        4.223        1.445      235.678       64.806        0.076      347.992       27.360      861.261
10/11/2014  16:07:00     -183.713     -139.090       -3.071      131.872       97.387       54.885    17390.220     9484.234     3012.338        4.149        1.494      230.427       56.342        0.060      347.991       27.360      861.249
10/11/2014  16:08:00     -116.910     -114.585        2.546       92.002       86.517       46.138     8464.385     7485.215     2128.751        2.244        0.904      163.700       51.679        0.100      348.010       27.393      861.245
10/11/2014  16:09:00     -185.307     -144.897        5.400      125.857       73.115       59.078    15839.948     5345.739     3490.173        4.002        1.234      235.231       59.502        0.064      348.006       27.384      861.255
10/11/2014  16:10:00     -158.218      -58.024       17.837      136.014       98.265       56.992    18499.889     9656.036     3248.079        3.006        1.570      168.522       63.609        0.142      348.027       27.421      861.247
10/11/2014  16:11:00     -181.533     -162.474        0.505      146.894      104.060       54.657    21577.923    10828.587     2987.370        4.737        1.770      243.623       64.868        0.071      347.934       27.258      861.262
10/11/2014  16:12:00     -150.125       -3.602       21.333      184.498      118.627       66.734    34039.385    14072.351     4453.386        3.778        2.628      150.168       85.687        0.326      348.093       27.534      861.267
10/11/2014  16:13:00     -160.913      -70.517       -9.208      128.232      118.819       60.361    16443.562    14118.041     3643.504        3.257        1.710      175.686       62.347        0.126      348.126       27.593      861.307
10/11/2014  16:14:00     -378.566        1.841      -33.797      151.390      100.352       70.467    22919.012    10070.525     4965.659        9.120        1.898      378.571       67.118        0.031      347.999       27.370      861.353
10/11/2014  16:15:00     -230.364      -56.414      -30.638      106.593       82.814       61.421    11361.995     6858.239     3772.514        3.959        1.100      237.171       59.638        0.063      348.060       27.476      861.381
10/11/2014  16:16:00     -237.727     -136.340       11.094      280.379      146.394       95.385    78612.629    21431.088     9098.213        9.217        5.457      274.049       92.150        0.113      347.908       27.215      861.322
10/11/2014  16:17:00      -39.252       43.421       -3.134       75.165       80.194       46.723     5649.776     6431.097     2183.062        0.885        0.713       58.532       39.504        0.456      348.084       27.521      861.389
10/11/2014  16:18:00     -226.513       53.538      -13.632      154.276      130.230       62.585    23801.080    16959.863     3916.895        4.951        2.234      232.754       62.681        0.073      348.021       27.412      861.378
10/11/2014  16:19:00     -227.635       35.176      -15.467      142.645       89.705       58.988    20347.520     8047.021     3479.540        4.258        1.594      230.337       67.496        0.086      348.010       27.391      861.387
10/11/2014  16:20:00     -169.035      112.444      -31.351      125.438      161.909       71.559    15734.607    26214.594     5120.758        4.463        2.353      203.018       76.932        0.144      347.857       27.127      861.361
10/11/2014  16:21:00     -125.556      232.235      -16.209       89.069      134.951       76.937     7933.299    18211.755     5919.361        5.101        1.603      264.003       67.423        0.065      347.846       27.109      861.325
10/11/2014  16:22:00     -113.257      110.006      -10.440       81.924      145.889       46.301     6711.475    21283.579     2143.776        2.758        1.507      157.888       41.201        0.068      347.953       27.295      861.317
10/11/2014  16:23:00     -144.939      227.809      -30.872      120.557      170.975       90.402    14533.905    29232.359     8172.564        6.289        2.597      270.008       86.135        0.102      347.729       26.906      861.308
10/11/2014  16:24:00     -186.737      153.049      -26.420      124.170      179.161       62.943    15418.136    32098.775     3961.793        5.523        2.574      241.444       57.631        0.057      347.868       27.146      861.282
10/11/2014  16:25:00     -282.727      155.893      -59.937      126.500      140.505       80.619    16002.134    19741.523     6499.378        7.503        2.112      322.858       60.471        0.035      347.826       27.072      861.267
10/11/2014  16:26:00     -221.357      174.396      -48.288      156.070      114.582       63.106    24357.916    13129.133     3982.381        6.160        2.073      281.803       65.368        0.054      347.821       27.064      861.271
10/11/2014  16:27:00     -243.570      139.667      -40.840      118.647      195.696       75.545    14077.121    38296.781     5707.097        6.928        2.904      280.773       73.046        0.068      347.830       27.079      861.260
10/11/2014  16:28:00     -349.071      122.346      -61.035      168.362      140.575       72.812    28345.905    19761.304     5301.553        9.697        2.670      369.890       71.939        0.038      347.751       26.943      861.298
10/11/2014  16:29:00     -336.545     -115.304      -14.466      242.917      118.268       77.415    59008.461    13987.240     5993.021       10.286        3.949      355.749      100.270        0.079      347.803       27.035      861.299
10/11/2014  16:30:00     -339.924     -112.243      -22.320      143.252      127.264       80.298    20521.049    16196.161     6447.707        8.590        2.158      357.976       81.850        0.052      347.705       26.863      861.284
10/11/2014  16:31:00     -336.916     -147.509      -26.824      147.292       95.150       64.060    21694.840     9053.592     4103.654        8.542        1.743      367.792       49.348        0.018      347.636       26.745      861.253
10/11/2014  16:32:00     -273.320      -60.097      -15.986      114.451       84.471       61.868    13099.056     7135.269     3827.655        5.131        1.203      279.849       65.982        0.056      347.608       26.696      861.237
10/11/2014  16:33:00     -211.436      -83.234       -7.568      105.137      110.317       55.701    11053.824    12169.853     3102.598        3.900        1.316      227.229       49.529        0.048      347.700       26.857      861.208
10/11/2014  16:34:00     -239.680      -13.874      -12.096      113.735       96.303       49.334    12935.606     9274.274     2433.822        4.121        1.232      240.081       54.360        0.051      347.758       26.957      861.200
10/11/2014  16:35:00     -248.269      134.917      -36.796      123.661      156.441       58.759    15292.151    24473.922     3452.592        6.220        2.161      282.559       68.486        0.059      347.691       26.839      861.220
10/11/2014  16:36:00     -246.620      -67.046      -30.689      101.075      129.491       67.303    10216.116    16768.008     4529.640        4.888        1.576      255.572       58.849        0.053      347.749       26.940      861.219
10/11/2014  16:37:00     -185.234      -28.952      -36.268      164.284      134.587       78.379    26989.250    18113.762     6143.330        4.385        2.562      187.483       39.500        0.044      347.780       26.994      861.218
10/11/2014  16:38:00     -195.529      103.098      -27.197      122.008      120.893       89.349    14886.029    14615.200     7983.332        4.354        1.874      221.045       67.580        0.093      347.755       26.951      861.218
10/11/2014  16:39:00     -133.763       73.274      -26.517       88.464      111.536       47.033     7825.864    12440.329     2212.144        2.322        1.124      152.517       33.255        0.048      347.739       26.925      861.242
10/11/2014  16:40:00     -192.525       70.534      -28.727      121.461       83.754       57.676    14752.694     7014.739     3326.565        3.398        1.255      205.039       43.528        0.045      347.782       26.998      861.213
10/11/2014  16:41:00      -89.088       52.018       -3.295       58.248       99.047       46.593     3392.823     9810.366     2170.945        1.301        0.769      103.162       29.461        0.082      347.838       27.096      861.212
10/11/2014  16:42:00     -195.354       53.762      -32.868      111.919      123.925       58.789    12525.851    15357.377     3456.101        3.673        1.567      202.617       58.008        0.082      347.780       26.996      861.195
10/11/2014  16:43:00      -76.526      208.297       -0.508       83.500      130.100       72.577     6972.300    16925.984     5267.417        3.920        1.458      221.909       67.772        0.093      347.646       26.765      861.186
10/11/2014  16:44:00     -204.479      236.255      -32.578      142.361      145.923       88.314    20266.700    21293.486     7799.382        7.402        2.468      312.454       81.907        0.069      347.643       26.757      861.196
10/11/2014  16:45:00     -258.115      360.940      -51.264      136.250      177.828       84.346    18563.948    31622.871     7114.276       12.841        2.865      443.735       77.413        0.030      347.597       26.676      861.175
10/11/2014  16:46:00     -163.757       91.159      -39.972       75.922      159.811       61.620     5764.127    25539.506     3797.049        3.591        1.755      187.420       47.298        0.064      347.743       26.930      861.184
10/11/2014  16:47:00     -188.507       36.992      -32.377      129.626      126.965       59.977    16802.929    16120.032     3597.238        3.723        1.826      192.102       52.727        0.075      347.720       26.891      861.194
10/11/2014  16:48:00     -135.210      106.880      -17.979      115.956      112.212       60.178    13445.822    12591.575     3621.413        2.984        1.483      172.351       52.601        0.093      347.691       26.842      861.219
10/11/2014  16:49:00     -236.534       76.947      -58.099      109.277      142.661       59.981    11941.377    20352.131     3597.740        5.056        1.795      248.735       59.534        0.057      347.675       26.812      861.224
10/11/2014  16:50:00      -89.421       -9.022       11.178      126.059       88.919       66.189    15890.762     7906.647     4381.032        1.819        1.409       89.875       66.497        0.547      347.712       26.880      861.219
10/11/2014  16:51:00     -242.587      -64.082      -11.460      155.656      137.202       65.099    24228.700    18824.257     4237.856        5.518        2.365      250.908       59.631        0.056      347.654       26.778      861.194
10/11/2014  16:52:00     -114.265       87.487       -3.848       93.256      120.333       70.213     8696.677    14480.116     4929.816        2.441        1.405      143.911       54.347        0.143      347.667       26.800      861.200
10/11/2014  16:53:00     -152.819       55.319      -11.072      116.756      111.898       61.802    13632.060    12521.064     3819.498        2.825        1.499      162.523       54.783        0.114      347.766       26.970      861.193
10/11/2014  16:54:00     -212.892      205.407      -64.014       98.287      114.577       53.313     9660.392    13127.871     2842.301        5.862        1.282      295.830       43.821        0.022      347.630       26.736      861.197
10/11/2014  16:55:00     -224.836       93.858      -31.383      160.009      109.069       81.730    25602.724    11896.090     6679.841        5.225        2.209      243.640       73.302        0.091      347.707       26.867      861.219
10/11/2014  16:56:00     -119.205       63.280      -19.194      111.008       81.191       51.622    12322.780     6591.940     2664.828        2.008        1.079      134.960       29.035        0.046      347.733       26.915      861.217
10/11/2014  16:57:00     -306.385       75.881      -40.791      108.673      154.962       65.667    11809.868    24013.197     4312.216        7.071        2.007      315.641       69.739        0.049      347.620       26.718      861.236
10/11/2014  16:58:00     -186.371       23.724      -29.839      101.227      114.316       65.518    10246.848    13068.251     4292.641        3.189        1.380      187.875       54.154        0.083      347.678       26.818      861.223
10/11/2014  16:59:00     -120.225       -8.255      -17.065      127.075      148.169       68.831    16148.033    21954.133     4737.728        2.882        2.142      120.508       46.184        0.147      347.659       26.786      861.227
10/11/2014  17:00:00     -264.212       67.652      -41.234      105.864      159.776       79.492    11207.231    25528.477     6319.023        5.956        2.153      272.736       55.787        0.042      347.569       26.629      861.221
10/11/2014  17:01:00     -189.276       12.505      -10.534      136.346       96.303       68.653    18590.141     9274.273     4713.241        3.433        1.629      189.688       72.814        0.147      347.540       26.579      861.207
10/11/2014  17:02:00     -146.006       28.547      -10.791      108.192       88.129       57.967    11705.507     7766.734     3360.131        2.254        1.142      148.771       50.028        0.113      347.619       26.717      861.189
10/11/2014  17:03:00     -116.629       27.142      -13.953       92.741       77.564       63.299     8600.850     6016.130     4006.804        1.658        0.931      119.745       49.132        0.168      347.665       26.798      861.185
10/11/2014  17:04:00     -141.755       47.032      -13.794       69.531       82.819       40.535     4834.495     6859.016     1643.056        1.791        0.667      149.353       30.265        0.041      347.673       26.811      861.180
10/11/2014  17:05:00     -212.880       51.849      -31.487      157.219      117.632       67.208    24717.962    13837.214     4516.913        4.603        2.154      219.103       69.299        0.100      347.665       26.797      861.199
10/11/2014  17:06:00     -357.761       69.826      -61.321      154.150      135.916       81.832    23762.177    18473.028     6696.495        9.277        2.447      364.512       77.332        0.045      347.518       26.540      861.232
10/11/2014  17:07:00     -215.614      -12.697      -24.296       85.736       97.814       62.441     7350.674     9567.625     3898.905        3.403        1.041      215.988       18.840        0.008      347.562       26.618      861.247
10/11/2014  17:08:00     -256.165      103.823      -49.291      158.841      143.310       69.952    25230.358    20537.856     4893.309        6.474        2.533      276.405       84.769        0.094      347.490       26.493      861.272
10/11/2014  17:09:00     -179.339       61.841        0.731      121.818      112.710       71.727    14839.606    12703.603     5144.813        3.433        1.634      189.702       74.366        0.154      347.557       26.610      861.250
10/11/2014  17:10:00     -227.047       51.228      -29.021       93.525      100.626       63.333     8746.981    10125.498     4011.084        3.895        1.144      232.755       54.884        0.056      347.535       26.571      861.257
10/11/2014  17:11:00     -239.459       73.358      -31.637      160.775      136.535       87.237    25848.520    18641.887     7610.304        5.790        2.605      250.444       70.214        0.079      347.506       26.521      861.266
10/11/2014  17:12:00     -296.662       70.395      -52.554      125.502      184.515       78.937    15750.841    34045.667     6231.003        7.587        2.801      304.899       59.916        0.039      347.482       26.478      861.254
10/11/2014  17:13:00     -250.237       69.760       -7.054      196.377      183.392       94.423    38564.114    33632.541     8915.644        7.431        4.056      259.778      105.029        0.163      347.409       26.354      861.265
10/11/2014  17:14:00     -258.023       52.762      -51.804      144.909      116.097       63.527    20998.584    13478.532     4035.698        5.527        1.926      263.362       55.542        0.044      347.372       26.291      861.280
10/11/2014  17:15:00     -245.492      -87.399      -17.046      138.535      120.337       65.879    19191.961    14480.928     4339.992        5.310        1.901      260.586       62.214        0.057      347.394       26.327      861.271
10/11/2014  17:16:00     -102.000       43.830       10.017      116.279      103.943       65.657    13520.715    10804.151     4310.809        2.053        1.432      111.018       49.264        0.197      347.403       26.347      861.294
10/11/2014  17:17:00     -116.529      126.402      -15.241      122.825      102.691       67.792    15085.889    10545.482     4595.783        3.000        1.511      171.920       75.511        0.193      347.392       26.326      861.339
10/11/2014  17:18:00     -134.857      142.112      -26.425      102.817      120.810       66.272    10571.330    14595.159     4391.959        3.431        1.478      195.913       61.568        0.099      347.432       26.395      861.360
10/11/2014  17:19:00     -194.855      167.234      -58.815       99.253      107.724       52.877     9851.164    11604.557     2795.951        4.682        1.213      256.779       35.300        0.019      347.410       26.355      861.388
10/11/2014  17:20:00     -245.134      113.907      -53.244      122.934      123.062       67.054    15112.823    15144.323     4496.236        5.532        1.738      270.306       71.421        0.070      347.428       26.387      861.396
10/11/2014  17:21:00     -170.379      211.348      -36.110      100.135      135.945       68.899    10026.919    18481.054     4747.111        5.412        1.663      271.472       70.767        0.068      347.357       26.265      861.407
10/11/2014  17:22:00     -292.122      326.288      -66.755      132.381      124.052       75.594    17524.626    15388.898     5714.430       11.744        1.931      437.948       73.182        0.028      347.305       26.173      861.414
10/11/2014  17:23:00     -156.508      281.780      -31.368      100.743      126.285       58.855    10149.075    15948.012     3463.877        6.721        1.478      322.327       56.447        0.031      347.303       26.171      861.402
10/11/2014  17:24:00     -136.837      265.047      -29.674       87.664      144.982       60.352     7684.922    21019.854     3642.341        6.110        1.617      298.286       53.801        0.033      347.312       26.185      861.394
10/11/2014  17:25:00     -188.453      233.928      -51.497       66.254       84.108       54.112     4389.527     7074.142     2928.098        5.364        0.720      300.394       37.390        0.015      347.350       26.252      861.402
10/11/2014  17:26:00     -194.343      141.591      -39.539      103.218       79.215       52.150    10654.002     6275.052     2719.672        3.951        0.982      240.453       53.137        0.049      347.320       26.200      861.405
10/11/2014  17:27:00     -177.300      112.782      -23.755      131.419      145.115       65.292    17271.003    21058.382     4263.085        4.365        2.130      210.131       52.205        0.062      347.315       26.193      861.409
10/11/2014  17:28:00     -133.554      135.223      -19.836       66.545      108.071       47.483     4428.259    11679.282     2254.652        2.744        0.918      190.058       41.403        0.047      347.356       26.264      861.447
10/11/2014  17:29:00     -159.487      211.685      -45.038       98.479      105.190       51.289     9698.188    11064.964     2630.517        4.783        1.170      265.041       47.153        0.032      347.287       26.143      861.473
10/11/2014  17:30:00     -218.399      222.511      -46.157      106.822      152.571       66.765    11411.016    23277.861     4457.608        6.924        1.957      311.784       77.793        0.062      347.317       26.192      861.505
10/11/2014  17:31:00     -110.507      115.460       -2.520       78.383      106.330       55.001     6143.857    11306.173     3025.094        2.301        1.024      159.821       54.201        0.115      347.318       26.198      861.491
10/11/2014  17:32:00     -169.839      114.325      -31.678       77.154       74.527       43.434     5952.773     5554.346     1886.488        2.815        0.670      204.733       33.617        0.027      347.343       26.239      861.477
10/11/2014  17:33:00      -87.404      146.493      -15.997       59.640      116.775       52.199     3556.871    13636.462     2724.720        2.463        0.996      170.586       38.152        0.050      347.239       26.062      861.444
10/11/2014  17:34:00      -88.684      132.530      -14.115       49.658       83.335       48.760     2465.925     6944.799     2377.577        1.871        0.589      159.465       31.391        0.039      347.283       26.138      861.416
10/11/2014  17:35:00     -201.427       70.919      -38.294       85.475       83.739       50.071     7305.955     7012.287     2507.055        3.194        0.841      213.547       44.895        0.044      347.329       26.216      861.398
10/11/2014  17:36:00     -178.062       12.213      -34.060       89.981      101.584       60.376     8096.514    10319.304     3645.253        2.753        1.103      178.480       50.673        0.081      347.313       26.188      861.390
10/11/2014  17:37:00     -267.085       15.516      -28.817      130.164      146.953       81.277    16942.591    21595.047     6605.972        5.877        2.257      267.536       69.329        0.067      347.209       26.009      861.405
10/11/2014  17:38:00     -146.185       17.682       -7.758      109.494      127.614       56.308    11988.855    16285.255     3170.608        2.659        1.572      147.251       43.130        0.086      347.203       25.999      861.411
10/11/2014  17:39:00     -129.254       -9.941       -9.297       81.543       71.077       40.906     6649.208     5051.974     1673.330        1.513        0.669      129.635       36.659        0.080      347.208       26.011      861.410
10/11/2014  17:40:00      -84.171      -25.811        9.872       72.365       59.675       35.785     5236.699     3561.094     1280.585        0.896        0.504       88.039       32.235        0.134      347.130       25.876      861.400
10/11/2014  17:41:00     -219.260      -82.107      -16.854       75.838       80.188       45.288     5751.411     6430.103     2050.982        3.466        0.712      234.130       32.798        0.020      347.017       25.678      861.408
10/11/2014  17:42:00     -227.453      -21.921       -8.476      109.140       94.045       50.931    11911.518     8844.429     2593.988        3.781        1.167      228.507       59.753        0.068      347.030       25.703      861.417
10/11/2014  17:43:00     -239.822      -35.718      -14.685      110.836       69.565       43.770    12284.544     4839.229     1915.822        3.902        0.952      242.468       44.856        0.034      347.023       25.690      861.429
10/11/2014  17:44:00     -202.063        9.804      -20.092      111.941      110.013       49.959    12530.788    12102.823     2495.933        3.422        1.356      202.301       43.724        0.047      347.000       25.650      861.461
10/11/2014  17:45:00     -140.839       10.906        2.757      114.718       85.384       46.118    13160.298     7290.410     2126.887        2.127        1.129      141.260       54.389        0.148      346.948       25.561      861.481
10/11/2014  17:46:00     -206.380      -62.658      -21.917      115.084       84.071       45.790    13244.312     7067.934     2096.701        3.470        1.120      215.682       42.490        0.039      346.950       25.563      861.512
10/11/2014  17:47:00     -213.715      -30.241      -22.429      133.832       78.658       46.465    17911.016     6187.015     2158.950        3.667        1.313      215.844       51.199        0.056      346.963       25.586      861.526
10/11/2014  17:48:00     -247.270      -63.355      -19.045       79.913       73.436       38.940     6386.100     5392.908     1516.354        3.940        0.665      255.257       30.933        0.015      346.917       25.504      861.527
10/11/2014  17:49:00     -297.594      -14.179      -27.265      116.099      103.096       51.605    13478.942    10628.687     2663.076        5.813        1.339      297.931       59.255        0.040      346.941       25.548      861.517
10/11/2014  17:50:00     -351.016      -67.446      -11.987      135.825      138.874       63.836    18448.367    19285.915     4075.012        8.485        2.090      357.437       62.669        0.031      346.929       25.528      861.467
10/11/2014  17:51:00     -170.025       -8.625        2.304      152.103      104.809       63.370    23135.238    10984.885     4015.805        3.356        1.907      170.244       80.212        0.222      346.938       25.544      861.441
10/11/2014  17:52:00     -245.877      -46.739       -9.084      108.837       83.209       50.509    11845.542     6923.717     2551.172        4.202        1.066      250.280       47.363        0.036      346.918       25.508      861.442
10/11/2014  17:53:00     -238.985      -24.743      -11.596       84.957       66.176       47.625     7217.735     4379.265     2268.121        3.586        0.693      240.263       41.852        0.030      346.907       25.488      861.439
10/11/2014  17:54:00     -151.996      -47.952       -3.990       63.872       75.332       44.950     4079.580     5674.893     2020.485        1.859        0.589      159.381       38.105        0.057      346.900       25.478      861.434
10/11/2014  17:55:00     -185.154      -80.152      -11.582       66.538       59.492       41.000     4427.343     3539.339     1681.008        2.524        0.482      201.759       35.330        0.031      346.848       25.388      861.436
10/11/2014  17:56:00     -212.575        7.722      -12.888      110.719       59.020       39.294    12258.801     3483.403     1543.981        3.135        0.864      212.715       39.326        0.034      346.859       25.407      861.434
10/11/2014  17:57:00     -343.192      -68.139       -0.738      215.536      157.641       62.598    46455.914    24850.735     3918.535        9.881        3.761      349.891       83.113        0.056      346.826       25.350      861.449
10/11/2014  17:58:00     -285.923     -125.490       -4.975      171.324      132.004       85.877    29351.923    17424.998     7374.930        7.583        2.708      312.250       99.846        0.102      346.808       25.318      861.436
10/11/2014  17:59:00     -227.989      -69.793        7.325      131.968       86.302       47.800    17415.446     7448.059     2284.796        4.202        1.357      238.432       54.362        0.052      346.747       25.214      861.474
10/11/2014  18:00:00     -185.421     -100.412       -5.552      103.924       97.041       48.091    10800.126     9416.943     2312.705        3.351        1.126      210.863       35.240        0.028      346.702       25.136      861.466
10/11/2014  18:01:00     -389.978      -84.894      -18.879      132.762       94.987       63.619    17625.689     9022.602     4047.347        9.517        1.535      399.112       63.735        0.026      346.741       25.202      861.470
10/11/2014  18:02:00     -323.245      -85.150      -15.522      197.616      111.797       61.872    39052.232    12498.575     3828.099        8.367        2.769      334.272       72.813        0.047      346.759       25.235      861.480
10/11/2014  18:03:00     -284.735      -16.846      -21.858      151.656       83.185       56.210    22999.563     6919.689     3159.580        5.745        1.654      285.233       71.080        0.062      346.749       25.217      861.484
10/11/2014  18:04:00     -336.026      -53.602      -23.492      109.938      135.481       62.779    12086.349    18355.197     3941.166        7.535        1.719      340.274       43.856        0.017      346.678       25.095      861.496
10/11/2014  18:05:00     -454.339      -95.517      -22.849      144.273      136.525       76.636    20814.733    18639.188     5873.110       13.069        2.266      464.271       72.511        0.024      346.677       25.093      861.515
10/11/2014  18:06:00     -373.497     -140.871       -3.643      194.203      154.985       88.479    37714.830    24020.487     7828.604       11.445        3.478      399.180       86.945        0.047      346.667       25.077      861.525
10/11/2014  18:07:00     -320.567      -88.155       -9.273      160.426      139.390       76.885    25736.597    19429.655     5911.319        8.084        2.554      332.468       80.383        0.058      346.610       24.977      861.553
10/11/2014  18:08:00     -278.677      -65.810       -5.016      124.967       87.971       58.396    15616.664     7738.854     3410.111        5.439        1.338      286.342       63.514        0.049      346.563       24.898      861.579
10/11/2014  18:09:00     -303.824      -28.100      -16.722      105.078       98.433       60.199    11041.443     9689.073     3623.863        5.886        1.218      305.120       60.019        0.039      346.587       24.938      861.574
10/11/2014  18:10:00     -456.763       39.071      -36.694      101.912      103.684       64.387    10385.996    10750.460     4145.696       11.839        1.264      458.431       51.201        0.012      346.570       24.910      861.572
10/11/2014  18:11:00     -289.345      -41.127      -19.003      176.517      122.706       54.089    31158.255    15056.804     2925.570        6.745        2.457      292.253       51.241        0.031      346.493       24.777      861.575
10/11/2014  18:12:00     -358.400      -64.787      -24.370      144.122       94.494       57.969    20771.037     8929.026     3360.416        8.315        1.653      364.208       61.671        0.029      346.500       24.790      861.572
10/11/2014  18:13:00     -389.719      -26.207      -23.723      138.610       90.745       60.353    19212.720     8234.568     3642.452        9.210        1.554      390.599       67.214        0.030      346.467       24.732      861.582
10/11/2014  18:14:00     -383.562      -69.264      -25.773      147.243      116.798       61.732    21680.382    13641.669     3810.881        9.585        1.957      389.766       69.812        0.032      346.489       24.771      861.601
10/11/2014  18:15:00     -406.971     -112.643      -12.995      155.768       97.985       68.279    24263.789     9601.033     4662.062       10.850        1.926      422.272       71.318        0.029      346.429       24.668      861.615
10/11/2014  18:16:00     -285.354      -69.701       -8.919      146.538       80.271       51.907    21473.382     6443.512     2694.377        5.848        1.531      293.743       63.339        0.046      346.380       24.582      861.641
10/11/2014  18:17:00     -270.428      -22.565      -12.468      107.083       93.271       61.679    11466.836     8699.571     3804.249        4.888        1.199      271.368       51.655        0.036      346.352       24.534      861.649
10/11/2014  18:18:00     -415.296      -53.618      -17.473      132.827      108.810       63.914    17642.954    11839.551     4084.948       10.460        1.678      418.743       67.277        0.026      346.388       24.596      861.635
10/11/2014  18:19:00     -296.286      -51.888      -25.553       99.764       98.456       55.078     9952.915     9693.497     3033.598        5.690        1.134      300.795       47.053        0.024      346.318       24.476      861.642
10/11/2014  18:20:00     -289.261      -30.068      -13.464      107.943      108.280       47.788    11651.724    11724.597     2283.648        5.520        1.283      290.820       47.977        0.027      346.282       24.413      861.624
10/11/2014  18:21:00     -276.401      -72.170      -10.232      115.661       89.179       53.868    13377.370     7952.863     2901.802        5.297        1.212      285.668       51.642        0.033      346.272       24.395      861.602
10/11/2014  18:22:00     -304.750      -79.107      -13.720      119.633      110.183       64.354    14312.064    12140.322     4141.484        6.495        1.530      314.850       58.036        0.034      346.252       24.361      861.583
10/11/2014  18:23:00     -261.561      -46.375       -6.961      159.525       81.859       56.899    25448.186     6700.902     3237.543        5.299        1.769      265.640       62.745        0.056      346.244       24.349      861.586
10/11/2014  18:24:00     -362.116      -50.896      -21.696      142.341      105.095       61.253    20260.977    11045.001     3751.910        8.462        1.753      365.675       55.134        0.023      346.242       24.346      861.567
10/11/2014  18:25:00     -276.920      -56.715       -6.884      115.107       89.219       56.444    13249.622     7960.094     3185.930        5.217        1.220      282.668       62.259        0.049      346.175       24.231      861.563
10/11/2014  18:26:00     -263.473     -118.038      -20.554      130.776      138.631       66.454    17102.234    19218.610     4416.160        6.225        2.037      288.706       55.790        0.037      346.206       24.282      861.542
10/11/2014  18:27:00     -194.843      -61.783       -8.194      118.789      117.134       51.831    14110.864    13720.323     2686.459        3.618        1.526      204.404       56.894        0.077      346.140       24.171      861.526
10/11/2014  18:28:00     -192.246      -33.829        0.453       92.910       74.836       54.416     8632.255     5600.373     2961.068        2.765        0.860      195.200       50.495        0.067      346.095       24.092      861.553
10/11/2014  18:29:00     -244.663      -55.235      -10.465      106.949       91.679       57.716    11438.066     8404.998     3331.169        4.309        1.159      250.821       57.177        0.052      346.100       24.101      861.598
10/11/2014  18:30:00     -268.944      -61.975       -5.663      119.501       85.975       49.747    14280.446     7391.698     2474.779        5.017        1.207      275.992       61.290        0.049      346.089       24.082      861.641
10/11/2014  18:31:00     -300.749      -62.473      -16.470       96.660       78.729       46.988     9343.219     6198.217     2207.882        5.618        0.887      307.169       29.667        0.009      346.076       24.060      861.698
10/11/2014  18:32:00     -371.067     -113.987      -11.732      129.143      102.160       58.808    16678.021    10436.640     3458.361        9.069        1.529      388.181       59.053        0.023      346.067       24.044      861.715
10/11/2014  18:33:00     -325.195      -32.899      -19.864      121.178      102.110       60.747    14684.059    10426.384     3690.247        6.801        1.440      326.855       58.721        0.032      346.008       23.944      861.736
10/11/2014  18:34:00     -218.658      -69.827       -2.502      122.929       76.964       50.592    15111.430     5923.503     2559.546        3.814        1.180      229.537       62.486        0.074      345.928       23.807      861.745
10/11/2014  18:35:00     -174.897      -83.103        9.872      137.274      106.555       70.041    18844.242    11353.959     4905.714        3.634        1.755      193.637       75.097        0.150      345.929       23.808      861.731
10/11/2014  18:36:00     -182.566      -28.287        6.476      134.684       87.762       52.396    18139.806     7702.207     2745.353        3.138        1.429      184.745       62.917        0.116      345.892       23.745      861.758
10/11/2014  18:37:00     -116.424      -53.050       16.942      120.253      102.456       52.066    14460.895    10497.269     2710.909        2.216        1.383      127.941       63.340        0.245      345.894       23.750      861.794
10/11/2014  18:38:00     -196.938      -91.345       -7.090      123.232       98.296       54.897    15186.077     9662.097     3013.657        3.752        1.393      217.091       60.708        0.078      345.891       23.742      861.845
10/11/2014  18:39:00     -200.052     -116.179       -4.777       97.411       69.619       48.427     9488.809     4846.769     2345.171        3.511        0.834      231.341       45.504        0.039      345.842       23.659      861.874
10/11/2014  18:40:00     -208.184      -99.661      -10.178       99.095       90.057       48.307     9819.854     8110.327     2333.575        3.682        1.013      230.809       55.758        0.058      345.844       23.663      861.876
10/11/2014  18:41:00     -147.473      -68.010       -0.957      130.629       88.500       55.130    17063.865     7832.317     3039.289        2.715        1.397      162.400       61.542        0.144      345.800       23.587      861.863
10/11/2014  18:42:00     -188.516     -114.638        4.800      124.326       83.408       60.882    15456.911     6956.883     3706.662        3.741        1.306      220.636       68.269        0.096      345.754       23.507      861.842
10/11/2014  18:43:00     -259.137     -111.852       -9.661      115.922       59.333       41.883    13437.815     3520.382     1754.223        4.923        0.936      282.246       49.025        0.030      345.771       23.536      861.815
10/11/2014  18:44:00     -151.603     -108.800        5.211      103.147       98.756       53.118    10639.326     9752.715     2821.527        2.903        1.161      186.604       52.091        0.078      345.682       23.385      861.800
10/11/2014  18:45:00     -172.253      -76.824        4.230       72.739      106.501       48.305     5290.967    11342.561     2333.387        2.728        0.948      188.608       49.848        0.070      345.671       23.366      861.820
10/11/2014  18:46:00     -203.446      -32.312       -7.952       86.627       59.123       43.484     7504.296     3495.558     1890.889        2.769        0.645      205.996       37.418        0.033      345.667       23.359      861.857
10/11/2014  18:47:00     -208.044      -20.613        0.754       97.289       85.555       50.300     9465.064     7319.723     2530.123        3.151        0.966      209.063       54.699        0.068      345.589       23.223      861.887
10/11/2014  18:48:00     -244.375      -40.199      -13.318      110.153       73.172       52.150    12133.586     5354.164     2719.647        4.086        1.010      247.659       50.954        0.042      345.601       23.243      861.912
10/11/2014  18:49:00     -150.189      -76.090       -6.319       81.853       84.218       39.966     6699.930     7092.604     1597.270        2.189        0.769      168.364       33.537        0.040      345.537       23.135      861.928
10/11/2014  18:50:00     -187.158     -105.264        0.688      113.028       99.842       51.013    12775.441     9968.481     2602.361        3.572        1.267      214.729       46.621        0.047      345.568       23.187      861.937
10/11/2014  18:51:00     -262.391      -89.060      -10.617      132.090       92.683       56.474    17447.745     8590.103     3189.275        5.306        1.461      277.093       67.896        0.060      345.577       23.204      861.954
10/11/2014  18:52:00     -216.424      -61.878       -5.790      105.835       96.181       53.972    11201.052     9250.804     2912.997        3.703        1.168      225.096       50.245        0.050      345.547       23.152      861.968
10/11/2014  18:53:00     -161.540      -49.668       10.577      136.406       99.792       58.887    18606.710     9958.475     3467.672        3.035        1.602      169.003       75.263        0.198      345.500       23.072      861.971
10/11/2014  18:54:00     -257.974      -67.285        0.988      164.112      104.354       57.966    26932.806    10889.803     3360.111        5.612        2.059      266.604       70.440        0.070      345.559       23.172      861.966
10/11/2014  18:55:00     -206.923     -100.829       -4.016      118.288       87.685       54.349    13992.028     7688.736     2953.794        3.881        1.232      230.182       59.639        0.067      345.536       23.133      861.968
10/11/2014  18:56:00     -217.877      -95.366      -12.571      138.567       93.938       43.986    19200.913     8824.307     1934.790        4.334        1.498      237.834       47.400        0.040      345.521       23.107      861.964
10/11/2014  18:57:00     -226.909     -105.861       -8.837      117.615      106.888       54.342    13833.194    11424.968     2953.094        4.549        1.411      250.388       63.512        0.064      345.504       23.078      861.974
10/11/2014  18:58:00     -246.661     -100.390      -17.750      103.530       86.777       53.385    10718.370     7530.321     2849.934        4.616        1.055      266.308       49.150        0.034      345.514       23.096      861.975
10/11/2014  18:59:00     -268.622      -78.316      -12.297      160.299       99.099       63.802    25695.749     9820.701     4070.757        5.901        1.979      279.805       71.640        0.066      345.499       23.067      861.981
10/11/2014  19:00:00     -180.405      -99.372        3.668       96.232       97.877       53.050     9260.505     9579.993     2814.354        3.204        1.083      205.963       49.621        0.058      345.453       22.990      861.994
10/11/2014  19:01:00     -272.120      -88.978      -14.272      117.845       81.492       49.975    13887.548     6640.876     2497.482        5.259        1.151      286.298       55.723        0.038      345.454       22.992      862.008
10/11/2014  19:02:00     -259.184      -80.825      -10.504      102.526       90.270       53.027    10511.517     8148.586     2811.820        4.764        1.074      271.494       45.858        0.029      345.461       23.004      862.022
10/11/2014  19:03:00     -179.747      -72.708       -1.406      137.662       83.600       52.158    18950.920     6989.004     2720.462        3.312        1.433      193.895       62.390        0.104      345.419       22.932      862.031
10/11/2014  19:04:00     -130.006      -10.876        0.321      106.839       83.243       60.294    11414.546     6929.373     3635.367        1.950        1.099      130.460       59.215        0.206      345.344       22.804      862.043
10/11/2014  19:05:00     -339.156      -76.294       -9.623      101.277       92.360       62.761    10256.950     8530.360     3938.928        7.183        1.136      347.632       59.878        0.030      345.424       22.939      862.062
10/11/2014  19:06:00     -249.940     -121.873        1.796      145.041      102.169       69.007    21037.011    10438.512     4761.976        5.678        1.812      278.070       76.661        0.076      345.371       22.850      862.063
10/11/2014  19:07:00     -223.317      -58.970       -7.728       98.897       75.455       42.156     9780.709     5693.476     1777.135        3.533        0.863      230.972       44.606        0.037      345.332       22.784      862.065
10/11/2014  19:08:00     -180.658      -24.374       -2.181       92.357       51.748       48.715     8529.746     2677.883     2373.128        2.341        0.679      182.295       49.947        0.075      345.257       22.654      862.072
10/11/2014  19:09:00     -213.740      -47.411       -4.704       88.247       88.440       49.638     7787.489     7821.677     2463.961        3.301        0.904      218.936       47.029        0.046      345.314       22.753      862.078
10/11/2014  19:10:00     -225.762      -59.504      -14.449      109.048       71.048       53.567    11891.427     5047.789     2869.397        3.726        0.990      233.472       51.879        0.049      345.269       22.675      862.077
10/11/2014  19:11:00     -191.644      -43.724       -1.510       91.406       64.111       41.910     8355.014     4110.188     1756.453        2.643        0.711      196.568       41.454        0.044      345.218       22.588      862.086
10/11/2014  19:12:00     -196.449      -42.955      -15.881       85.214      115.286       45.328     7261.462    13290.857     2054.592        3.164        1.130      201.090       49.947        0.062      345.218       22.587      862.096
10/11/2014  19:13:00     -224.287      -55.227       -6.757      117.850      102.447       63.821    13888.665    10495.436     4073.130        4.092        1.423      230.986       63.861        0.076      345.217       22.585      862.089
10/11/2014  19:14:00     -187.235      -76.575        0.709       99.664       68.157       45.222     9932.967     4645.314     2045.010        2.877        0.831      202.289       46.878        0.054      345.119       22.420      862.096
10/11/2014  19:15:00     -160.340      -59.119      -11.682      109.055       84.533       53.089    11892.900     7145.833     2818.439        2.560        1.093      170.892       52.659        0.095      345.112       22.408      862.091
10/11/2014  19:16:00     -140.003      -94.481        2.280      111.598       70.978       53.366    12454.045     5037.909     2847.976        2.443        1.017      168.900       47.628        0.080      345.065       22.328      862.079
10/11/2014  19:17:00     -230.128      -68.333        0.008      101.211       91.536       59.273    10243.702     8378.915     3513.296        3.988        1.107      240.059       57.533        0.057      345.081       22.354      862.074
10/11/2014  19:18:00     -159.023     -101.901       -2.231      104.415      105.841       54.318    10902.550    11202.289     2950.494        3.036        1.253      188.871       52.111        0.076      345.054       22.309      862.077
10/11/2014  19:19:00     -236.123      -87.660        3.641      150.985       86.122       59.098    22796.541     7417.050     3492.569        4.857        1.685      251.870       64.110        0.065      345.059       22.317      862.090
10/11/2014  19:20:00     -212.766      -68.570        4.128      132.743       87.523       53.255    17620.811     7660.234     2836.083        3.905        1.406      223.543       60.660        0.074      345.067       22.331      862.113
10/11/2014  19:21:00     -207.497     -126.157        3.944      125.941       94.496       57.476    15861.236     8929.402     3303.470        4.354        1.405      242.839       65.496        0.073      345.031       22.268      862.130
10/11/2014  19:22:00     -210.115      -96.387       -9.919      113.915       68.596       43.956    12976.660     4705.472     1932.113        3.657        0.981      231.168       47.264        0.042      344.978       22.178      862.132
10/11/2014  19:23:00     -138.634      -81.561       12.815       80.281       87.229       52.659     6445.068     7608.968     2773.001        2.143        0.841      160.847       50.587        0.099      344.920       22.078      862.138
10/11/2014  19:24:00     -159.999     -104.207       -0.518       89.002       62.124       56.596     7921.278     3859.376     3203.125        2.572        0.749      190.942       51.516        0.073      344.933       22.101      862.134
10/11/2014  19:25:00     -166.833      -71.270       -2.874      110.135       82.176       48.256    12129.702     6752.852     2328.623        2.706        1.061      181.418       53.246        0.086      344.900       22.045      862.148
10/11/2014  19:26:00     -136.600      -33.084       11.591       94.565       50.524       46.090     8942.510     2552.678     2124.301        1.675        0.681      140.549       50.419        0.129      344.863       21.981      862.156
10/11/2014  19:27:00     -159.053      -44.046        0.696      102.738       65.320       45.073    10555.101     4266.693     2031.561        2.204        0.843      165.039       47.332        0.082      344.842       21.946      862.171
10/11/2014  19:28:00     -178.605      -56.678      -11.453       88.410       63.849       45.721     7816.353     4076.739     2090.386        2.461        0.699      187.382       45.918        0.060      344.834       21.930      862.163
10/11/2014  19:29:00     -202.673     -139.185      -10.390       94.658       91.268       48.160     8960.058     8329.852     2319.356        4.008        0.980      245.864       44.447        0.033      344.833       21.930      862.176
10/11/2014  19:30:00     -222.631      -98.789       -7.987      105.690       90.850       59.040    11170.389     8253.761     3485.681        4.114        1.145      243.565       55.932        0.053      344.846       21.953      862.179
10/11/2014  19:31:00     -212.269     -134.472        0.037      108.547       81.005       61.218    11782.530     6561.877     3747.625        4.261        1.105      251.278       61.004        0.059      344.803       21.877      862.189
10/11/2014  19:32:00     -212.806      -73.298       -0.459      116.215       94.761       57.269    13505.941     8979.617     3279.743        3.821        1.288      225.075       68.968        0.094      344.792       21.858      862.216
10/11/2014  19:33:00     -256.592     -146.397      -12.764      104.370      128.360       53.419    10893.062    16476.391     2853.542        5.882        1.511      295.417       54.199        0.034      344.788       21.852      862.236
10/11/2014  19:34:00     -227.768     -129.721      -16.199       81.505       89.817       45.261     6643.045     8067.025     2048.589        4.286        0.838      262.118       29.185        0.012      344.762       21.805      862.261
10/11/2014  19:35:00     -230.195     -144.013       -7.345       99.105       96.431       55.881     9821.735     9298.853     3122.715        4.801        1.112      271.532       54.907        0.041      344.752       21.790      862.254
10/11/2014  19:36:00     -317.998     -128.621       -6.828      137.728      118.022       61.962    18969.090    13929.166     3839.281        7.722        1.837      343.025       61.153        0.032      344.771       21.823      862.255
10/11/2014  19:37:00     -295.494     -159.415      -29.227      110.686       91.910       49.462    12251.460     8447.379     2446.443        6.836        1.157      335.752       33.957        0.010      344.766       21.815      862.243
10/11/2014  19:38:00     -234.716     -109.641       -0.230      125.421       82.789       55.647    15730.491     6854.016     3096.612        4.639        1.284      259.061       56.200        0.047      344.743       21.775      862.288
10/11/2014  19:39:00     -237.757      -91.710        2.985      158.243      105.646       56.079    25040.781    11161.042     3144.879        5.214        1.967      254.831       70.666        0.077      344.815       21.897      862.302
10/11/2014  19:40:00     -286.501      -88.796      -10.806      129.691       70.039       55.387    16819.635     4905.519     3067.697        5.743        1.240      299.946       61.198        0.042      344.790       21.854      862.344
10/11/2014  19:41:00     -253.219     -137.750       -6.119       99.708       94.356       55.712     9941.646     8903.045     3103.840        5.254        1.097      288.263       51.252        0.032      344.788       21.851      862.347
10/11/2014  19:42:00     -207.146      -51.782       -7.312      120.151       86.776       55.154    14436.341     7530.099     3042.004        3.532        1.250      213.520       54.021        0.064      344.764       21.812      862.374
10/11/2014  19:43:00     -216.662      -99.491      -14.791      136.021       95.168       50.636    18501.697     9057.043     2564.031        4.359        1.506      238.413       57.449        0.058      344.816       21.901      862.377
10/11/2014  19:44:00     -169.009      -78.792       -2.239      117.425       80.327       51.619    13788.554     6452.365     2664.570        2.884        1.145      186.474       57.557        0.095      344.730       21.753      862.389
10/11/2014  19:45:00     -141.073      -37.058        1.749      148.328       80.712       48.801    22001.263     6514.365     2381.560        2.608        1.545      145.859       58.015        0.158      344.775       21.832      862.400
10/11/2014  19:46:00     -251.164      -85.643       -7.913      122.203      101.162       69.384    14933.654    10233.712     4814.149        5.023        1.499      265.364       56.488        0.045      344.840       21.941      862.405
10/11/2014  19:47:00     -235.364      -58.879       -7.898      108.307       92.459       62.355    11730.449     8548.638     3888.115        4.154        1.208      242.617       55.823        0.053      344.799       21.870      862.408
10/11/2014  19:48:00     -175.655      -53.881       -1.940       87.922       93.661       43.080     7730.206     8772.304     1855.913        2.606        0.918      183.733       42.368        0.053      344.862       21.978      862.421
10/11/2014  19:49:00     -211.452     -106.049        0.052       75.275       71.339       46.853     5666.313     5089.261     2195.208        3.445        0.648      236.555       38.810        0.027      344.801       21.873      862.434
10/11/2014  19:50:00     -181.642      -29.203       -2.763      108.305       66.841       45.791    11730.060     4467.693     2096.855        2.607        0.915      183.975       50.892        0.077      344.718       21.732      862.468
10/11/2014  19:51:00     -244.807       -5.921       -3.589      129.097       82.998       59.421    16666.004     6888.747     3530.836        4.353        1.354      244.878       56.062        0.052      344.798       21.869      862.475
10/11/2014  19:52:00     -180.287      -58.234        5.707      135.587      102.495       59.022    18383.864    10505.321     3483.600        3.414        1.619      189.459       70.322        0.138      344.832       21.930      862.496
10/11/2014  19:53:00     -187.117      -72.388        4.863       90.347      106.744       50.556     8162.524    11394.277     2555.881        3.119        1.106      200.631       53.548        0.071      344.801       21.874      862.515
10/11/2014  19:54:00     -274.568     -103.741      -19.579      130.550       92.138       47.024    17043.353     8489.366     2211.225        5.713        1.387      293.513       55.902        0.036      344.866       21.985      862.539
10/11/2014  19:55:00     -234.442      -13.375      -17.509       96.989       78.427       55.835     9406.831     6150.808     3117.582        3.706        0.934      234.823       47.312        0.041      344.819       21.905      862.563
10/11/2014  19:56:00     -126.689      -70.894       -9.373      127.659       73.907       51.104    16296.840     5462.228     2611.627        2.276        1.219      145.176       58.287        0.161      344.782       21.845      862.579
10/11/2014  19:57:00     -235.926      -46.695      -16.973      123.607       82.648       55.300    15278.751     6830.705     3058.096        4.164        1.258      240.502       61.783        0.066      344.759       21.802      862.601
10/11/2014  19:58:00     -217.225      -72.275      -11.556       98.571       82.582       42.810     9716.332     6819.781     1832.684        3.545        0.918      228.933       50.104        0.048      344.731       21.754      862.623
10/11/2014  19:59:00     -190.247      -33.801      -14.769       52.642       44.811       32.377     2771.180     2008.060     1048.252        2.169        0.291      193.226       31.111        0.026      344.690       21.684      862.637
10/11/2014  20:00:00     -181.250      -21.218       -4.293      102.160       63.360       45.121    10436.580     4014.467     2035.907        2.490        0.824      182.487       50.406        0.076      344.695       21.695      862.666
10/11/2014  20:01:00     -210.157      -23.406      -15.551       99.335       62.019       38.809     9867.367     3846.348     1506.168        3.009        0.761      211.456       41.792        0.039      344.714       21.726      862.705
10/11/2014  20:02:00     -223.216       29.366      -17.301       55.370       44.115       36.092     3065.837     1946.113     1302.651        2.865        0.316      225.139       26.394        0.014      344.678       21.664      862.731
10/11/2014  20:03:00     -213.585      -15.479      -22.566       68.930       65.251       39.891     4751.320     4257.737     1591.277        2.848        0.530      214.145       40.657        0.036      344.679       21.667      862.768
10/11/2014  20:04:00     -157.124       -5.542       -7.266       77.922       75.942       35.814     6071.807     5767.198     1282.621        1.894        0.656      157.222       39.542        0.063      344.701       21.704      862.781
10/11/2014  20:05:00      -65.386       42.240       -9.037       24.053       46.426       17.135      578.526     2155.331      293.606        0.458        0.151       77.842       13.807        0.031      344.637       21.597      862.794
10/11/2014  20:06:00      -24.425       71.585       -6.271       26.683       43.306       23.869      711.968     1875.387      569.717        0.446        0.158       75.637       22.493        0.088      344.613       21.556      862.828
10/11/2014  20:07:00      -49.485       38.222      -10.864       54.197       53.005       22.542     2937.266     2809.493      508.155        0.514        0.313       62.527       25.904        0.172      344.698       21.702      862.845
10/11/2014  20:08:00      -54.835       28.531       -2.016       45.688       66.927       27.197     2087.393     4479.227      739.686        0.556        0.365       61.814       26.685        0.186      344.689       21.686      862.863
10/11/2014  20:09:00     -113.244       77.521      -26.486       68.800       49.839       35.012     4733.389     2483.888     1225.826        1.399        0.422      137.236       36.258        0.070      344.754       21.796      862.878
10/11/2014  20:10:00      -80.290       15.599       -7.977       42.187       47.466       25.311     1779.776     2253.025      640.665        0.571        0.234       81.791       25.459        0.097      344.727       21.752      862.877
10/11/2014  20:11:00     -102.108       86.308      -22.518       38.907       45.151       30.161     1513.767     2038.612      909.692        1.142        0.223      133.698       23.065        0.030      344.778       21.838      862.900
10/11/2014  20:12:00      -58.747       25.377       -7.949       24.344       41.311       21.097      592.635     1706.624      445.068        0.345        0.137       63.994       19.160        0.090      344.621       21.569      862.912
10/11/2014  20:13:00      -47.006       55.684       -4.947       34.720       71.475       22.628     1205.469     5108.629      512.025        0.608        0.341       72.872       14.801        0.041      344.602       21.537      862.920
10/11/2014  20:14:00      -74.716       41.898      -13.893       38.919       45.347       32.970     1514.660     2056.362     1087.010        0.609        0.233       85.662       23.148        0.073      344.628       21.582      862.925
10/11/2014  20:15:00      -60.008       74.758      -10.338       40.404       49.669       28.387     1632.523     2466.969      805.833        0.710        0.245       95.863       20.850        0.047      344.606       21.545      862.924
10/11/2014  20:16:00      -59.278      -25.553       -3.182       43.332       41.820       22.399     1877.696     1748.916      501.695        0.415        0.206       64.551       23.928        0.137      344.569       21.480      862.931
10/11/2014  20:17:00      -36.186       91.147       -7.144       29.168       54.723       21.612      850.780     2994.574      467.096        0.699        0.216       98.067       21.989        0.050      344.589       21.515      862.942
10/11/2014  20:18:00      -43.268      132.471      -24.009       36.855       32.450       19.407     1358.274     1052.989      376.623        1.139        0.139      139.358       13.244        0.009      344.679       21.668      862.966
10/11/2014  20:19:00      -64.257      132.263      -11.478       47.958      126.552       34.402     2299.994    16015.352     1183.527        2.062        0.975      147.045       45.282        0.095      344.499       21.360      862.993
10/11/2014  20:20:00     -205.149      222.417      -43.069      101.775      105.869       64.198    10358.148    11208.307     4121.332        5.954        1.284      302.581       69.913        0.053      344.580       21.496      863.012
10/11/2014  20:21:00     -133.504      172.919      -23.192       91.861       88.101       56.353     8438.450     7761.730     3175.639        3.382        0.969      218.459       56.509        0.067      344.478       21.323      863.036
10/11/2014  20:22:00     -158.139      207.177      -38.191       69.387       89.886       46.031     4814.492     8079.559     2118.875        4.220        0.751      260.634       41.529        0.025      344.473       21.313      863.073
10/11/2014  20:23:00     -166.542      174.454      -32.348       70.451       60.129       46.940     4963.392     3615.512     2203.351        3.500        0.539      241.186       28.751        0.014      344.439       21.254      863.083
10/11/2014  20:24:00     -122.664      195.160      -21.131       92.031       95.629       50.271     8469.758     9144.855     2527.145        3.686        1.007      230.508       57.775        0.063      344.395       21.181      863.077
10/11/2014  20:25:00     -148.317      163.864      -21.553       77.921       86.060       43.369     6071.702     7406.326     1880.909        3.233        0.768      221.019       40.818        0.034      344.410       21.206      863.088
10/11/2014  20:26:00     -230.168      204.965      -44.428       89.253       91.529       59.063     7966.169     8377.480     3488.479        5.839        0.992      308.201       48.085        0.024      344.478       21.320      863.100
10/11/2014  20:27:00     -240.816      184.272      -42.841      108.700       98.984       60.660    11815.764     9797.892     3679.690        5.953        1.265      303.230       52.242        0.030      344.469       21.304      863.111
10/11/2014  20:28:00     -146.914      209.227      -30.410       91.457       81.769       57.518     8364.386     6686.173     3308.363        4.232        0.918      255.656       62.652        0.060      344.374       21.144      863.145
10/11/2014  20:29:00     -142.269      155.087      -21.742       82.606       91.362       51.978     6823.787     8347.015     2701.761        3.132        0.894      210.458       58.475        0.077      344.329       21.068      863.168
10/11/2014  20:30:00     -138.558      227.980      -30.953       84.479      109.126       55.407     7136.653    11908.581     3069.956        4.712        1.106      266.783       62.120        0.054      344.309       21.034      863.172
10/11/2014  20:31:00     -206.011      219.079      -41.470       92.441       99.772       54.691     8545.402     9954.540     2991.153        5.682        1.075      300.726       51.830        0.030      344.352       21.106      863.177
10/11/2014  20:32:00     -251.688      195.091      -51.467       88.766      102.460       49.190     7879.491    10497.983     2419.669        6.242        1.040      318.445       24.059        0.006      344.369       21.135      863.165
10/11/2014  20:33:00     -207.663      246.730      -51.193      115.945      130.925       66.218    13443.304    17141.312     4384.801        7.079        1.748      322.489       71.875        0.050      344.342       21.089      863.172
10/11/2014  20:34:00     -159.991      147.317      -35.843       78.358       92.246       57.189     6140.047     8509.304     3270.601        3.325        0.896      217.484       49.114        0.051      344.314       21.043      863.174
10/11/2014  20:35:00     -141.961      182.832      -39.825       55.318      124.847       41.869     3060.096    15586.804     1753.042        3.778        1.020      231.475       53.029        0.052      344.295       21.011      863.201
10/11/2014  20:36:00     -178.270      300.731      -51.137       84.224       90.592       50.389     7093.733     8206.943     2539.050        7.133        0.892      349.598       50.931        0.021      344.257       20.943      863.247
10/11/2014  20:37:00     -158.087      179.416      -41.345       59.833      101.580       39.421     3579.930    10318.447     1553.998        3.717        0.773      239.127       41.861        0.031      344.197       20.841      863.275
10/11/2014  20:38:00     -222.845      183.842      -47.348      112.048       83.032       56.723    12554.719     6894.315     3217.449        5.418        1.133      288.891       59.852        0.043      344.127       20.723      863.290
10/11/2014  20:39:00     -192.357      179.145      -32.385       96.614       94.522       58.458     9334.242     8934.476     3417.344        4.591        1.084      262.858       45.450        0.030      344.131       20.727      863.286
10/11/2014  20:40:00     -186.790      179.656      -47.498       67.282       89.470       39.977     4526.879     8004.794     1598.176        4.177        0.706      259.166       36.996        0.020      344.143       20.749      863.311
10/11/2014  20:41:00     -160.017      117.312      -26.862       66.648       62.588       41.611     4441.951     3917.217     1731.513        2.509        0.505      198.412       33.902        0.029      344.099       20.676      863.339
10/11/2014  20:42:00     -151.662      119.173      -22.846       93.114       74.177       43.534     8670.191     5502.246     1895.184        2.689        0.803      192.882       46.173        0.057      344.025       20.547      863.363
10/11/2014  20:43:00     -207.806      132.918       -7.411      144.109       87.090       75.766    20767.515     7584.646     5740.498        4.749        1.705      246.679       71.279        0.083      344.042       20.575      863.371
10/11/2014  20:44:00     -194.843      190.641      -45.973       86.236       92.114       48.719     7436.575     8484.910     2373.578        4.736        0.915      272.594       43.901        0.026      344.023       20.544      863.395
10/11/2014  20:45:00     -190.578      232.187      -42.505      108.600       85.542       64.241    11793.926     7317.392     4126.844        5.763        1.162      300.384       65.031        0.047      344.020       20.539      863.411
10/11/2014  20:46:00     -199.527      225.625      -41.963       73.916       95.074       59.619     5463.552     9039.078     3554.436        5.526        0.903      301.194       58.672        0.038      343.996       20.499      863.425
10/11/2014  20:47:00     -154.001      181.141      -34.783       82.320      107.960       53.547     6776.594    11655.376     2867.290        3.952        1.065      237.757       51.447        0.047      343.964       20.443      863.429
10/11/2014  20:48:00     -230.370      397.105      -63.548       96.737      123.237       70.067     9358.100    15187.461     4909.436       12.212        1.473      459.089       60.514        0.017      343.989       20.486      863.457
10/11/2014  20:49:00     -236.983      277.520      -46.501      120.058      111.233       69.919    14414.035    12372.800     4888.703        8.350        1.584      364.937       69.263        0.036      343.983       20.475      863.466
10/11/2014  20:50:00     -196.508      253.249      -60.696       72.701       95.952       42.751     5285.419     9206.712     1827.653        6.137        0.816      320.547       35.042        0.012      343.979       20.469      863.491
10/11/2014  20:51:00     -214.167      224.834      -50.159      105.857       91.007       60.124    11205.765     8282.355     3614.859        6.101        1.155      310.512       60.175        0.038      343.941       20.405      863.524
10/11/2014  20:52:00     -227.362      314.516      -64.254       75.398      103.757       57.120     5684.893    10765.530     3262.688        8.722        0.986      388.090       44.892        0.013      343.948       20.416      863.550
10/11/2014  20:53:00     -205.084      199.494      -39.567      114.927       94.846       51.116    13208.237     8995.719     2612.799        5.412        1.241      286.108       50.352        0.031      343.878       20.296      863.581
10/11/2014  20:54:00     -218.849      251.475      -47.086      122.865      143.885       70.356    15095.789    20702.859     4949.904        7.704        2.037      333.369       80.852        0.059      343.897       20.329      863.599
10/11/2014  20:55:00     -203.015      255.370      -52.222       88.531       98.970       57.221     7837.788     9795.153     3274.291        6.503        1.045      326.235       54.874        0.028      343.865       20.273      863.626
10/11/2014  20:56:00     -202.459      272.969      -54.361       97.937      136.508       55.621     9591.735    18634.519     3093.708        7.488        1.566      339.856       47.445        0.019      343.842       20.234      863.632
10/11/2014  20:57:00     -168.295      228.727      -39.270       72.433       75.718       52.606     5246.602     5733.148     2767.392        4.796        0.687      283.971       36.692        0.017      343.787       20.142      863.643
10/11/2014  20:58:00     -133.059      178.626      -28.758       87.223      143.767       54.740     7607.878    20669.044     2996.445        4.085        1.564      222.737       60.115        0.073      343.767       20.109      863.648
10/11/2014  20:59:00     -222.297      262.647      -43.960       98.702      113.489       73.407     9742.046    12879.795     5388.622        7.417        1.401      344.092       70.187        0.042      343.790       20.146      863.659
10/11/2014  21:00:00     -192.412      205.205      -36.551      103.072      116.189       59.955    10623.938    13499.880     3594.611        5.409        1.386      281.304       59.923        0.045      343.760       20.094      863.665
10/11/2014  21:01:00     -195.496      234.815      -46.257       71.749      110.173       54.600     5147.908    12138.077     2981.201        5.788        1.013      305.544       38.878        0.016      343.749       20.076      863.678
10/11/2014  21:02:00     -210.624      258.560      -67.995      104.961      131.249       63.140    11016.845    17226.182     3986.623        7.403        1.611      333.490       73.428        0.048      343.743       20.066      863.692
10/11/2014  21:03:00     -168.872      170.503      -34.080       73.830       83.677       44.032     5450.807     7001.826     1938.842        3.657        0.720      239.977       43.151        0.032      343.689       19.972      863.701
10/11/2014  21:04:00     -236.562      288.410      -59.504       67.478      108.623       54.306     4553.254    11798.976     2949.176        8.099        0.965      373.017       42.241        0.013      343.699       19.989      863.720
10/11/2014  21:05:00     -213.625      243.753      -53.304       92.265       91.455       55.637     8512.774     8363.974     3095.500        6.393        0.999      324.116       47.474        0.021      343.662       19.928      863.733
10/11/2014  21:06:00     -182.251      164.686      -36.351      103.870       83.012       54.168    10789.028     6891.015     2934.194        4.113        1.031      245.636       50.665        0.043      343.671       19.943      863.753
10/11/2014  21:07:00     -184.825      244.282      -51.369       82.518       76.883       47.701     6809.271     5910.939     2275.421        5.573        0.750      306.324       49.392        0.026      343.643       19.895      863.786
10/11/2014  21:08:00     -226.203      250.377      -60.804       80.794      107.900       49.140     6527.643    11642.372     2414.730        6.907        1.029      337.426       37.095        0.012      343.648       19.904      863.808
10/11/2014  21:09:00     -198.248      231.456      -40.072      102.236      109.860       63.213    10452.210    12069.166     3995.844        6.049        1.326      304.753       65.562        0.046      343.637       19.884      863.839
10/11/2014  21:10:00     -208.568      183.088      -31.631      100.879      102.890       62.564    10176.541    10586.340     3914.272        5.135        1.234      277.528       47.577        0.029      343.606       19.832      863.857
10/11/2014  21:11:00     -184.238      233.226      -25.209      113.150      100.686       69.361    12802.845    10137.670     4810.950        5.836        1.388      297.217       61.873        0.043      343.576       19.781      863.866
10/11/2014  21:12:00     -224.946      197.916      -23.770      115.749      114.621       62.925    13397.786    13137.896     3959.613        6.041        1.525      299.619       58.381        0.038      343.603       19.827      863.852
10/11/2014  21:13:00     -206.939      205.498      -45.657      146.593      130.173       60.636    21489.471    16945.062     3676.722        6.462        2.106      291.639       65.998        0.051      343.634       19.880      863.835
10/11/2014  21:14:00     -284.834      363.281      -70.224      118.753      162.304       75.390    14102.205    26342.478     5683.621       13.207        2.306      461.632       75.306        0.027      343.722       20.029      863.827
10/11/2014  21:15:00     -195.227      285.779      -39.763      104.509      146.981       72.290    10922.192    21603.538     5225.916        7.955        1.888      346.097       67.759        0.038      343.690       19.975      863.835
10/11/2014  21:16:00     -281.164      402.567      -76.631       85.906      145.796       73.401     7379.893    21256.388     5387.747       14.050        1.701      491.033       52.499        0.011      343.783       20.135      863.832
10/11/2014  21:17:00     -243.651      240.550      -52.666       76.690      143.975       61.672     5881.304    20728.767     3803.458        7.520        1.521      342.389       57.658        0.028      343.758       20.091      863.826
10/11/2014  21:18:00     -197.605      250.395      -42.442      109.663      144.867       81.496    12025.942    20986.465     6641.575        7.159        1.983      318.976       77.978        0.060      343.697       19.987      863.846
10/11/2014  21:19:00     -203.615      176.463      -37.583      120.936       82.237       58.767    14625.613     6762.883     3453.575        4.942        1.242      269.441       53.981        0.040      343.694       19.982      863.855
10/11/2014  21:20:00     -170.767      111.886      -14.611      115.872       90.258       60.801    13426.408     8146.513     3696.774        3.358        1.263      204.156       48.895        0.057      343.659       19.923      863.865
10/11/2014  21:21:00     -144.309       83.803      -23.719       93.322       97.304       54.031     8709.040     9468.055     2919.324        2.475        1.055      166.877       64.635        0.150      343.614       19.848      863.866
10/11/2014  21:22:00     -238.593      223.101      -54.988      121.365      144.513       74.327    14729.530    20883.880     5524.435        7.542        2.057      326.650       80.659        0.061      343.639       19.888      863.872
10/11/2014  21:23:00     -138.270       91.438      -11.421       83.883       88.240       50.961     7036.339     7786.296     2597.033        2.251        0.871      165.769       44.815        0.073      343.536       19.716      863.865
10/11/2014  21:24:00     -102.176       71.318      -20.568       64.943       92.414       40.051     4217.539     8540.255     1604.076        1.515        0.718      124.605       16.360        0.017      343.464       19.594      863.849
10/11/2014  21:25:00     -106.717      121.082      -14.688       70.076       63.763       53.300     4910.641     4065.685     2840.850        1.904        0.591      161.399       53.854        0.111      343.400       19.481      863.833
10/11/2014  21:26:00     -130.756       -8.164      -16.344       77.907       52.917       28.884     6069.531     2800.176      834.268        1.357        0.485      131.010       26.625        0.041      343.288       19.292      863.818
10/11/2014  21:27:00     -192.635      -47.158      -10.236       87.853       73.535       50.912     7718.089     5407.447     2592.073        2.757        0.786      198.324       39.628        0.040      343.164       19.080      863.817
10/11/2014  21:28:00     -229.541      -93.251      -16.672       85.565       74.740       44.226     7321.433     5586.114     1955.961        3.826        0.743      247.760       37.088        0.022      343.108       18.983      863.807
10/11/2014  21:29:00     -248.428     -121.482      -18.588       89.342       86.695       48.583     7981.948     7515.963     2360.297        4.734        0.893      276.540       34.385        0.015      343.068       18.915      863.798
10/11/2014  21:30:00     -237.619     -103.214      -11.073       76.144       62.339       44.778     5797.929     3886.189     2005.105        3.946        0.584      259.067       36.582        0.020      343.035       18.859      863.774
10/11/2014  21:31:00     -215.184     -100.119      -15.525       78.263       61.616       45.859     6125.158     3796.526     2103.064        3.429        0.601      237.335       22.758        0.009      343.054       18.892      863.747
10/11/2014  21:32:00     -268.053      -67.676      -17.883       65.028       83.996       38.023     4228.653     7055.317     1445.748        4.474        0.636      276.464       19.159        0.005      343.061       18.904      863.759
10/11/2014  21:33:00     -309.079      -19.260      -26.025      108.518       79.894       54.417    11776.184     6383.002     2961.224        5.885        1.056      309.679       54.522        0.031      343.109       18.985      863.754
10/11/2014  21:34:00     -240.106      -65.529      -15.315       96.573       86.971       52.109     9326.290     7563.908     2715.378        4.089        0.980      248.887       53.131        0.046      343.109       18.986      863.744
10/11/2014  21:35:00     -290.364      -19.520      -23.026      149.726       93.936       54.188    22417.910     8823.945     2936.343        5.969        1.709      291.019       53.675        0.034      343.130       19.022      863.748
10/11/2014  21:36:00     -303.541      -96.933       -5.310      135.892      125.220       59.304    18466.684    15679.928     3517.016        6.961        1.883      318.643       55.377        0.030      343.147       19.051      863.726
10/11/2014  21:37:00     -293.893      -69.632       -1.217      132.616      102.109       61.586    17587.051    10426.327     3792.860        6.151        1.590      302.030       66.015        0.048      343.110       18.987      863.726
10/11/2014  21:38:00     -270.372      -39.057       -7.087      104.175       96.388       53.622    10852.435     9290.666     2875.276        4.884        1.151      273.179       56.336        0.043      343.116       18.997      863.716
10/11/2014  21:39:00     -201.531       -4.293      -11.543       78.889       70.295       44.880     6223.547     4941.371     2014.249        2.697        0.659      201.577       36.637        0.033      343.064       18.909      863.720
10/11/2014  21:40:00     -190.086      -43.880        9.987      154.191      106.849       59.902    23774.739    11416.811     3588.237        3.846        1.939      195.085       73.043        0.140      343.031       18.855      863.738
10/11/2014  21:41:00     -266.517      -50.698      -10.190      119.319       82.434       53.845    14236.910     6795.355     2899.255        4.881        1.197      271.296       60.238        0.049      343.030       18.852      863.748
10/11/2014  21:42:00     -218.031      -38.374        2.741       99.491       93.400       47.596     9898.540     8723.476     2265.427        3.495        1.044      221.383       48.275        0.048      343.010       18.819      863.756
10/11/2014  21:43:00     -285.264      -56.487      -35.595      114.700      131.706       65.079    13156.077    17346.559     4235.297        6.028        1.737      290.803       62.136        0.046      343.051       18.886      863.765
10/11/2014  21:44:00     -259.013      -48.045       -7.774      153.850       88.490       52.378    23669.846     7830.529     2743.480        5.184        1.712      263.431       50.266        0.036      342.994       18.790      863.776
10/11/2014  21:45:00     -301.350     -144.971      -15.439      142.476      114.074       64.115    20299.449    13012.924     4110.767        7.474        1.871      334.407       58.353        0.030      343.046       18.878      863.786
10/11/2014  21:46:00     -200.819      -43.645      -18.098      127.666       89.826       63.578    16298.641     8068.775     4042.127        3.548        1.420      205.507       61.325        0.089      343.017       18.831      863.797
10/11/2014  21:47:00     -418.795       45.611      -30.159      149.150      146.014       72.779    22245.630    21319.993     5296.759       11.361        2.443      421.271       65.062        0.024      343.089       18.952      863.804
10/11/2014  21:48:00     -254.802      -52.561      -15.395      164.704      116.609       74.262    27127.375    13597.769     5514.828        5.707        2.312      260.166       73.056        0.079      343.083       18.941      863.783
10/11/2014  21:49:00     -276.604     -117.174       -7.755      126.099      112.249       66.080    15901.052    12599.930     4366.621        6.158        1.643      300.399       65.214        0.047      343.078       18.934      863.797
10/11/2014  21:50:00     -282.539      -54.683       -3.044      156.567      102.512       66.723    24513.307    10508.738     4451.944        6.114        1.974      287.782       73.730        0.066      343.052       18.889      863.790
10/11/2014  21:51:00     -239.104     -131.307       -2.560      117.542       90.299       59.979    13816.238     8153.974     3597.444        4.999        1.278      272.786       53.364        0.038      343.004       18.808      863.793
10/11/2014  21:52:00     -302.496      -32.414       -3.164      182.776      128.168       67.755    33407.142    16426.961     4590.730        7.349        2.721      304.227       79.413        0.068      343.048       18.882      863.790
10/11/2014  21:53:00     -278.073      -26.616      -27.016      139.042       90.262       57.629    19332.588     8147.163     3321.051        5.478        1.540      279.344       55.068        0.039      343.058       18.900      863.801
10/11/2014  21:54:00     -296.807     -108.513        8.668      138.897      139.040       69.083    19292.464    19332.051     4772.392        7.166        2.170      316.022       70.589        0.050      343.040       18.870      863.806
10/11/2014  21:55:00     -220.321      -89.108       13.025      152.127      104.183       66.134    23142.561    10854.059     4373.714        4.750        1.919      237.659       70.676        0.088      343.049       18.885      863.806
10/11/2014  21:56:00     -304.640      -37.337      -15.481      134.975      115.148       64.507    18218.179    13258.970     4161.175        6.503        1.782      306.920       70.344        0.053      343.041       18.871      863.811
10/11/2014  21:57:00     -266.280      -84.846       -8.105      162.185      145.500       73.845    26303.897    21170.321     5453.119        6.554        2.646      279.471       76.227        0.074      343.091       18.956      863.820
10/11/2014  21:58:00     -264.476      -20.861      -11.377      182.331      146.186       69.449    33244.533    21370.209     4823.227        6.497        2.972      265.297       76.344        0.083      343.019       18.833      863.821
10/11/2014  21:59:00     -232.766      -57.262       -7.550      104.984      101.830       53.255    11021.704    10369.276     2836.131        4.087        1.211      239.706       67.883        0.080      343.014       18.825      863.829
10/11/2014  22:00:00     -339.832      -21.235      -41.157      184.889      101.356       73.706    34183.845    10273.025     5432.536        8.375        2.494      340.495       81.400        0.057      343.100       18.971      863.826
10/11/2014  22:01:00     -326.210      -35.557      -21.598      213.493      123.442       63.953    45579.425    15237.912     4090.030        8.651        3.245      328.142       82.017        0.062      343.048       18.881      863.807
10/11/2014  22:02:00     -269.107      -60.754      -14.458      109.914      106.721       56.410    12081.073    11389.281     3182.071        5.148        1.333      275.879       53.382        0.037      343.096       18.963      863.819
10/11/2014  22:03:00     -269.072      -54.428       -8.406      155.555       82.485       64.427    24197.507     6803.774     4150.871        5.529        1.758      274.522       73.793        0.072      343.031       18.852      863.836
10/11/2014  22:04:00     -324.499      -69.991      -11.983      154.933      108.495       68.676    24004.354    11771.258     4716.393        7.541        2.025      331.962       72.417        0.048      343.123       19.009      863.854
10/11/2014  22:05:00     -339.461      -11.991      -20.702      124.799      121.040       69.053    15574.822    14650.797     4768.323        7.539        1.750      339.672       65.800        0.038      343.119       19.002      863.894
10/11/2014  22:06:00     -266.576      -93.727       -2.194      144.714      115.778       60.112    20942.265    13404.495     3613.505        5.890        1.898      282.573       59.170        0.044      343.057       18.896      863.916
10/11/2014  22:07:00     -451.022      -31.613      -40.926      123.578      127.558       63.180    15271.575    16271.076     3991.679       12.081        1.777      452.128       65.079        0.021      343.110       18.988      863.937
10/11/2014  22:08:00     -352.044      -98.951      -27.390      126.917      147.246       61.892    16107.998    21681.415     3830.586        8.804        2.081      365.686       60.413        0.027      343.129       19.021      863.958
10/11/2014  22:09:00     -406.504      -65.492      -22.575      155.188      131.641       65.561    24083.431    17329.255     4298.230       10.787        2.286      411.746       71.439        0.030      343.165       19.081      863.984
10/11/2014  22:10:00     -451.250      -45.981      -38.171      125.186      121.459       66.260    15671.549    14752.265     4390.409       12.100        1.741      453.587       61.589        0.018      343.168       19.086      864.013
10/11/2014  22:11:00     -314.326      -64.854      -17.432      195.159      121.855       82.192    38086.911    14848.648     6755.551        8.149        2.985      320.947       91.995        0.082      343.119       19.003      864.001
10/11/2014  22:12:00     -357.981      -44.025      -29.846      164.341      114.061       68.070    27007.929    13009.994     4633.514        8.781        2.233      360.678       78.766        0.048      343.072       18.921      864.025
10/11/2014  22:13:00     -467.741       21.108      -24.877      183.314      151.843       73.037    33603.956    23056.217     5334.376       14.091        3.100      468.217       77.652        0.028      343.042       18.873      864.034
10/11/2014  22:14:00     -468.201      -67.727      -30.490      158.635      124.001       72.975    25164.995    15376.288     5325.280       13.529        2.293      473.074       75.597        0.026      343.000       18.802      864.006
10/11/2014  22:15:00     -303.643     -112.081      -34.513      122.517       89.303       56.994    15010.413     7974.997     3248.327        6.609        1.312      323.668       51.233        0.025      342.948       18.712      864.000
10/11/2014  22:16:00     -322.890      -87.461      -27.548      148.633      112.572       63.769    22091.905    12672.381     4066.503        7.574        1.942      334.526       54.897        0.027      342.906       18.639      863.996
10/11/2014  22:17:00     -258.698      -45.890      -41.318      131.233       84.705       62.888    17222.102     7175.019     3954.876        4.954        1.418      262.736       48.082        0.033      342.905       18.637      863.947
10/11/2014  22:18:00     -161.896       51.300      -15.123      143.844      132.471       61.419    20691.176    17548.641     3772.317        3.553        2.101      169.830       40.637        0.057      342.888       18.609      863.932
10/11/2014  22:19:00      -82.532       54.670      -10.202      102.425      154.033       57.167    10490.783    23726.269     3268.089        2.369        1.874       98.997       33.913        0.117      342.839       18.528      863.953
10/11/2014  22:20:00     -171.712      215.552      -26.814      150.350      130.340       81.935    22605.113    16988.591     6713.325        6.148        2.315      275.587       75.550        0.075      342.879       18.594      863.964
10/11/2014  22:21:00     -240.308      368.728      -39.050      177.060      238.706      102.497    31350.291    56980.445    10505.672       14.702        4.942      440.123      114.147        0.067      342.906       18.641      864.003
10/11/2014  22:22:00     -238.085      348.614      -58.018      137.869      182.990       96.239    19007.760    33485.357     9261.983       12.166        3.088      422.156       93.004        0.049      342.887       18.608      864.011
10/11/2014  22:23:00     -340.605      473.579      -95.080      156.640      179.589      107.118    24536.077    32252.292    11474.233       20.878        3.413      583.343       91.275        0.024      342.886       18.606      864.034
10/11/2014  22:24:00     -294.786      353.607      -63.198      171.957      176.332       94.594    29569.210    31092.981     8947.980       14.276        3.481      460.366      109.390        0.056      342.848       18.543      864.043
10/11/2014  22:25:00     -333.256      368.651      -51.055      232.380      279.461      126.223    54000.288    78098.203    15932.302       19.878        7.402      496.954      162.625        0.107      342.807       18.473      864.069
10/11/2014  22:26:00     -268.490      478.542      -63.078      135.901      202.618      106.708    18469.205    41054.049    11386.642       18.798        3.545      548.716      101.154        0.034      342.756       18.387      864.081
10/11/2014  22:27:00     -291.019      386.977      -54.466      159.137      219.719      109.884    25324.562    48276.640    12074.527       16.153        4.284      484.193      111.718        0.053      342.750       18.375      864.081
10/11/2014  22:28:00     -383.660      460.540     -102.869      162.359      175.568       93.631    26360.564    30824.278     8766.814       21.790        3.298      599.410       95.271        0.025      342.714       18.315      864.054
10/11/2014  22:29:00     -221.838      401.631      -30.663      160.287      237.047      107.550    25691.847    56191.107    11567.024       15.244        4.672      458.824      104.474        0.052      342.679       18.255      863.996
10/11/2014  22:30:00     -387.949      489.761      -83.468      196.302      192.537      107.932    38534.606    37070.673    11649.307       24.228        4.363      624.796      120.059        0.037      342.664       18.229      864.036
10/11/2014  22:31:00     -321.201      530.783      -82.701      185.277      219.662      106.146    34327.393    48251.600    11266.889       24.278        4.692      620.403      114.038        0.034      342.636       18.181      864.083
10/11/2014  22:32:00     -305.822      332.292      -55.685      149.235      176.148       89.151    22271.035    31027.974     7947.834       13.414        3.062      451.602       92.133        0.042      342.614       18.143      864.120
10/11/2014  22:33:00     -253.525      402.397      -67.528      166.095      244.879       95.841    27587.575    59965.665     9185.436       16.373        4.837      475.603      120.165        0.064      342.604       18.126      864.085
10/11/2014  22:34:00     -246.742      319.903      -36.138      190.283      212.943      116.363    36207.489    45344.874    13540.461       12.979        4.755      404.004      124.735        0.095      342.572       18.073      864.113
10/11/2014  22:35:00     -240.027      369.008      -35.474      197.769      172.938      110.454    39112.494    29907.597    12199.993       13.812        4.061      440.204       99.709        0.051      342.555       18.044      864.131
10/11/2014  22:36:00     -303.496      415.251      -59.634      191.041      197.284      140.543    36496.520    38920.916    19752.475       18.162        4.758      514.338      136.698        0.071      342.552       18.039      864.122
10/11/2014  22:37:00     -276.347      400.583      -52.475      173.560      179.638      119.001    30122.926    32269.841    14161.328       15.806        3.828      486.657      108.315        0.050      342.525       17.992      864.152
10/11/2014  22:38:00     -286.305      590.383      -76.837      183.560      247.414      115.316    33694.417    61213.720    13297.839       27.230        5.410      656.142      112.469        0.029      342.472       17.901      864.167
10/11/2014  22:39:00     -255.223      552.153      -68.063      125.162      210.671       97.017    15665.452    44382.317     9412.252       22.204        3.473      608.286       94.686        0.024      342.446       17.859      864.177
10/11/2014  22:40:00     -209.807      325.222      -49.901      147.485      207.464      102.229    21751.925    43041.486    10450.706       11.375        3.762      387.025       87.805        0.051      342.434       17.837      864.196
10/11/2014  22:41:00     -245.114      441.041      -69.303      159.146      228.964       97.591    25327.555    52424.713     9524.075       17.332        4.364      504.577       88.508        0.031      342.399       17.777      864.197
10/11/2014  22:42:00     -308.655      448.466      -63.736      241.200      282.041      136.364    58177.363    79547.104    18595.139       22.836        7.816      544.417      165.245        0.092      342.358       17.708      864.204
10/11/2014  22:43:00     -272.286      298.695      -46.872      226.476      222.387      105.658    51291.591    49456.090    11163.642       13.871        5.596      404.176      128.139        0.101      342.343       17.683      864.248
10/11/2014  22:44:00     -256.866      462.043      -68.726      181.726      211.009       87.708    33024.175    44524.833     7692.707       18.470        4.262      528.643       89.123        0.028      342.293       17.599      864.267
10/11/2014  22:45:00     -208.324      400.559      -46.682      161.444      217.924       89.615    26064.145    47491.079     8030.877       14.379        4.079      451.494       86.003        0.036      342.294       17.598      864.247
10/11/2014  22:46:00     -213.176      467.300      -69.696      154.391      186.393       96.907    23836.447    34742.439     9390.935       16.831        3.398      513.627       89.280        0.030      342.267       17.554      864.173
10/11/2014  22:47:00     -234.454      188.537      -22.594      186.477      131.757      103.633    34773.857    17359.801    10739.863        7.694        3.144      300.857      100.789        0.112      342.269       17.558      864.103
10/11/2014  22:48:00     -253.215      389.100      -53.147      197.910      232.600      123.126    39168.503    54102.725    15159.965       16.337        5.422      464.238      113.830        0.060      342.266       17.553      864.093
10/11/2014  22:49:00     -351.381      393.839      -69.634      225.612      210.576      106.828    50900.761    44342.206    11412.303       19.502        5.333      527.804      110.260        0.044      342.259       17.539      864.080
10/11/2014  22:50:00     -377.463      492.785      -90.103      222.468      263.546      116.599    49491.877    69456.286    13595.425       26.297        6.627      620.737      137.720        0.049      342.232       17.495      864.042
10/11/2014  22:51:00     -270.547      452.036      -60.718      179.017      223.743      102.461    32047.095    50061.130    10498.202       18.690        4.630      526.813      102.921        0.038      342.217       17.469      864.040
10/11/2014  22:52:00     -340.671      485.993      -93.952      188.280      203.551      111.387    35449.325    41433.107    12407.129       22.517        4.464      593.503       99.298        0.028      342.225       17.482      864.051
10/11/2014  22:53:00     -373.955      399.168      -98.324      184.412      182.354       99.175    34007.910    33252.919     9835.601       19.296        3.855      546.971      106.583        0.038      342.220       17.474      864.102
10/11/2014  22:54:00     -394.152      465.859      -81.587      183.202      214.346      112.347    33562.922    45944.366    12621.953       23.557        4.606      610.230      113.523        0.035      342.189       17.421      864.098
10/11/2014  22:55:00     -337.430      406.622      -72.530      196.563      211.360      103.840    38637.017    44672.935    10782.827       18.926        4.705      528.394      111.467        0.045      342.176       17.400      864.128
10/11/2014  22:56:00     -311.375      320.440      -39.359      184.092      189.420      101.462    33889.952    35880.082    10294.537       14.061        4.003      446.807       98.103        0.048      342.131       17.322      864.170
10/11/2014  22:57:00     -388.713      418.500      -91.102      208.053      180.587       97.551    43286.131    32611.512     9516.259       20.996        4.271      571.174       90.944        0.025      342.126       17.314      864.188
10/11/2014  22:58:00     -281.923      383.711      -57.733      165.926      190.862      102.952    27531.401    36428.466    10599.094       15.229        3.728      476.145      114.125        0.057      342.101       17.271      864.199
10/11/2014  22:59:00     -283.555      346.774      -43.951      205.147      176.721      106.748    42085.321    31230.251    11395.215       14.363        4.236      447.946      106.536        0.057      342.088       17.250      864.209
10/11/2014  23:00:00     -254.971      311.131      -48.157      141.466      174.786       96.792    20012.556    30550.188     9368.687       11.202        2.997      402.260       96.461        0.058      342.076       17.230      864.201
10/11/2014  23:01:00     -388.937      346.918      -75.243      194.719      267.072      104.235    37915.311    71327.234    10865.003       19.868        6.005      521.176      109.274        0.044      342.080       17.236      864.205
10/11/2014  23:02:00     -264.007      269.225      -52.452      137.526      145.310       81.704    18913.345    21114.964     6675.549        9.581        2.335      377.070       81.852        0.047      342.065       17.211      864.202
10/11/2014  23:03:00     -274.143      224.940      -43.475      150.354      190.859      104.359    22606.400    36427.270    10890.727        9.877        3.496      354.616       85.597        0.058      342.055       17.193      864.229
10/11/2014  23:04:00     -229.305      161.850      -32.525      151.618      182.480       94.679    22988.141    33299.116     8964.037        7.253        3.263      280.671       98.010        0.122      342.039       17.167      864.232
10/11/2014  23:05:00     -219.008      207.565      -48.160      113.759      197.964       74.651    12941.168    39189.910     5572.837        7.553        2.885      301.741       59.768        0.039      342.028       17.148      864.215
10/11/2014  23:06:00     -253.880      253.636      -43.665      167.015      183.795       91.169    27893.962    33780.488     8311.781       10.033        3.499      358.868      100.049        0.078      342.020       17.133      864.217
10/11/2014  23:07:00     -300.975      423.518      -67.658      153.477      237.419       93.537    23555.072    56367.837     8749.221       18.159        4.434      519.570       90.227        0.030      342.012       17.122      864.261
10/11/2014  23:08:00     -303.215      297.677      -74.736      181.019      201.720       81.122    32767.778    40690.760     6580.775       13.307        4.002      424.913       84.111        0.039      342.003       17.107      864.295
10/11/2014  23:09:00     -386.520      439.097     -102.994      194.605      184.319      119.489    37871.160    33973.391    14277.669       21.945        4.306      584.982      103.771        0.031      341.998       17.096      864.327
10/11/2014  23:10:00     -270.062      362.779      -72.859      180.498      144.984       92.253    32579.680    21020.404     8510.675       13.597        3.106      452.263      117.221        0.067      341.964       17.038      864.324
10/11/2014  23:11:00     -393.422      376.308      -97.548      158.893      161.271      100.439    25247.045    26008.412    10087.965       18.361        3.067      544.416       94.560        0.030      341.977       17.060      864.334
10/11/2014  23:12:00     -288.237      270.242      -41.860      176.578      165.477      106.793    31179.956    27382.550    11404.806       11.390        3.498      395.109       96.570        0.060      341.969       17.048      864.350
10/11/2014  23:13:00     -331.812      390.028      -78.822      143.351      127.247       84.774    20549.595    16191.775     7186.577       15.617        2.196      512.075       84.508        0.027      341.976       17.058      864.381
10/11/2014  23:14:00     -288.625      300.360      -51.884      155.020      162.804       88.206    24031.222    26505.144     7780.331       11.725        2.916      416.558       90.785        0.047      341.988       17.079      864.434
10/11/2014  23:15:00     -216.172      335.193      -50.870      113.361      155.980       81.647    12850.712    24329.641     6666.226       10.275        2.192      398.854       73.507        0.034      341.965       17.041      864.481
10/11/2014  23:16:00     -352.167      388.936      -79.210      160.892      164.683       83.920    25886.322    27120.380     7042.501       17.080        3.002      524.683       79.571        0.023      341.954       17.022      864.540
10/11/2014  23:17:00     -273.819      373.361      -49.797      169.868      170.239       82.565    28855.127    28981.347     6816.987       14.074        3.233      463.007       92.156        0.040      341.898       16.926      864.558
10/11/2014  23:18:00     -224.562      363.358      -56.085      171.340      167.566       88.693    29357.257    28078.257     7866.518       12.544        3.265      427.150       94.619        0.049      341.837       16.822      864.566
10/11/2014  23:19:00     -145.877      331.089      -36.568      111.173      179.155       74.036    12359.373    32096.424     5481.367        9.108        2.497      361.801       78.407        0.047      341.762       16.696      864.583
10/11/2014  23:20:00     -127.035      274.009      -38.606      100.300      163.626       63.633    10060.133    26773.504     4049.180        6.679        2.044      302.024       65.759        0.047      341.745       16.668      864.582
10/11/2014  23:21:00     -183.248      220.360      -31.521      117.811      126.364       73.496    13879.500    15967.760     5401.626        5.918        1.762      286.598       62.371        0.047      341.739       16.657      864.565
10/11/2014  23:22:00     -177.141      410.429      -52.482      150.244      229.997       87.875    22573.232    52898.846     7721.929       14.288        4.160      447.025       97.267        0.047      341.731       16.644      864.530
10/11/2014  23:23:00     -238.258      260.045      -58.165      158.273      114.940       65.644    25050.496    13211.138     4309.145        8.517        2.129      352.690       64.152        0.033      341.746       16.669      864.493
10/11/2014  23:24:00      -94.656      137.758       -3.314       86.649       83.062       53.279     7508.060     6899.274     2838.634        2.259        0.862      167.144       47.268        0.080      341.713       16.615      864.459
10/11/2014  23:25:00     -171.575      282.230      -39.305      112.421      196.403       76.016    12638.589    38574.244     5778.441        8.380        2.850      330.290       78.056        0.056      341.731       16.644      864.441
10/11/2014  23:26:00     -206.495      236.449      -27.818      113.178      128.613       74.319    12809.251    16541.195     5523.246        6.709        1.744      313.924       72.564        0.053      341.715       16.616      864.426
10/11/2014  23:27:00     -280.270      181.212      -55.058      180.666      135.336       76.753    32640.109    18315.869     5891.046        8.562        2.842      333.750       98.474        0.087      341.760       16.693      864.441
10/11/2014  23:28:00     -158.590      151.509      -30.623      104.736       97.944       59.303    10969.681     9593.049     3516.806        3.656        1.204      219.330       46.970        0.046      341.727       16.637      864.457
10/11/2014  23:29:00     -219.226      311.887      -65.499      163.763      161.930       84.457    26818.404    26221.420     7132.909       10.489        3.009      381.226      109.622        0.083      341.737       16.655      864.480
10/11/2014  23:30:00     -170.576      205.648      -35.379      124.875      140.569       58.810    15593.643    19759.640     3458.593        5.572        1.941      267.184       69.920        0.068      341.733       16.650      864.506
10/11/2014  23:31:00     -111.987      104.660       -4.834       74.217      107.711       46.620     5508.199    11601.621     2173.380        2.140        0.964      153.280       35.190        0.053      341.684       16.566      864.533
10/11/2014  23:32:00      -57.556      -35.720       -8.261       64.627       73.309       34.520     4176.624     5374.254     1191.620        0.770        0.537       67.739       38.392        0.321      341.675       16.551      864.551
10/11/2014  23:33:00      -19.262       50.624      -10.734       81.280       50.360       31.823     6606.438     2536.177     1012.728        0.660        0.508       54.165       28.263        0.272      341.688       16.574      864.554
10/11/2014  23:34:00      -44.935      -51.158        4.761      112.399       44.845       36.150    12633.494     2011.103     1306.835        1.030        0.798       68.091       43.992        0.417      341.670       16.545      864.560
10/11/2014  23:35:00      -99.011      -15.339      -14.909       52.304       25.280       21.852     2735.692      639.101      477.520        0.706        0.193      100.192       26.026        0.067      341.649       16.515      864.583
10/11/2014  23:36:00      -44.294      -46.426       -3.062       31.624       55.448       22.079     1000.067     3074.445      487.496        0.434        0.228       64.166       14.021        0.048      341.643       16.501      864.576
10/11/2014  23:37:00     -162.128      -76.280      -12.256       89.640       57.671       30.743     8035.305     3325.929      945.158        2.228        0.615      179.177       36.142        0.041      341.619       16.453      864.583
10/11/2014  23:38:00     -167.131       54.986      -15.449      107.580       99.967       62.965    11573.367     9993.352     3964.566        2.836        1.277      175.943       62.168        0.125      341.567       16.366      864.603
10/11/2014  23:39:00      -73.259      -70.130        3.291       73.749       91.410       41.868     5438.878     8355.878     1752.931        1.292        0.777      101.415       38.115        0.141      341.550       16.339      864.597
10/11/2014  23:40:00      -17.705      -33.468      -28.095       51.210       79.894       29.785     2622.449     6383.091      887.172        0.606        0.495       37.863       27.491        0.527      341.601       16.427      864.598
10/11/2014  23:41:00        6.779      -25.800       -5.248       51.408       76.874       38.777     2642.760     5909.656     1503.651        0.540        0.503       26.676       29.114        1.191      341.531       16.306      864.604
10/11/2014  23:42:00     -134.509      -46.112        1.294       76.795       46.275       32.737     5897.449     2141.358     1071.717        1.466        0.456      142.193       37.282        0.069      341.490       16.237      864.590
10/11/2014  23:43:00      -73.448       33.319        1.032       74.198       39.183       38.129     5505.327     1535.326     1453.796        0.750        0.425       80.652       40.942        0.258      341.440       16.154      864.622
10/11/2014  23:44:00        1.365       18.438        2.315       43.550       63.188       28.253     1896.621     3992.704      798.234        0.352        0.334       18.488       17.776        0.924      341.462       16.191      864.630
10/11/2014  23:45:00      -20.704        3.666       -2.400       22.076       17.206       11.038      487.340      296.052      121.828        0.068        0.045       21.026        8.970        0.182      341.389       16.069      864.642
10/11/2014  23:46:00      -29.374       -8.328        0.137       42.637       30.400       18.960     1817.901      924.168      359.487        0.202        0.155       30.532        7.299        0.057      341.477       16.217      864.658
10/11/2014  23:47:00      -20.859       20.481        5.374       51.436       33.817       34.271     2645.689     1143.593     1174.488        0.292        0.248       29.232       30.291        1.074      341.448       16.166      864.670
10/11/2014  23:48:00      -37.036       14.577       -1.895       18.433       19.254       14.388      339.774      370.721      207.001        0.125        0.046       39.802       12.662        0.101      341.423       16.124      864.685
10/11/2014  23:49:00      -48.168      -58.071        4.283       46.208       40.145       31.255     2135.163     1611.618      976.845        0.522        0.236       75.448       26.182        0.120      341.427       16.132      864.686
10/11/2014  23:50:00      -94.129        3.867       -1.347       36.006       30.189       20.059     1296.426      911.348      402.381        0.574        0.131       94.209       16.110        0.029      341.478       16.218      864.701
10/11/2014  23:51:00      -33.037       27.196       -9.361       46.718       20.139       13.586     2182.571      405.578      184.578        0.235        0.139       42.791       11.862        0.077      341.388       16.065      864.713
10/11/2014  23:52:00       21.567      -23.009       -8.016       21.805       34.121       19.490      475.467     1164.212      379.863        0.154        0.101       31.537       10.905        0.120      341.394       16.076      864.714
10/11/2014  23:53:00     -139.879       96.228      -32.658       85.501       98.029       50.481     7310.393     9609.712     2548.327        2.468        0.973      169.782       54.255        0.102      341.418       16.113      864.741
10/11/2014  23:54:00       -7.591      121.213      -13.693       65.456       71.730       38.976     4284.500     5145.227     1519.137        1.294        0.547      121.450       42.007        0.120      341.402       16.087      864.755
10/11/2014  23:55:00     -134.075      105.399      -22.107      137.015       68.735       62.428    18773.233     4724.560     3897.310        2.848        1.370      170.544       81.865        0.230      341.365       16.022      864.754
10/11/2014  23:56:00      -49.245       47.931       15.901      114.234      103.560       66.588    13049.330    10724.751     4433.967        1.659        1.410       68.720       70.175        1.043      341.338       15.979      864.748
10/11/2014  23:57:00     -188.813       41.556      -28.582       84.784      114.123       58.803     7188.272    13024.081     3457.823        3.093        1.184      193.332       44.124        0.052      341.372       16.037      864.738
10/11/2014  23:58:00      -97.648      103.502       -3.965      102.667       96.872       56.567    10540.566     9384.185     3199.838        2.169        1.156      142.295       40.901        0.083      341.351       16.001      864.756
10/11/2014  23:59:00      -29.276      120.775        3.050      105.182       79.343       58.486    11063.250     6295.368     3420.594        1.811        1.039      124.273       56.978        0.210      341.287       15.893      864.799
